     2              OBSERVATION DATA    GPS                 RINEX VERSION / TYPE
teqc 2000Jul20 Karen Wendt 20030425 19:01:38UTC             PGM / RUN BY / DATE
                                                            COMMENT
L2: 1 -> 1; 150 -> 5; 250 -> 9                              COMMENT
L2: 1 -> 1; 150 -> 5; 250 -> 9                              COMMENT
L2: 1 -> 1; 150 -> 5; 250 -> 9                              COMMENT
L2: 1 -> 1; 150 -> 5; 250 -> 9                              COMMENT
L2: 1 -> 1; 150 -> 5; 250 -> 9                              COMMENT
L2: 1 -> 1; 150 -> 5; 250 -> 9                              COMMENT
L2: 1 -> 1; 150 -> 5; 250 -> 9                              COMMENT
L2: 1 -> 1; 150 -> 5; 250 -> 9                              COMMENT
L2: 1 -> 1; 150 -> 5; 250 -> 9                              COMMENT
L2: 1 -> 1; 150 -> 5; 250 -> 9                              COMMENT
L2: 1 -> 1; 150 -> 5; 250 -> 9                              COMMENT
L2: 1 -> 1; 150 -> 5; 250 -> 9                              COMMENT
L2: 1 -> 1; 150 -> 5; 250 -> 9                              COMMENT
L2: 1 -> 1; 150 -> 5; 250 -> 9                              COMMENT
Original Marker Name: mont Montosa_1944_USC&GS              COMMENT
Campaign Name: USGS 2003                                    COMMENT
4-Character Station Name: MONT                              COMMENT
6-Character Antenna Code: DMRCHT                            COMMENT
Vertical Measurement Point: BCR                             COMMENT
Vertical Offset to Rinex Ref. Point: 0.0348                 COMMENT
Radial Measurement Point: ECF                               COMMENT
Radial Offset to Rinex Ref. Point: 0.1897                   COMMENT
Antenna Height from Field Measurement: 1.1810 m             COMMENT
Additional Antenna Identification Info.:                    COMMENT
Turborogue and Ashtech Choke Ring                           COMMENT
Original XYZ: -2639974.4106 -4444940.0914 3723956.8989      COMMENT
New XYZ position is based on association with SCEC monument COMMENT
E1F1N1C4+0011. Position of that monument is believed to be  COMMENT
valid to within 1 m horizontally; vertical accuracy         COMMENT
should be no worse than 3-times this value.                 COMMENT
                                                            COMMENT
Revised Rinex header created by UCSD GPS archive for        COMMENT
GSAC on 11-Jul-2003 (2003:192) 16:23:50 GMT                 COMMENT
For assistance contact dagnew@ucsd.edu                      COMMENT
or anderson@python.ucsd.edu                                 COMMENT
                                                            COMMENT
MONTOSA 1944                                                MARKER NAME
JMS US GEOLOGICAL SURVEY                                    OBSERVER / AGENCY
LP019992804 ASHTECH Z-XII3 CD00                             REC # / TYPE / VERS
CR14341 DORNE-MARGOL. TYPE T                                ANT # / TYPE
 -2639993.4439 -4444918.7120  3723951.4686                  APPROX POSITION XYZ
        1.1309        0.0000        0.0000                  ANTENNA: DELTA H/E/N
     1     1     0                                          WAVELENGTH FACT L1/2
     5    C1    L1    L2    P1    P2                        # / TYPES OF OBSERV
    30                                                      INTERVAL
  2003     4    13     0     1    0.000000                  TIME OF FIRST OBS
  2003     4    13    23    59   30.000000                  TIME OF LAST OBS
                                                            END OF HEADER
 03  4 13  0  1  0.0000000  0  9G31G 3G21G17G 9G23G15G14G18
  22760282.235    -9903525.03949  -7689145.83546  22760281.655    22760286.074
  21688073.637   -18009945.70649 -14008941.93647  21688073.230    21688077.196
  22143899.305   -19963781.65449 -15266482.91046  22143898.728    22143901.777
  22420194.210   -17691556.03449 -13764200.61346  22420193.503    22420199.000
  23525943.903    -7728213.37849  -5626236.04245  23525943.548    23525948.877
  21740245.018   -17880245.67149 -13906556.62347  21740244.372    21740248.181
  20375389.886   -28307658.39049 -22037328.91148  20375389.082    20375392.825
  21040805.362   -21537087.40449 -16764549.23147  21040804.814    21040807.714
  21242613.757   -22038256.12449 -17142609.55447  21242613.215    21242615.734
 03  4 13  0  1 30.0000000  0  9G31G 3G21G17G 9G23G15G14G18
  22751006.566    -9952268.86649  -7727128.01946  22751006.027    22751010.394
  21688300.789   -18008751.90549 -14008011.70847  21688300.402    21688304.394
  22157416.299   -19892749.46549 -15211133.20346  22157415.720    22157418.813
  22433754.185   -17620298.07349 -13708674.99746  22433753.475    22433758.991
  23522674.253    -7745394.79549  -5639624.14145  23522673.902    23522679.210
  21749078.904   -17833823.10049 -13870383.20347  21749078.276    21749082.079
  20380046.714   -28283186.65849 -22018260.04148  20380045.898    20380049.656
  21028099.167   -21603859.09649 -16816579.08247  21028098.610    21028101.454
  21251714.233   -21990433.03649 -17105344.82447  21251713.685    21251716.205
 03  4 13  0  2  0.0000000  0  9G31G 3G21G17G 9G23G15G14G18
  22741830.773   -10000488.11249  -7764701.43246  22741830.199    22741834.527
  21688635.683   -18006992.31049 -14006640.60947  21688635.290    21688639.284
  22170991.326   -19821412.55449 -15155546.06346  22170990.722    22170993.815
  22447371.622   -17548738.05249 -13652914.02746  22447370.889    22447376.501
  23519508.538    -7762030.50849  -5652586.99945  23519508.223    23519513.504
  21757931.389   -17787303.11749 -13834133.88247  21757930.738    21757934.558
  20384779.935   -28258313.41749 -21998878.30548  20384779.121    20384782.868
  21015481.764   -21670163.65549 -16868244.93147  21015481.195    21015484.036
  21260847.028   -21942440.10149 -17067947.74547  21260846.452    21260848.941
 03  4 13  0  2 30.0000000  0  9G31G 3G21G17G 9G23G15G14G18
  22732755.106   -10048180.82949  -7801864.55546  22732754.522    22732758.939
  21689078.173   -18004666.95149 -14004828.65447  21689077.754    21689081.743
  22184624.353   -19749771.00949 -15099721.54446  22184623.684    22184626.801
  22461046.563   -17476876.04049 -13596917.73846  22461045.861    22461051.423
  23516447.057    -7778118.46149  -5665123.04545  23516446.663    23516452.020
  21766802.350   -17740686.10449 -13797808.96147  21766801.687    21766805.501
  20389589.733   -28233037.80949 -21979183.03648  20389588.941    20389592.704
  21002953.690   -21735998.87449 -16919545.06447  21002953.148    21002955.983
  21270012.072   -21894277.63149 -17030418.57147  21270011.507    21270013.966
 03  4 13  0  3  0.0000000  0  9G31G 3G21G17G 9G23G15G14G18
  22723779.833   -10095346.06749  -7838616.66446  22723779.245    22723783.658
  21689628.207   -18001776.43749 -14002576.31647  21689627.813    21689631.775
  22198315.112   -19677825.76249 -15043660.36746  22198314.477    22198317.549
  22474778.850   -17404712.87649 -13540686.78646  22474778.125    22474783.697
  23513490.053    -7793657.68249  -5677231.50645  23513489.661    23513494.915
  21775691.489   -17693973.41649 -13761409.48247  21775690.843    21775694.632
  20394476.081   -28207359.83449 -21959174.23148  20394475.289    20394479.082
  20990515.178   -21801363.67749 -16970478.63547  20990514.629    20990517.434
  21279209.033   -21845947.06449 -16992758.40947  21279208.481    21279210.973
 03  4 13  0  3 30.0000000  0  9G31G 3G21G17G 9G23G15G14G18
  22714905.417   -10141981.39449  -7874955.85046  22714904.818    22714909.224
  21690285.925   -17998320.38549 -13999883.30947  21690285.518    21690289.471
  22212063.801   -19605576.28449 -14987362.14146  22212063.159    22212066.236
  22488568.435   -17332248.02649 -13484220.74446  22488567.768    22488573.307
  23510637.868    -7808645.76749  -5688910.52345  23510637.464    23510642.917
  21784598.896   -17647164.93349 -13724935.36447  21784598.236    21784602.039
  20399439.288   -28181278.05749 -21938850.78448  20399438.493    20399442.248
  20978166.647   -21866255.47649 -17021043.64147  20978166.088    20978168.890
  21288437.926   -21797448.78449 -16954967.56547  21288437.381    21288439.910
 03  4 13  0  4  0.0000000  0  9G31G 3G21G17G 9G23G15G14G18
  22706132.069   -10188085.34849  -7910880.98346  22706131.503    22706135.869
  21691051.124   -17994299.13149 -13996749.87047  21691050.738    21691054.734
  22225870.169   -19533023.34149 -14930827.44246  22225869.531    22225872.670
  22502415.454   -17259481.70349 -13427519.81046  22502414.812    22502420.371
  23507890.829    -7823081.42649  -5700159.06545  23507890.476    23507895.814
  21793524.252   -17600261.59649 -13688387.32447  21793523.598    21793527.437
  20404479.477   -28154791.95749 -21918212.27748  20404478.663    20404482.414
  20965908.388   -21930672.91349 -17071239.00947  20965907.834    20965910.612
  21297698.648   -21748783.43249 -16917046.53347  21297698.120    21297700.626
 03  4 13  0  4 30.0000000  0  9G31G 3G21G17G 9G23G15G14G18
  22697460.010   -10233657.51449  -7946391.73646  22697459.446    22697463.811
  21691923.655   -17989714.01749 -13993177.07247  21691923.244    21691927.262
  22239734.128   -19460167.90549 -14874057.03146  22239733.513    22239736.682
  22516319.677   -17186415.19449 -13370584.94546  22516318.987    22516324.584
  23505248.996    -7836964.10749  -5710976.72145  23505248.486    23505253.980
  21802467.297   -17553265.16949 -13651766.75047  21802466.686    21802470.569
  20409596.469   -28127901.93449 -21897259.02648  20409595.681    20409599.419
  20953740.559   -21994615.24149 -17121064.16547  20953739.988    20953742.767
  21306990.809   -21699952.93249 -16878996.81047  21306990.268    21306992.787
 03  4 13  0  5  0.0000000  0  9G31G 3G21G17G 9G23G15G14G18
  22688889.260   -10278697.11549  -7981487.49946  22688888.669    22688893.015
  21692903.181   -17984566.42449 -13989165.97747  21692902.796    21692906.860
  22253655.407   -19387011.57149 -14817052.16246  22253654.735    22253657.926
  22530280.657   -17113049.77149 -13313417.17546  22530280.002    22530285.612
  23502712.457    -7850293.15649  -5721362.99045  23502712.210    23502717.600
  21811427.891   -17506177.06249 -13615074.73647  21811427.283    21811431.170
  20414790.249   -28100608.37149 -21875991.33048  20414789.455    20414793.177
  20941663.257   -22058081.64849 -17170518.47347  20941662.709    20941665.503
  21316314.000   -21650959.20049 -16840819.89147  21316313.473    21316316.026
 03  4 13  0  5 30.0000000  0  9G31G 3G21G17G 9G23G15G14G18
  22680420.404   -10323200.88149  -8016165.73846  22680419.822    22680424.188
  21693990.108   -17978854.78449 -13984715.36247  21693989.723    21693993.727
  22267634.129   -19313552.96349 -14759811.75146  22267633.488    22267636.671
  22544298.815   -17039384.39549 -13256015.66846  22544298.047    22544303.726
  23500282.085    -7863065.31349  -5731315.30045  23500281.733    23500287.032
  21820406.145   -17458996.27349 -13578310.50847  21820405.508    21820409.387
  20420061.321   -28072908.77749 -21854407.24648  20420060.536    20420064.265
  20929677.182   -22121068.66249 -17219599.22847  20929676.636    20929679.449
  21325668.448   -21601801.05049 -16802514.85647  21325667.937    21325670.534
 03  4 13  0  6  0.0000000  0  9G31G 3G21G17G 9G23G15G14G18
  22672053.784   -10367167.70549  -8050425.56946  22672053.204    22672057.552
  21695184.190   -17972579.94949 -13979825.88747  21695183.787    21695187.816
  22281670.288   -19239792.90049 -14702336.43346  22281669.611    22281672.846
  22558373.917   -16965419.34649 -13198380.65646  22558373.173    22558378.905
  23497957.731    -7875279.21749  -5740832.62145  23497957.533    23497962.861
  21829401.809   -17411723.90749 -13541474.90847  21829401.180    21829405.044
  20425409.712   -28044802.86549 -21832506.54348  20425408.914    20425412.650
  20917782.578   -22183575.14349 -17268305.53947  20917782.041    20917784.863
  21335053.942   -21552479.82449 -16764082.74547  21335053.440    21335056.063
 03  4 13  0  6 30.0000000  0  9G31G 3G21G17G 9G23G15G14G18
  22663789.498   -10410596.70249  -8084266.32046  22663788.936    22663793.251
  21696485.167   -17965743.00849 -13974498.41647  21696484.806    21696488.848
  22295763.580   -19165732.25449 -14644626.90446  22295762.924    22295766.174
  22572505.872   -16891155.62949 -13140512.90846  22572505.189    22572510.956
  23495739.920    -7886934.26649  -5749914.47245  23495739.648    23495745.057
  21838414.628   -17364361.25349 -13504568.96247  21838414.011    21838417.867
  20430835.352   -28016290.99649 -21810289.52148  20430834.567    20430838.329
  20905979.592   -22245600.16949 -17316636.69647  20905979.042    20905981.839
  21344470.252   -21502996.98449 -16725524.70947  21344469.751    21344472.327
 03  4 13  0  7  0.0000000  0  9G31G 3G21G17G 9G23G15G14G18
  22655627.736   -10453486.76149  -8117687.12046  22655627.176    22655631.513
  21697893.045   -17958344.61749 -13968733.45147  21697892.671    21697896.690
  22309913.966   -19091371.80449 -14586683.75046  22309913.278    22309916.531
  22586694.591   -16816593.52649 -13082412.64946  22586693.947    22586699.714
  23493628.508    -7898029.28749  -5758559.94445  23493628.319    23493633.601
  21847444.503   -17316909.20449 -13467593.36047  21847443.889    21847447.707
  20436338.293   -27987372.78749 -21787755.86848  20436337.508    20436341.250
  20894268.471   -22307142.44249 -17364591.68147  20894267.909    20894270.687
  21353917.115   -21453353.57949 -16686841.55447  21353916.591    21353919.166
 03  4 13  0  7 30.0000000  0  9G31G 3G21G17G 9G23G15G14G18
  22647568.785   -10495836.81149  -8150687.12246  22647568.224    22647572.620
  21699407.652   -17950385.58249 -13962531.61847  21699407.263    21699411.270
  22324121.164   -19016712.52749 -14528507.74646  22324120.513    22324123.775
  22600939.953   -16741734.21249 -13024080.78646  22600939.265    22600945.058
  23491624.190    -7908563.44049  -5766768.37045  23491623.848    23491629.093
  21856491.119   -17269368.95049 -13430549.02047  21856490.516    21856494.334
  20441918.582   -27958048.17049 -21764905.53648  20441917.815    20441921.580
  20882649.410   -22368200.77749 -17412169.57747  20882648.853    20882651.629
  21363394.335   -21403550.79849 -16648034.21147  21363393.830    21363396.370
 03  4 13  0  8  0.0000000  0  9G31G 3G21G17G 9G23G15G14G18
  22639612.907   -10537645.26149  -8183265.09846  22639612.353    22639616.732
  21701028.821   -17941866.20449 -13955893.15647  21701028.431    21701032.439
  22338385.224   -18941754.46949 -14470098.92946  22338384.578    22338387.843
  22615241.854   -16666577.51449 -12965517.19746  22615241.194    22615246.982
  23489726.465    -7918534.99649  -5774538.41145  23489726.231    23489731.562
  21865554.494   -17221740.78449 -13393436.18347  21865553.872    21865557.723
  20447576.437   -27928316.14749 -21741737.74848  20447575.638    20447579.389
  20871122.808   -22428773.34049 -17459368.94747  20871122.253    20871125.015
  21372901.719   -21353589.23849 -16609103.13947  21372901.188    21372903.746
 03  4 13  0  8 30.0000000  0  9G31G 3G21G17G 9G23G15G14G18
  22631760.405   -10578910.50649  -8215419.81046  22631759.839    22631764.179
  21702756.567   -17932786.91349 -13948818.39147  21702756.175    21702760.191
  22352706.103   -18866498.17849 -14411457.71146  22352705.444    22352708.718
  22629600.303   -16591123.64749 -12906722.04946  22629599.644    22629605.434
  23487936.389    -7927942.58649  -5781868.98345  23487936.160    23487941.272
  21874634.502   -17174025.17449 -13356255.20147  21874633.866    21874637.724
  20453311.903   -27898176.15649 -21718252.05748  20453311.107    20453314.848
  20859688.983   -22488858.46749 -17506188.49747  20859688.408    20859691.170
  21382439.138   -21303469.78649 -16570049.03347  21382438.606    21382441.162
 03  4 13  0  9  0.0000000  0  9G31G 3G21G17G 9G23G15G14G18
  22624011.374   -10619631.56849  -8247150.48246  22624010.824    22624015.135
  21704590.679   -17923148.69549 -13941308.11347  21704590.285    21704594.296
  22367083.609   -18790944.03649 -14352584.41746  22367082.960    22367086.226
  22644015.101   -16515373.77149 -12847696.24346  22644014.415    22644020.278
  23486253.718    -7936785.19649  -5788759.31445  23486253.326    23486258.585
  21883730.996   -17126223.14949 -13319006.89447  21883730.329    21883734.168
  20459125.035   -27867628.11949 -21694448.41448  20459124.243    20459127.990
  20848348.077   -22548455.04349 -17552627.36347  20848347.509    20848350.277
  21392006.446   -21253193.27749 -16530872.55747  21392005.903    21392008.471
 03  4 13  0  9 30.0000000  0  9G31G 3G21G17G 9G23G15G14G18
  22616366.279   -10659806.57449  -8278455.64146  22616365.726    22616370.055
  21706531.181   -17912951.48949 -13933362.25147  21706530.772    21706534.762
  22381517.735   -18715092.66149 -14293479.51146  22381517.058    22381520.330
  22658486.362   -16439327.30649 -12788439.34846  22658485.707    22658491.492
  23484678.663    -7945061.21449  -5795208.14745  23484678.375    23484683.723
  21892843.825   -17078334.80449 -13281691.32047  21892843.180    21892847.022
  20465016.003   -27836671.00749 -21670326.00248  20465015.195    20465018.917
  20837100.563   -22607561.01949 -17598683.94247  20837100.006    20837102.775
  21401603.575   -21202759.99749 -16491573.91147  21401603.048    21401605.598
 03  4 13  0 10  0.0000000  0  9G31G 3G21G17G 9G23G15G14G18
  22608825.105   -10699435.63649  -8309335.40046  22608824.566    22608828.827
  21708577.649   -17902197.04449 -13924982.17947  21708577.265    21708581.270
  22396007.991   -18638945.97749 -14234144.48746  22396007.307    22396010.640
  22673013.712   -16362986.10949 -12728952.77646  22673013.050    22673018.818
  23483211.687    -7952770.63549  -5801215.46345  23483211.351    23483216.583
  21901972.690   -17030362.08049 -13244309.99047  21901972.070    21901975.930
  20470984.624   -27805305.77649 -21645885.58748  20470983.823    20470987.528
  20825946.433   -22666176.34849 -17644358.19547  20825945.858    20825948.601
  21411230.109   -21152172.16049 -16452154.83347  21411229.564    21411232.150
 03  4 13  0 10 30.0000000  0  9G31G 3G21G17G 9G23G15G14G18
  22601388.593   -10738514.74149  -8339786.62646  22601388.035    22601392.331
  21710730.557   -17890883.62349 -13916166.54847  21710730.164    21710734.171
  22410554.854   -18562501.54649 -14174577.47946  22410554.246    22410557.552
  22687597.521   -16286347.96149 -12669234.83246  22687596.814    22687602.606
  23481853.156    -7959909.46049  -5806778.17545  23481852.902    23481858.092
  21911118.028   -16982302.99849 -13206861.37247  21911117.419    21911121.305
  20477031.532   -27773529.16349 -21621124.60748  20477030.717    20477034.457
  20814886.374   -22724297.02049 -17689647.00447  20814885.824    20814888.585
  21420886.459   -21101427.88349 -16412613.85747  21420885.899    21420888.483
 03  4 13  0 11  0.0000000  0  9G31G 3G21G17G 9G23G15G14G18
  22594055.915   -10777047.98249  -8369812.49646  22594055.381    22594059.664
  21712988.716   -17879017.07349 -13906919.90547  21712988.311    21712992.308
  22425157.371   -18485765.28749 -14114783.05646  22425156.737    22425160.077
  22702236.806   -16209418.41149 -12609289.81346  22702236.099    22702241.912
  23480602.419    -7966482.09249  -5811899.67645  23480602.187    23480607.435
  21920278.672   -16934163.42949 -13169350.03747  21920278.067    21920281.971
  20483155.839   -27741345.83849 -21596046.71448  20483155.037    20483158.769
  20803919.778   -22781926.70649 -17734553.22547  20803919.226    20803921.982
  21430571.407   -21050533.32949 -16372955.78047  21430570.825    21430573.416
 03  4 13  0 11 30.0000000  0  9G31G 3G21G17G 9G23G15G14G18
  22586828.356   -10815029.15449  -8399408.19246  22586827.824    22586832.122
  21715352.849   -17866593.32949 -13897239.08347  21715352.454    21715356.469
  22439816.324   -18408732.50149 -14054757.60046  22439815.639    22439819.011
  22716932.351   -16132193.40149 -12549114.56646  22716931.575    22716937.409
  23479460.625    -7972482.36749  -5816575.19645  23479460.348    23479465.647
  21929455.444   -16885939.29349 -13131772.80047  21929454.854    21929458.748
  20489358.462   -27708750.91049 -21570648.09048  20489357.653    20489361.395
  20793047.796   -22839059.36049 -17779072.14747  20793047.233    20793049.979
  21440285.716   -20999484.32749 -16333177.35547  21440285.150    21440287.731
 03  4 13  0 12  0.0000000  0  9G31G 3G21G17G 9G23G15G14G18
  22579705.607   -10852459.17049  -8428574.40546  22579705.096    22579709.332
  21717822.557   -17853615.12149 -13887126.21347  21717822.155    21717826.170
  22454531.059   -18331406.00749 -13994503.28446  22454530.422    22454533.773
  22731683.567   -16054675.41249 -12488711.02146  22731682.753    22731688.707
  23478427.477    -7977911.19249  -5820805.41745  23478427.222    23478432.577
  21938647.798   -16837633.12149 -13094131.64447  21938647.191    21938651.089
  20495639.090   -27675746.05249 -21544930.03748  20495638.275    20495642.018
  20782270.231   -22895695.74049 -17823204.35847  20782269.644    20782272.386
  21450028.839   -20948283.89249 -16293280.93247  21450028.284    21450030.875
 03  4 13  0 12 30.0000000  0  9G31G 3G21G17G 9G23G15G14G18
  22572687.884   -10889337.45749  -8457310.71046  22572687.364    22572691.630
  21720397.490   -17840083.82349 -13876582.37247  21720397.102    21720401.087
  22469301.526   -18253787.18449 -13934021.15146  22469300.847    22469304.196
  22746490.345   -15976865.29849 -12428079.82646  22746489.573    22746495.621
  23477503.330    -7982767.89749  -5824589.83745  23477503.132    23477508.296
  21947855.543   -16789246.10549 -13056427.49747  21947854.936    21947858.901
  20501997.708   -27642331.06749 -21518892.40847  20501996.913    20502000.696
  20771587.304   -22951834.82149 -17866949.06947  20771586.720    20771589.458
  21459800.582   -20896933.07249 -16253267.33147  21459800.030    21459802.580
 03  4 13  0 13  0.0000000  0  9G31G 3G21G17G 9G23G15G14G18
  22565775.542   -10925662.22249  -8485615.69246  22565774.989    22565779.240
  21723077.647   -17825999.59649 -13865607.66947  21723077.257    21723081.290
  22484127.558   -18175876.16549 -13873311.33746  22484126.932    22484130.255
  22761352.758   -15898762.89549 -12367220.89046  22761352.004    22761358.059
  23476688.323    -7987050.97149  -5827927.27945  23476688.047    23476693.253
  21957078.680   -16740778.33949 -13018660.43047  21957078.051    21957082.019
  20508434.559   -27608505.14149 -21492534.56247  20508433.787    20508437.565
  20760999.356   -23007474.72549 -17910304.80947  20760998.790    20761001.481
  21469600.846   -20845432.32649 -16213136.90047  21469600.295    21469602.823
 03  4 13  0 13 30.0000000  0  9G31G 3G21G17G 9G23G15G14G18
  22558968.969   -10961431.12049  -8513487.53846  22558968.381    22558972.662
  21725863.088   -17811361.93349 -13854201.72547  21725862.728    21725866.770
  22499009.312   -18097672.09649 -13812373.16646  22499008.690    22499012.080
  22776271.025   -15820367.75149 -12306133.84446  22776270.226    22776276.158
  23475982.762    -7990757.95649  -5830815.82745  23475982.655    23475987.853
  21966317.361   -16692229.13849 -12980829.90547  21966316.715    21966320.620
  20514949.975   -27574266.64049 -21465855.23147  20514949.206    20514952.963
  20750506.891   -23062612.96849 -17953269.64447  20750506.333    20750509.011
  21479429.804   -20793781.03949 -16172889.16447  21479429.261    21479431.774
 03  4 13  0 14  0.0000000  0  9G31G 3G21G17G 9G23G15G14G18
  22552268.012   -10996644.18549  -8540926.25746  22552267.470    22552271.772
  21728753.469   -17796172.89249 -13842366.13247  21728753.077    21728757.124
  22513946.525   -18019176.79449 -13751208.07246  22513945.899    22513949.292
  22791244.490   -15741681.42449 -12244819.89346  22791243.800    22791249.787
  23475386.879    -7993889.35449  -5833255.86345  23475386.649    23475391.888
  21975571.157   -16643600.18049 -12942937.22447  21975570.529    21975574.411
  20521543.706   -27539616.40749 -21438855.06447  20521542.921    20521546.708
  20740109.868   -23117249.48449 -17995843.52347  20740109.311    20740111.991
  21489287.023   -20741981.18249 -16132525.65947  21489286.476    21489288.976
 03  4 13  0 14 30.0000000  0  9G31G 3G21G17G 9G23G15G14G18
  22545672.929   -11031301.66849  -8567932.06046  22545672.386    22545676.660
  21731748.401   -17780434.52349 -13830102.49047  21731748.014    21731752.088
  22528938.739   -17940392.39049 -13689817.69946  22528938.121    22528941.574
  22806273.098   -15662705.85749 -12183280.56046  22806272.376    22806278.409
  23474900.338    -7996445.37249  -5835247.56845  23474900.165    23474905.519
  21984839.730   -16594893.59949 -12904984.06647  21984839.102    21984842.987
  20528215.570   -27504555.58049 -21411534.95847  20528214.793    20528218.566
  20729808.329   -23171384.46549 -18038026.59647  20729807.783    20729810.434
  21499172.086   -20690034.95449 -16092048.09647  21499171.523    21499174.017
 03  4 13  0 15  0.0000000  0  9G31G 3G21G17G 9G23G15G14G18
  22539184.068   -11065400.75149  -8594502.75846  22539183.488    22539187.760
  21734848.068   -17764145.65349 -13817409.88147  21734847.688    21734851.804
  22543986.343   -17861317.37749 -13628200.87346  22543985.644    22543989.111
  22821356.981   -15583439.66849 -12121514.77446  22821356.273    22821362.384
  23474524.013    -7998423.29349  -5836788.78045  23474523.736    23474528.994
  21994123.304   -16546108.13449 -12866969.43747  21994122.666    21994126.579
  20534966.032   -27469081.78149 -21383893.04947  20534965.239    20534969.035
  20719602.814   -23225014.78649 -18079816.42248  20719602.258    20719604.899
  21509085.160   -20637941.18249 -16051455.56647  21509084.631    21509087.167
 03  4 13  0 15 30.0000000  0  9G31G 3G21G17G 9G23G15G14G18
  22532801.477   -11098941.11349  -8620638.07946  22532800.917    22532805.143
  21738052.128   -17747308.20849 -13804289.81947  21738051.750    21738055.893
  22559088.830   -17781953.44149 -13566358.93046  22559088.138    22559091.590
  22836495.887   -15503884.37749 -12059523.71946  22836495.203    22836501.387
  23474257.595    -7999823.08149  -5837879.52045  23474257.361    23474262.545
  22003421.669   -16497245.05149 -12828894.33247  22003420.999    22003424.908
  20541794.982   -27433195.46149 -21355929.70147  20541794.222    20541798.014
  20709493.393   -23278139.99149 -18121212.66048  20709492.836    20709495.472
  21519026.050   -20585701.32749 -16010749.21547  21519025.539    21519028.110
 03  4 13  0 16  0.0000000  0  9G31G 3G21G17G 9G23G15G14G18
  22526525.496   -11131921.79549  -8646337.28946  22526524.951    22526529.111
  21741360.395   -17729923.44249 -13790743.26447  21741360.000    21741364.150
  22574246.161   -17702301.13849 -13504292.26946  22574245.495    22574249.014
  22851689.677   -15424040.66649 -11997307.92746  22851689.065    22851695.247
  23474101.340    -8000643.80749  -5838519.05345  23474101.118    23474106.487
  22012734.690   -16448304.84949 -12790759.13147  22012734.011    22012737.913
  20548702.454   -27396896.45949 -21327644.77847  20548701.690    20548705.492
  20699480.333   -23330758.88949 -18162214.36748  20699479.788    20699482.418
  21528994.614   -20533316.32449 -15969929.75547  21528994.097    21528996.672
 03  4 13  0 16 30.0000000  0  9G31G 3G21G17G 9G23G15G14G18
  22520356.226   -11164341.79649  -8671599.60146  22520355.662    22520359.775
  21744772.595   -17711992.24849 -13776770.92347  21744772.207    21744776.357
  22589458.401   -17622360.95549 -13442001.29446  22589457.684    22589461.226
  22866938.297   -15343908.67349 -11934867.48546  22866937.668    22866943.880
  23474055.589    -8000884.49349  -5838706.58845  23474055.329    23474060.518
  22022062.205   -16399288.25749 -12752564.40547  22022061.544    22022065.476
  20555688.522   -27360184.48149 -21299038.05747  20555687.733    20555691.559
  20689563.853   -23382870.44649 -18202820.74748  20689563.253    20689565.886
  21538990.656   -20480786.97449 -15928997.81447  21538990.117    21538992.717
 03  4 13  0 17  0.0000000  0  9G31G 3G21G17G 9G23G15G14G18
  22514293.347   -11196202.06349  -8696425.75346  22514292.780    22514296.929
  21748288.302   -17693517.24349 -13762374.83747  21748287.923    21748292.061
  22604724.757   -17542135.80449 -13379488.27946  22604724.124    22604727.674
  22882241.380   -15263491.06049 -11872204.49646  22882240.755    22882246.896
  23474120.017    -8000546.30949  -5838443.06545  23474119.735    23474124.931
  22031403.878   -16350197.49349 -12714311.88047  22031403.227    22031407.179
  20562752.889   -27323061.00149 -21270110.68547  20562752.103    20562755.935
  20679743.743   -23434475.15949 -18243032.18448  20679743.172    20679745.803
  21549013.678   -20428115.60649 -15887955.20447  21549013.139    21549015.784
 03  4 13  0 17 30.0000000  0  9G31G 3G21G17G 9G23G15G14G18
  22508337.796   -11227498.31249  -8720812.41346  22508337.252    22508341.442
  21751907.851   -17674496.26649 -13747553.31947  21751907.478    21751911.671
  22620045.857   -17461622.90949 -13316751.02846  22620045.249    22620048.818
  22897599.251   -15182785.06649 -11809316.77846  22897598.632    22897604.807
  23474295.252    -7999624.96549  -5837725.11445  23474295.043    23474300.158
  22040760.141   -16301030.09049 -12675999.63847  22040759.500    22040763.453
  20569896.261   -27285522.38849 -21240859.83647  20569895.478    20569899.308
  20670020.944   -23485568.78149 -18282845.37348  20670020.403    20670023.000
  21559064.213   -20375299.84449 -15846800.09047  21559063.681    21559066.279
 03  4 13  0 18  0.0000000  0  9G31G 3G21G17G 9G23G15G14G18
  22502489.522   -11258231.48849  -8744760.31246  22502488.981    22502493.126
  21755630.850   -17654931.99249 -13732308.44847  21755630.460    21755634.642
  22635421.407   -17380824.80249 -13253791.54346  22635420.684    22635424.217
  22913011.661   -15101792.93349 -11746206.11046  22913010.982    22913017.117
  23474581.498    -7998121.46049  -5836553.53145  23474581.096    23474586.233
  22050130.523   -16251788.23449 -12637629.37847  22050129.893    22050133.895
  20577118.281   -27247570.41849 -21211286.89147  20577117.498    20577121.337
  20660395.310   -23536151.86349 -18322260.73148  20660394.736    20660397.349
  21569141.737   -20322342.35549 -15805534.53647  21569141.184    21569143.740
 03  4 13  0 18 30.0000000  0  9G31G 3G21G17G 9G23G15G14G18
  22496748.299   -11288401.63249  -8768269.48546  22496747.726    22496751.910
  21759456.846   -17634826.39749 -13716641.76847  21759456.462    21759460.629
  22650850.722   -17299743.26049 -13190611.18346  22650850.043    22650853.627
  22928478.098   -15020516.73049 -11682874.07645  22928477.416    22928483.466
  23474978.102    -7996036.26249  -5834928.70945  23474977.890    23474983.103
  22059514.817   -16202473.43149 -12599202.28447  22059514.176    22059518.172
  20584418.835   -27209205.97749 -21181392.53647  20584418.044    20584421.889
  20650866.726   -23586224.49849 -18361278.34248  20650866.173    20650868.767
  21579245.897   -20269244.61249 -15764159.69047  21579245.359    21579247.945
 03  4 13  0 19  0.0000000  0  9G31G 3G21G17G 9G23G15G14G18
  22491114.683   -11318006.04049  -8791337.84346  22491114.126    22491118.277
  21763385.994   -17614178.80249 -13700552.75647  21763385.582    21763389.722
  22666334.189   -17218377.01649 -13127208.99246  22666333.603    22666337.163
  22943998.844   -14938955.26449 -11619319.77445  22943998.111    22944004.165
  23475486.342    -7993366.53949  -5832848.37145  23475486.039    23475491.029
  22068913.257   -16153084.49249 -12560717.42447  22068912.620    22068916.590
  20591798.221   -27170426.98149 -21151175.16247  20591797.445    20591801.287
  20641435.890   -23635783.66249 -18399895.84948  20641435.332    20641437.944
  21589376.976   -20216005.48249 -15722674.67947  21589376.446    21589379.026
 03  4 13  0 19 30.0000000  0  9G31G 3G21G17G 9G23G15G14G18
  22485588.810   -11347044.61549  -8813965.27746  22485588.251    22485592.361
  21767417.844   -17592991.16349 -13684042.92447  21767417.460    21767421.604
  22681871.648   -17136727.67949 -13063586.19246  22681871.037    22681874.608
  22959573.652   -14857109.29249 -11555543.77545  22959572.948    22959579.069
  23476105.517    -7990112.49849  -5830312.75945  23476105.190    23476110.339
  22078325.557   -16103622.48249 -12522175.61747  22078324.924    22078328.936
  20599256.435   -27131233.98549 -21120635.18247  20599255.652    20599259.493
  20632102.856   -23684828.95049 -18438112.93048  20632102.303    20632104.912
  21599534.737   -20162626.48549 -15681080.67847  21599534.184    21599536.756
 03  4 13  0 20  0.0000000  0  9G31G 3G21G17G 9G23G15G14G18
  22480170.578   -11375517.47249  -8836151.90746  22480169.973    22480174.095
  21771552.168   -17571265.34749 -13667113.74047  21771551.788    21771555.898
  22697462.676   -17054796.85549 -12999744.05446  22697462.014    22697465.592
  22975202.194   -14774980.85049 -11491547.66445  22975201.509    22975207.663
  23476835.864    -7986274.53849  -5827322.11045  23476835.585    23476840.657
  22087751.456   -16054089.08349 -12483578.19447  22087750.808    22087754.869
  20606793.301   -27091627.64049 -21089773.12347  20606792.504    20606796.364
  20622867.617   -23733360.53649 -18475929.72848  20622867.056    20622869.647
  21609718.690   -20109109.44449 -15639379.11547  21609718.163    21609720.725
 03  4 13  0 20 30.0000000  0  9G31G 3G21G17G 9G23G15G14G18
  22474860.391   -11403422.56549  -8857896.11446  22474859.828    22474863.971
  21775788.946   -17549001.10149 -13649764.99647  21775788.565    21775792.677
  22713107.244   -16972584.14649 -12935682.29146  22713106.633    22713110.231
  22990884.714   -14692569.47849 -11427331.08945  22990883.912    22990890.087
  23477677.551    -7981850.76149  -5823875.00545  23477677.332    23477682.480
  22097191.154   -16004483.37049 -12444924.41247  22097190.483    22097194.537
  20614409.085   -27051606.31849 -21058587.69847  20614408.302    20614412.157
  20613730.549   -23781375.89049 -18513344.26048  20613729.982    20613732.580
  21619929.035   -20055453.72949 -15597569.48747  21619928.495    21619931.056
 03  4 13  0 21  0.0000000  0  9G31G 3G21G17G 9G23G15G14G18
  22469658.210   -11430760.25249  -8879198.18246  22469657.639    22469661.769
  21780127.637   -17526200.95149 -13631998.67147  21780127.262    21780131.386
  22728805.088   -16890091.68549 -12871402.51146  22728804.477    22728808.085
  23006620.700   -14609876.63549 -11362895.19145  23006619.938    23006626.144
  23478630.970    -7976841.39649  -5819971.59345  23478630.722    23478635.817
  22106644.339   -15954806.96649 -12406215.55647  22106643.679    22106647.646
  20622103.648   -27011171.22449 -21027079.85447  20622102.855    20622106.717
  20604691.688   -23828875.31249 -18550356.77348  20604691.139    20604693.707
  21630165.475   -20001660.99549 -15555653.10347  21630164.938    21630167.463
 03  4 13  0 21 30.0000000  0  9G31G 3G21G17G 9G23G15G14G18
  22464564.134   -11457529.68649  -8900057.47846  22464563.556    22464567.680
  21784568.166   -17502866.04149 -13613815.65147  21784567.778    21784571.878
  22744556.140   -16807319.63149 -12806904.89546  22744555.521    22744559.128
  23022410.063   -14526903.18549 -11298240.64745  23022409.327    23022415.612
  23479695.777    -7971245.82149  -5815611.39045  23479695.575    23479700.581
  22116110.788   -15905060.46249 -12367452.07847  22116110.126    22116114.105
  20629877.006   -26970322.13249 -20995249.42247  20629876.214    20629880.077
  20595751.223   -23875857.84949 -18586966.51548  20595750.659    20595753.203
  21640427.883   -19947731.85949 -15513630.42647  21640427.334    21640429.884
 03  4 13  0 22  0.0000000  0  9G31G 3G21G17G 9G23G15G14G18
  22459578.365   -11483729.99249  -8920473.28046  22459577.798    22459581.905
  21789110.242   -17478997.25649 -13595216.61947  21789109.863    21789113.982
  22760360.266   -16724268.79749 -12742190.03446  22760359.600    22760363.268
  23038252.758   -14443649.58049 -11233367.79445  23038252.060    23038258.314
  23480872.289    -7965063.45149  -5810793.94045  23480872.021    23480877.050
  22125590.510   -15855244.00849 -12328634.08647  22125589.863    22125593.878
  20637729.209   -26929058.75949 -20963096.16847  20637728.388    20637732.250
  20586909.305   -23922322.23049 -18623172.50048  20586908.750    20586911.305
  21650716.132   -19893666.81949 -15471501.85747  21650715.591    21650718.177
 03  4 13  0 22 30.0000000  0  9G31G 3G21G17G 9G23G15G14G18
  22454701.170   -11509359.73349  -8940444.49446  22454700.594    22454704.684
  21793753.787   -17454595.28049 -13576202.12147  21793753.399    21793757.515
  22776217.304   -16640939.34549 -12677258.06246  22776216.693    22776220.434
  23054148.859   -14360115.49549 -11168276.38045  23054148.125    23054154.424
  23482160.539    -7958292.86549  -5805518.18245  23482160.348    23482165.388
  22135083.609   -15805357.45049 -12289761.46847  22135082.991    22135087.057
  20645660.396   -26887379.93249 -20930619.17847  20645659.597    20645663.456
  20578166.330   -23968266.79749 -18658973.43448  20578165.782    20578168.330
  21661030.229   -19839466.11649 -15429267.56847  21661029.661    21661032.223
 03  4 13  0 23  0.0000000  0  9G31G 3G21G17G 9G23G15G14G18
  22449932.360   -11534419.89349  -8959971.87546  22449931.766    22449935.865
  21798498.218   -17429663.05649 -13556774.43447  21798497.854    21798502.029
  22792126.966   -16557333.63349 -12612110.83946  22792126.349    22792130.125
  23070097.866   -14276303.14249 -11102968.15545  23070097.084    23070103.439
  23483560.832    -7950935.24049  -5799784.93545  23483560.430    23483565.483
  22144589.749   -15755402.76849 -12250835.76947  22144589.100    22144593.155
  20653670.385   -26845287.22349 -20897819.68947  20653669.592    20653673.470
  20569522.095   -24013692.35549 -18694369.94148  20569521.547    20569524.105
  21671369.705   -19785131.86349 -15386929.21247  21671369.143    21671371.730
 03  4 13  0 23 30.0000000  0  9G31G 3G21G17G 9G23G15G14G18
  22445272.349   -11558908.48649  -8979053.89146  22445271.742    22445275.787
  21803343.684   -17404200.17649 -13536933.26147  21803343.309    21803347.427
  22808089.246   -16473451.31049 -12546748.06646  22808088.619    22808092.406
  23086099.845   -14192212.27149 -11037442.89745  23086099.106    23086105.468
  23485072.733    -7942989.10149  -5793593.13445  23485072.503    23485077.657
  22154109.012   -15705379.05349 -12211856.27847  22154108.340    22154112.320
  20661759.431   -26802779.24249 -20864696.60647  20661758.622    20661762.520
  20560977.070   -24058596.69149 -18729360.30548  20560976.512    20560979.078
  21681734.766   -19730663.15749 -15344486.09247  21681734.218    21681736.781
 03  4 13  0 24  0.0000000  0  9G31G 3G21G17G 9G23G15G14G18
  22440721.043   -11582825.73249  -8997690.69246  22440720.492    22440724.522
  21808289.704   -17378208.83249 -13516680.28847  21808289.315    21808293.468
  22824103.942   -16389293.91149 -12481170.94946  22824103.282    22824107.121
  23102154.409   -14107844.97249 -10971702.23245  23102153.682    23102160.145
  23486696.928    -7934454.61149  -5786942.85945  23486696.618    23486701.764
  22163641.029   -15655287.70349 -12172824.07447  22163640.371    22163644.381
  20669927.265   -26759857.01949 -20831250.74047  20669926.468    20669930.357
  20552531.253   -24102979.74549 -18763944.47348  20552530.679    20552533.221
  21692125.129   -19676061.60149 -15301939.44747  21692124.565    21692127.126
 03  4 13  0 24 30.0000000  0  9G31G 3G21G17G 9G23G15G14G18
  22436278.574   -11606170.93249  -9015881.74546  22436278.018    22436282.082
  21813335.998   -17351690.41849 -13496016.61647  21813335.622    21813339.812
  22840170.868   -16304862.16549 -12415380.04946  22840170.209    22840174.073
  23118261.666   -14023201.36349 -10905746.28345  23118260.921    23118267.334
  23488432.940    -7925331.32549  -5779833.80445  23488432.617    23488437.794
  22173185.891   -15605128.97649 -12133739.38347  22173185.263    22173189.273
  20678174.029   -26716520.16149 -20797481.78447  20678173.219    20678177.127
  20544184.764   -24146840.69149 -18798121.80648  20544184.197    20544186.738
  21702540.628   -19621327.91149 -15259289.84947  21702540.044    21702542.623
 03  4 13  0 25  0.0000000  0  9G31G 3G21G17G 9G23G15G14G18
  22431945.260   -11628942.73449  -9033625.99746  22431944.688    22431948.734
  21818482.483   -17324645.52549 -13474942.70447  21818482.099    21818486.293
  22856289.932   -16220156.25249 -12349375.53646  22856289.280    22856293.170
  23134421.379   -13938281.80749 -10839575.29745  23134420.714    23134427.089
  23490281.406    -7915617.70649  -5772264.73945  23490281.086    23490286.275
  22182743.731   -15554902.61949 -12094601.98247  22182743.096    22182747.069
  20686499.867   -26672767.71349 -20763388.99647  20686499.055    20686502.967
  20535937.916   -24190177.96449 -18831891.08148  20535937.356    20535939.909
  21712981.304   -19566461.91549 -15216537.14847  21712980.736    21712983.361
 03  4 13  0 25 30.0000000  0  9G31G 3G21G17G 9G23G15G14G18
  22427721.076   -11651141.03349  -9050923.35446  22427720.492    22427724.538
  21823728.885   -17297075.81849 -13453459.84947  21823728.487    21823732.683
  22872461.037   -16135177.30849 -12283158.26146  22872460.325    22872464.188
  23150633.431   -13853087.12149 -10773189.93245  23150632.790    23150639.165
  23492242.047    -7905314.30949  -5764236.09045  23492241.690    23492246.983
  22192314.242   -15504609.55649 -12055412.59947  22192313.571    22192317.568
  20694904.660   -26628600.41249 -20728972.94147  20694903.836    20694907.738
  20527790.840   -24232991.10549 -18865251.94048  20527790.276    20527792.821
  21723446.912   -19511464.76949 -15173682.25547  21723446.351    21723448.979
 03  4 13  0 26  0.0000000  0  9G31G 3G21G17G 9G23G15G14G18
  22423605.604   -11672767.83749  -9067775.40046  22423605.051    22423609.108
  21829074.358   -17268985.17349 -13431571.05347  21829073.947    21829078.160
  22888683.377   -16049928.67649 -12216730.84146  22888682.664    22888686.543
  23166897.398   -13767620.30449 -10706592.50645  23166896.711    23166903.037
  23494314.443    -7894423.09849  -5755749.41845  23494314.204    23494319.373
  22201896.862   -15454252.56049 -12016173.40647  22201896.207    22201900.227
  20703387.883   -26584020.63149 -20694235.47747  20703387.083    20703391.032
  20519743.132   -24275281.81349 -18898205.71048  20519742.578    20519745.119
  21733936.948   -19456339.35749 -15130727.40647  21733936.369    21733939.007
 03  4 13  0 26 30.0000000  0  9G31G 3G21G17G 9G23G15G14G18
  22419599.798   -11693818.22549  -9084178.29746  22419599.304    22419603.303
  21834519.491   -17240370.73749 -13409274.11247  21834519.087    21834523.334
  22904957.671   -15964407.00649 -12150090.65246  22904956.948    22904960.818
  23183213.720   -13681878.11649 -10639780.51345  23183213.026    23183219.310
  23496499.821    -7882939.33449  -5746800.99845  23496499.492    23496504.853
  22211492.390   -15403827.78149 -11976881.39247  22211491.744    22211495.739
  20711950.469   -26539023.93549 -20659173.14547  20711949.666    20711953.622
  20511795.863   -24317045.16749 -18930748.55548  20511795.300    20511797.798
  21744452.039   -19401082.13549 -15087669.85147  21744451.489    21744454.158
 03  4 13  0 27  0.0000000  0  9G31G 3G21G17G 9G23G15G14G18
  22415703.193   -11714294.98249  -9100134.20646  22415702.692    22415706.653
  21840063.474   -17211237.02449 -13386572.54547  21840063.089    21840067.356
  22921283.017   -15878616.44549 -12083240.94846  22921282.376    22921286.322
  23199581.557   -13595864.78449 -10572757.24045  23199580.924    23199587.246
  23498797.162    -7870865.94849  -5737393.15245  23498796.981    23498802.190
  22221100.155   -15353338.79049 -11937539.33647  22221099.473    22221103.463
  20720591.809   -26493613.40849 -20623788.35047  20720591.013    20720594.988
  20503948.435   -24358283.48049 -18962882.27948  20503947.872    20503950.373
  21754991.544   -19345696.78349 -15044512.45347  21754990.983    21754993.709
 03  4 13  0 27 30.0000000  0  9G31G 3G21G17G 9G23G15G14G18
  22411915.986   -11734197.06849  -9115642.31146  22411915.444    22411919.461
  21845706.150   -17181584.84249 -13363466.97447  21845705.742    21845709.981
  22937659.676   -15792557.06949 -12016181.77046  22937658.999    22937662.964
  23216000.943   -13509580.53849 -10505522.88445  23216000.298    23216006.649
  23501207.261    -7858202.26849  -5727525.31545  23501206.854    23501212.088
  22230720.119   -15302785.53649 -11898147.21347  22230719.473    22230723.477
  20729312.048   -26447788.56249 -20588080.70647  20729311.246    20729315.229
  20496201.177   -24398995.52049 -18994605.92148  20496200.646    20496203.108
  21765555.351   -19290183.38549 -15001255.28847  21765554.820    21765557.554
 03  4 13  0 28  0.0000000  0  9G31G 3G21G17G 9G23G15G14G18
  22408238.139   -11753524.23149  -9130702.43046  22408237.590    22408241.619
  21851447.088   -17151416.11749 -13339958.89947  21851446.668    21851450.908
  22954087.365   -15706230.22749 -11948914.18046  22954086.556    22954090.505
  23232471.756   -13423025.86449 -10438077.78045  23232471.145    23232477.607
  23503729.294    -7844948.12449  -5717197.42345  23503728.996    23503734.279
  22240352.242   -15252168.50949 -11858705.39147  22240351.605    22240355.617
  20738110.998   -26401549.64349 -20552050.40447  20738110.215    20738114.221
  20488554.112   -24439180.95249 -19025919.21848  20488553.550    20488556.027
  21776143.377   -19234542.97149 -14957899.14547  21776142.850    21776145.541
 03  4 13  0 28 30.0000000  0  9G31G 3G21G17G 9G23G15G14G18
  22404670.086   -11772274.23449  -9145312.81746  22404669.570    22404673.581
  21857286.372   -17120730.38749 -13316047.96447  21857285.976    21857290.243
  22970565.892   -15619634.71249 -11881437.23646  22970565.189    22970569.171
  23248994.354   -13336199.90849 -10370421.30845  23248993.667    23249000.078
  23506364.521    -7831101.52849  -5706407.80845  23506364.043    23506369.062
  22249996.792   -15201486.23949 -11819212.73247  22249996.139    22250000.196
  20746989.171   -26354894.80149 -20515696.01347  20746988.359    20746992.366
  20481007.798   -24478836.87549 -19056819.91348  20481007.274    20481009.737
  21786755.866   -19178774.01249 -14914442.83047  21786755.353    21786758.024
 03  4 13  0 29  0.0000000  0  9G31G 3G21G17G 9G23G15G14G18
  22401211.336   -11790450.12049  -9159475.83846  22401210.795    22401214.787
  21863223.161   -17089532.50249 -13291737.95047  21863222.766    21863226.991
  22987094.739   -15532775.02149 -11813754.44746  22987094.096    22987098.092
  23265567.608   -13249107.40349 -10302557.12045  23265566.863    23265573.357
  23509111.174    -7816665.97149  -5695159.33345  23509110.771    23509116.116
  22259652.996   -15150742.52049 -11779672.20047  22259652.353    22259656.414
  20755945.829   -26307827.42049 -20479020.16247  20755945.028    20755948.995
  20473561.692   -24517966.41049 -19087310.43148  20473561.139    20473563.574
  21797392.112   -19122880.55049 -14870889.51347  21797391.570    21797394.258
 03  4 13  0 29 30.0000000  0  9G31G 3G21G17G 9G23G15G14G18
  22397862.467   -11808048.53749  -9173188.88246  22397861.913    22397865.935
  21869257.673   -17057820.91149 -13267027.64047  21869257.298    21869261.535
  23003674.273   -15445649.03049 -11745864.15046  23003673.668    23003677.657
  23282192.025   -13161745.82249 -10234483.26945  23282191.334    23282197.783
  23511971.188    -7801637.83849  -5683449.08445  23511970.652    23511975.933
  22269321.443   -15099934.59949 -11740081.64147  22269320.810    22269324.893
  20764981.537   -26260344.59749 -20442020.58247  20764980.723    20764984.699
  20466216.446   -24556565.77449 -19117387.83248  20466215.894    20466218.336
  21808052.455   -19066860.36249 -14827237.44747  21808051.920    21808054.598
 03  4 13  0 30  0.0000000  0  9G31G 3G21G17G 9G23G15G14G18
  22394623.419   -11825069.66949  -9186452.10146  22394622.885    22394626.908
  21875389.566   -17025597.76149 -13241918.71247  21875389.173    21875393.397
  23020304.279   -15358258.19449 -11677767.47746  23020303.605    23020307.637
  23298867.361   -13074116.66049 -10166200.92345  23298866.660    23298873.138
  23514943.335    -7786017.87449  -5671277.68445  23514942.883    23514948.130
  22279001.893   -15049063.57649 -11700441.90947  22279001.248    22279005.322
  20774096.165   -26212447.04349 -20404697.83747  20774095.363    20774099.336
  20458972.086   -24594635.03249 -19147052.16348  20458971.549    20458974.004
  21818736.663   -19010714.27649 -14783487.27847  21818736.143    21818738.796
 03  4 13  0 30 30.0000000  0  9G31G 3G21G17G 9G23G15G14G18
  22391494.001   -11841514.95849  -9199266.60546  22391493.462    22391497.505
  21881618.187   -16992866.47949 -13216413.84147  21881617.781    21881621.994
  23036984.167   -15270605.34749 -11609466.64546  23036983.498    23036987.483
  23315593.128   -12986222.59749 -10097712.15645  23315592.421    23315598.955
  23518028.157    -7769807.85349  -5658646.47345  23518027.688    23518032.772
  22288693.976   -14998131.43449 -11660754.54847  22288693.359    22288697.386
  20783289.363   -26164136.47849 -20367053.26547  20783288.559    20783292.548
  20451828.357   -24632175.38849 -19176304.36248  20451827.834    20451830.260
  21829444.454   -18954444.77249 -14739640.93847  21829443.920    21829446.564
 03  4 13  0 31  0.0000000  0  9G31G 3G21G17G 9G23G15G14G18
  22388474.355   -11857383.08449  -9211631.37446  22388473.842    22388477.886
  21887943.331   -16959627.64449 -13190513.46847  21887942.932    21887947.137
  23053713.948   -15182690.20549 -11540961.42746  23053713.256    23053717.339
  23332369.376   -12898063.36249 -10029016.76145  23332368.697    23332375.255
  23521225.273    -7753006.38649  -5645554.42345  23521224.865    23521230.009
  22298397.848   -14947137.46949 -11621019.01647  22298397.191    22298401.229
  20792561.347   -26115411.98349 -20329086.15347  20792560.540    20792564.531
  20444785.668   -24669185.00749 -19205143.00148  20444785.130    20444787.539
  21840175.798   -18898051.13149 -14695697.86747  21840175.271    21840177.987
 03  4 13  0 31 30.0000000  0  9G31G 3G21G17G 9G23G15G14G18
  22385564.578   -11872673.99949  -9223546.37546  22385564.077    22385568.112
  21894364.739   -16925882.95649 -13164218.92347  21894364.357    21894368.557
  23070493.382   -15094514.02349 -11472252.80346  23070492.680    23070496.836
  23349195.957   -12809639.90649  -9960115.48145  23349195.228    23349201.816
  23524534.988    -7735613.66549  -5632001.64845  23524534.524    23524539.755
  22308113.249   -14896082.40049 -11581235.87747  22308112.615    22308116.677
  20801912.008   -26066273.90649 -20290796.76247  20801911.206    20801915.225
  20437843.972   -24705663.53949 -19233567.80848  20437843.435    20437845.865
  21850930.617   -18841534.36649 -14651658.86047  21850930.086    21850932.802
 03  4 13  0 32  0.0000000  0  9G31G 3G21G17G 9G23G15G14G18
  22382764.700   -11887387.54249  -9235011.47746  22382764.185    22382768.213
  21900882.157   -16891633.99549 -13137531.43947  21900881.755    21900885.960
  23087322.231   -15006077.83449 -11403341.59146  23087321.600    23087325.739
  23366072.558   -12720953.16449  -9891009.05345  23366071.835    23366078.371
  23527957.060    -7717629.70549  -5617988.16545  23527956.715    23527962.069
  22317840.379   -14844966.35949 -11541405.22447  22317839.741    22317843.758
  20811341.389   -26016722.29449 -20252185.13547  20811340.579    20811344.604
  20431003.446   -24741610.66149 -19261578.52748  20431002.931    20431005.341
  21861708.798   -18784895.08149 -14607524.38347  21861708.244    21861710.945
 03  4 13  0 32 30.0000000  0  9G31G 3G21G17G 9G23G15G14G18
  22380074.915   -11901522.31149  -9246025.57846  22380074.397    22380078.472
  21907495.352   -16856881.35849 -13110451.48547  21907494.957    21907499.161
  23104200.681   -14917381.27149 -11334227.47546  23104200.045    23104204.241
  23382999.200   -12632003.30749  -9821697.59945  23382998.497    23383005.098
  23531492.003    -7699053.41049  -5603513.13245  23531491.637    23531496.956
  22327579.162   -14793788.64849 -11501526.52547  22327578.529    22327582.578
  20820849.644   -25966756.08549 -20213250.45147  20820848.856    20820852.897
  20424264.361   -24777024.71449 -19289173.87048  20424263.826    20424266.230
  21872510.307   -18728132.69049 -14563293.97847  21872509.777    21872512.504
 03  4 13  0 33  0.0000000  0  9G31G 3G21G17G 9G23G15G14G18
  22377494.823   -11915080.54849  -9256590.43646  22377494.313    22377498.408
  21914203.666   -16821628.94249 -13082982.09047  21914203.263    21914207.484
  23121128.011   -14828427.82749 -11264913.20146  23121127.386    23121131.580
  23399975.371   -12542793.12249  -9752183.28345  23399974.705    23399981.272
  23535139.168    -7679887.32449  -5588578.50745  23535138.842    23535144.043
  22337329.157   -14742551.92149 -11461601.83247  22337328.549    22337332.598
  20830436.359   -25916377.75649 -20173994.63047  20830435.560    20830439.606
  20417626.383   -24811907.59249 -19316355.30948  20417625.842    20417628.232
  21883334.752   -18671250.06349 -14518969.89247  21883334.213    21883336.934
 03  4 13  0 33 30.0000000  0  9G31G 3G21G17G 9G23G15G14G18
  22375024.953   -11928060.03049  -9266704.33646  22375024.423    22375028.478
  21921007.143   -16785876.69049 -13055123.21747  21921006.733    21921010.980
  23138104.408   -14739216.44649 -11195397.92946  23138103.814    23138108.061
  23417001.334   -12453321.37149  -9682465.15045  23417000.728    23417007.336
  23538898.937    -7660129.41749  -5573182.73445  23538898.639    23538903.885
  22347090.802   -14691254.45949 -11421629.82547  22347090.161    22347094.255
  20840101.780   -25865585.59049 -20134416.34247  20840100.978    20840105.053
  20411089.936   -24846256.75849 -19343120.87348  20411089.387    20411091.788
  21894182.334   -18614245.62849 -14474550.88647  21894181.794    21894184.571
 03  4 13  0 34  0.0000000  0  9G31G 3G21G17G 9G23G15G14G18
  22372664.870   -11940462.52549  -9276368.61746  22372664.327    22372668.420
  21927905.033   -16749628.05449 -13026877.54947  21927904.627    21927908.862
  23155129.414   -14649750.04849 -11125683.95846  23155128.807    23155133.019
  23434076.513   -12363591.28249  -9612545.71545  23434075.877    23434082.578
  23542770.851    -7639781.70349  -5557327.36345  23542770.579    23542775.878
  22356863.480   -14639898.50749 -11381612.22147  22356862.876    22356867.000
  20849845.601   -25814381.61049 -20094517.15447  20849844.803    20849848.884
  20404654.746   -24880073.79649 -19369471.79248  20404654.212    20404656.597
  21905052.678   -18557121.69049 -14430038.75747  21905052.148    21905054.912
 03  4 13  0 34 30.0000000  0  9G31G 3G21G17G 9G23G15G14G18
  22370414.763   -11952286.75749  -9285582.31046  22370414.225    22370418.390
  21934897.297   -16712883.69049 -12998245.60247  21934896.867    21934901.121
  23172202.950   -14560028.54049 -11055771.19246  23172202.367    23172206.444
  23451200.889   -12273602.66449  -9542424.84445  23451200.172    23451206.945
  23546755.397    -7618843.06949  -5541011.53445  23546755.101    23546760.481
  22366647.564   -14588483.25049 -11341548.42347  22366646.952    22366650.987
  20859667.990   -25762764.71849 -20054296.22747  20859667.193    20859671.264
  20398321.141   -24913356.97549 -19395406.71648  20398320.607    20398322.967
  21915945.956   -18499877.54049 -14385432.95547  21915945.397    21915948.136
 03  4 13  0 35  0.0000000  0  9G31G 3G21G17G 9G23G15G14G18
  22368274.501   -11963533.79849  -9294346.25446  22368273.996    22368278.106
  21941983.386   -16675646.12849 -12969229.34447  21941982.951    21941987.223
  23189324.673   -14470053.84149 -10985661.13946  23189324.055    23189328.222
  23468374.077   -12183357.24349  -9472103.85145  23468373.473    23468380.228
  23550851.987    -7597315.03549  -5524236.43745  23550851.645    23550857.116
  22376442.590   -14537009.86649 -11301439.31747  22376441.982    22376446.115
  20869568.625   -25710736.52349 -20013754.80347  20869567.839    20869571.918
  20392089.001   -24946107.11549 -19420926.28548  20392088.481    20392090.808
  21926861.711   -18442514.97349 -14340734.88247  21926861.140    21926863.906
 03  4 13  0 35 30.0000000  0  9G31G 3G21G17G 9G23G15G14G18
  22366244.580   -11974201.13949  -9302658.47946  22366244.071    22366248.173
  21949163.385   -16637914.96649 -12939828.46047  21949162.971    21949167.269
  23206494.785   -14379824.68849 -10915352.80246  23206494.168    23206498.360
  23485596.355   -12092853.84849  -9401581.86545  23485595.740    23485602.652
  23555061.331    -7575195.13849  -5507000.13845  23555061.030    23555066.360
  22386249.139   -14485476.28249 -11261283.32347  22386248.542    22386252.650
  20879548.002   -25658294.56749 -19972890.97047  20879547.210    20879551.285
  20385958.853   -24978321.49249 -19446028.37948  20385958.285    20385960.607
  21937800.342   -18385032.09249 -14295943.06047  21937799.797    21937802.591
 03  4 13  0 36  0.0000000  0  9G31G 3G21G17G 9G23G15G14G18
  22364324.412   -11984292.14949  -9310521.60846  22364323.861    22364327.981
  21956436.337   -16599695.33949 -12910046.95647  21956435.916    21956440.286
  23223712.477   -14289345.59549 -10844849.71346  23223711.908    23223716.103
  23502866.922   -12002096.62549  -9330862.07645  23502866.344    23502873.248
  23559382.532    -7552486.75949  -5489305.29345  23559382.259    23559387.682
  22396066.506   -14433886.09549 -11221083.20547  22396065.876    22396069.959
  20889605.446   -25605442.46749 -19931707.54547  20889604.658    20889608.743
  20379929.975   -25010003.12649 -19470715.34748  20379929.429    20379931.761
  21948761.012   -18327433.07749 -14251060.74747  21948760.479    21948763.293
 03  4 13  0 36 30.0000000  0  9G31G 3G21G17G 9G23G15G14G18
  22362514.536   -11993802.93549  -9317932.61846  22362514.024    22362518.106
  21963802.613   -16560985.29349 -12879883.31247  21963802.216    21963806.523
  23240978.315   -14198613.72849 -10774149.65646  23240977.715    23240981.856
  23520186.366   -11911082.94849  -9259942.45845  23520185.734    23520192.667
  23563816.449    -7529186.30649  -5471149.08345  23563816.250    23563821.519
  22405895.281   -14382235.73249 -11180836.19847  22405894.682    22405898.789
  20899741.636   -25552176.69649 -19890201.77647  20899740.831    20899744.922
  20374003.385   -25041147.57549 -19494983.72848  20374002.851    20374005.168
  21959744.608   -18269714.11849 -14206084.96347  21959744.085    21959746.862
 03  4 13  0 37  0.0000000  0  9G31G 3G21G17G 9G23G15G14G18
  22360814.034   -12002738.90549  -9324895.70946  22360813.541    22360817.642
  21971260.931   -16521791.84349 -12849342.98847  21971260.533    21971264.789
  23258291.079   -14107635.30849 -10703257.48346  23258290.430    23258294.628
  23537553.468   -11819818.84849  -9188827.69145  23537552.822    23537559.792
  23568361.896    -7505299.64349  -5452536.08345  23568361.663    23568366.851
  22415734.458   -14330530.88349 -11140546.73747  22415733.840    22415737.963
  20909955.449   -25498502.81149 -19848378.00047  20909954.660    20909958.751
  20368178.016   -25071759.95349 -19518837.50648  20368177.464    20368179.788
  21970749.958   -18211881.07849 -14161020.28047  21970749.397    21970752.196
 03  4 13  0 37 30.0000000  0  9G31G 3G21G17G 9G23G15G14G18
  22359223.813   -12011095.79349  -9331407.58146  22359223.322    22359227.435
  21978811.657   -16482112.48649 -12818424.03447  21978811.236    21978815.550
  23275651.247   -14016407.13049 -10632170.68746  23275650.663    23275654.825
  23554968.887   -11728301.28149  -9117515.44245  23554968.125    23554975.160
  23573019.689    -7480822.71349  -5433463.15045  23573019.438    23573024.761
  22425584.785   -14278767.29049 -11100211.49746  22425584.141    22425588.290
  20920247.679   -25444416.75249 -19806233.05447  20920246.914    20920251.008
  20362454.743   -25101835.88149 -19542273.27748  20362454.216    20362456.519
  21981777.604   -18153930.27949 -14115863.84747  21981777.052    21981779.879
 03  4 13  0 38  0.0000000  0  9G31G 3G21G17G 9G23G15G14G18
  22357743.384   -12018875.57549  -9337469.75446  22357742.867    22357746.983
  21986454.143   -16441951.07049 -12787129.45247  21986453.715    21986458.040
  23293058.452   -13924932.20449 -10560891.63545  23293057.771    23293061.982
  23572431.766   -11636533.37149  -9046008.10545  23572431.066    23572438.045
  23577789.521    -7455757.82449  -5413932.05245  23577789.146    23577794.355
  22435445.780   -14226947.24549 -11059832.26746  22435445.164    22435449.310
  20930617.938   -25389920.78449 -19763768.69547  20930617.165    20930621.268
  20356833.270   -25131377.01949 -19565292.31948  20356832.728    20356834.994
  21992827.206   -18095864.05349 -14070617.47047  21992826.673    21992829.513
 03  4 13  0 38 30.0000000  0  9G31G 3G21G17G 9G23G15G14G18
  22356372.905   -12026077.56149  -9343081.70846  22356372.376    22356376.480
  21994188.120   -16401308.87749 -12755460.24447  21994187.701    21994191.991
  23310512.360   -13833210.83649 -10489420.53145  23310511.778    23310516.125
  23589942.366   -11544514.95249  -8974305.58745  23589941.673    23589948.783
  23582671.264    -7430104.35749  -5393942.32245  23582670.887    23582675.979
  22445317.744   -14175070.24749 -11019408.66246  22445317.100    22445321.226
  20941066.330   -25335014.39049 -19720984.52647  20941065.532    20941069.667
  20351313.773   -25160382.14249 -19587893.69148  20351313.219    20351315.481
  22003898.868   -18037682.12849 -14025280.93647  22003898.348    22003901.232
 03  4 13  0 39  0.0000000  0  9G31G 3G21G17G 9G23G15G14G18
  22355112.255   -12032702.21849  -9348243.78746  22355111.748    22355115.865
  22002013.195   -16360187.79249 -12723417.86947  22002012.764    22002017.110
  23328013.048   -13741244.50149 -10417758.55045  23328012.393    23328016.763
  23607500.406   -11452247.59849  -8902409.07545  23607499.698    23607506.874
  23587664.727    -7403863.19449  -5373494.65245  23587664.360    23587669.544
  22455200.319   -14123136.75149 -10978941.03446  22455199.659    22455203.850
  20951592.689   -25279698.00449 -19677880.88547  20951591.925    20951596.061
  20345896.167   -25188851.35249 -19610077.46448  20345895.650    20345897.906
  22014992.442   -17979385.20849 -13979854.78947  22014991.928    22014994.816
 03  4 13  0 39 30.0000000  0  9G31G 3G21G17G 9G23G15G14G18
  22353961.652   -12038748.89049  -9352955.49246  22353961.125    22353965.274
  22009929.219   -16318588.98949 -12691003.25147  22009928.813    22009933.158
  23345560.383   -13649033.57849 -10345905.99845  23345559.665    23345564.028
  23625105.640   -11359731.68649  -8830318.88745  23625104.880    23625112.036
  23592770.125    -7377033.56549  -5352588.44745  23592769.806    23592774.913
  22465093.783   -14071146.20749 -10938428.94946  22465093.150    22465097.321
  20962197.137   -25223971.29649 -19634457.51547  20962196.383    20962200.511
  20340580.790   -25216783.75849 -19631842.95848  20340580.279    20340582.543
  22026107.958   -17920972.81049 -13934338.67447  22026107.433    22026110.318
 03  4 13  0 40  0.0000000  0  9G31G 3G21G17G 9G23G15G14G18
  22352920.529   -12044219.87149  -9357218.60546  22352920.025    22352924.148
  22017935.342   -16276516.68049 -12658219.66247  22017934.941    22017939.304
  23363153.502   -13556581.16249 -10273865.25045  23363152.796    23363157.219
  23642757.681   -11266969.89849  -8758037.10145  23642756.980    23642764.222
  23597987.019    -7349618.32849  -5331225.91845  23597986.754    23597991.832
  22474997.702   -14019100.90349 -10897874.18946  22474997.054    22475001.230
  20972879.187   -25167836.95449 -19590716.50447  20972878.408    20972882.558
  20335367.214   -25244181.30049 -19653191.66548  20335366.679    20335368.965
  22037244.981   -17862447.69349 -13888734.71547  22037244.463    22037247.332
 03  4 13  0 40 30.0000000  0  9G31G 3G21G17G 9G23G15G14G18
  22351989.350   -12049113.53749  -9361031.87246  22351988.820    22351992.889
  22026031.626   -16233970.61549 -12625066.91147  22026031.206    22026035.582
  23380792.766   -13463886.52049 -10201635.76845  23380792.095    23380796.512
  23660456.627   -11173961.49649  -8685563.15845  23660456.067    23660463.283
  23603315.753    -7321616.13649  -5309406.02145  23603315.365    23603320.537
  22484912.230   -13966999.30449 -10857275.56546  22484911.649    22484915.801
  20983639.102   -25111293.47549 -19546656.69647  20983638.339    20983642.487
  20330255.771   -25271042.07449 -19674122.11748  20330255.247    20330257.506
  22048403.640   -17803808.64149 -13843041.97447  22048403.098    22048406.018
 03  4 13  0 41  0.0000000  0  9G31G 3G21G17G 9G23G15G14G18
  22351167.818   -12053431.08549  -9364396.19246  22351167.249    22351171.346
  22034217.364   -16190954.08849 -12591547.57047  22034216.979    22034221.341
  23398477.751   -13370951.82649 -10129219.23445  23398477.081    23398481.474
  23678202.171   -11080708.92849  -8612898.94745  23678201.542    23678208.760
  23608755.756    -7293028.41749  -5287129.87345  23608755.438    23608760.564
  22494837.353   -13914842.55449 -10816633.96746  22494836.768    22494840.965
  20994476.625   -25054341.97849 -19502278.95047  20994475.867    20994480.007
  20325246.321   -25297366.84549 -19694634.89948  20325245.775    20325248.025
  22059583.699   -17745056.85949 -13797261.39047  22059583.168    22059586.115
 03  4 13  0 41 30.0000000  0  9G31G 3G21G17G 9G23G15G14G18
  22350455.879   -12057172.26849  -9367311.40746  22350455.342    22350459.423
  22042492.452   -16147468.54749 -12557662.76547  22042492.070    22042496.356
  23416208.282   -13277777.50649 -10056615.98045  23416207.646    23416212.031
  23695994.258   -10987212.13349  -8540044.45145  23695993.515    23696000.746
  23614307.321    -7263854.92149  -5264397.26945  23614306.995    23614312.144
  22504773.032   -13862630.31249 -10775949.13746  22504772.440    22504776.633
  21005391.841   -24996982.27249 -19457583.10747  21005391.080    21005395.217
  20320339.003   -25323154.87449 -19714729.44648  20320338.462    20320340.700
  22070785.329   -17686192.08949 -13751392.77547  22070784.784    22070787.738
 03  4 13  0 42  0.0000000  0  9G31G 3G21G17G 9G23G15G14G18
  22349853.245   -12060339.13449  -9369779.10546  22349852.689    22349856.757
  22050856.017   -16103517.78649 -12523415.44447  22050855.600    22050859.933
  23433983.955   -13184366.64549  -9983828.41545  23433983.280    23433987.726
  23713832.150   -10893474.03849  -8467001.91445  23713831.426    23713838.616
  23619969.775    -7234098.35449  -5241210.32745  23619969.415    23619974.582
  22514718.919   -13810364.64649 -10735222.67646  22514718.315    22514722.496
  21016384.288   -24939216.71649 -19412571.02147  21016383.510    21016387.695
  20315533.484   -25348407.96149 -19734407.15648  20315532.959    20315535.182
  22082007.969   -17627216.78749 -13705438.03147  22082007.444    22082010.432
 03  4 13  0 42 30.0000000  0  9G31G 3G21G17G 9G23G15G14G18
  22349360.202   -12062929.94449  -9371797.92246  22349359.680    22349363.699
  22059308.133   -16059101.62949 -12488805.47647  22059307.719    22059312.104
  23451804.710   -13090718.33949  -9910855.82245  23451804.014    23451808.520
  23731716.064   -10799493.82649  -8393770.73045  23731715.386    23731722.612
  23625743.554    -7203757.07749  -5217567.77045  23625743.159    23625748.415
  22524675.319   -13758043.42049 -10694452.91346  22524674.752    22524678.900
  21027454.307   -24881043.59349 -19367241.34647  21027453.527    21027457.698
  20310830.154   -25373124.05549 -19753666.42948  20310829.615    20310831.846
  22093252.003   -17568129.33749 -13659395.89447  22093251.470    22093254.419
 03  4 13  0 43  0.0000000  0  9G31G 3G21G17G 9G23G15G14G18
  22348976.583   -12064945.97449  -9373368.85846  22348976.056    22348980.110
  22067848.253   -16014223.08349 -12453835.21547  22067847.857    22067852.256
  23469670.160   -12996834.58149  -9837699.75445  23469669.556    23469674.167
  23749645.525   -10705274.10449  -8320352.90145  23749644.793    23749652.212
  23631628.123    -7172832.63849  -5193470.81945  23631627.885    23631632.968
  22534642.084   -13705667.89349 -10653640.83946  22534641.492    22534645.680
  21038601.591   -24822464.25049 -19321595.14247  21038600.830    21038605.013
  20306228.835   -25397304.11249 -19772508.01448  20306228.281    20306230.515
  22104517.047   -17508931.17049 -13613267.48547  22104516.522    22104519.510
 03  4 13  0 43 30.0000000  0  9G31G 3G21G17G 9G23G15G14G18
  22348702.519   -12066386.21749  -9374491.13346  22348701.996    22348706.079
  22076476.197   -15968883.01549 -12418505.32147  22076475.784    22076480.236
  23487580.443   -12902715.32649  -9764360.19545  23487579.897    23487584.557
  23767620.668   -10610814.43649  -8246748.10645  23767619.938    23767627.381
  23637623.904    -7141324.40749  -5168918.94545  23637623.843    23637628.772
  22544619.372   -13653236.87749 -10612785.52746  22544618.765    22544623.041
  21049826.364   -24763477.81549 -19275631.73247  21049825.569    21049829.803
  20301729.750   -25420946.67349 -19790930.77348  20301729.215    20301731.453
  22115803.416   -17449621.08649 -13567051.86847  22115802.918    22115805.872
 03  4 13  0 44  0.0000000  0  9G31G 3G21G17G 9G23G15G14G18
  22348537.463   -12067253.45849  -9375166.90646  22348536.970    22348541.070
  22085191.073   -15923085.87349 -12382819.26747  22085190.691    22085195.158
  23505534.981   -12808364.02849  -9690839.81745  23505534.446    23505539.121
  23785640.956   -10516118.04849  -8172958.85445  23785640.184    23785647.608
  23643730.213    -7109235.20549  -5143914.38245  23643730.176    23643735.060
  22554606.791   -13600752.75649 -10571888.84246  22554606.171    22554610.433
  21061128.108   -24704086.98849 -19229353.20247  21061127.305    21061131.555
  20297332.562   -25444054.08149 -19808936.52248  20297332.010    20297334.237
  22127110.530   -17390201.94049 -13520751.26247  22127110.001    22127112.928
 03  4 13  0 44 30.0000000  0  9G31G 3G21G17G 9G23G15G14G18
  22348481.738   -12067546.25749  -9375395.07046  22348481.218    22348485.343
  22093992.973   -15876831.76849 -12346777.14347  22093992.597    22093997.066
  23523533.898   -12713779.94949  -9617138.06645  23523533.286    23523537.955
  23803706.231   -10421184.43849  -8098984.76145  23803705.527    23803713.078
  23649947.532    -7076563.85749  -5118456.18045  23649947.332    23649952.176
  22564604.662   -13548213.93049 -10530949.53346  22564604.010    22564608.270
  21072507.036   -24644290.43249 -19182758.52347  21072506.238    21072510.496
  20293037.530   -25466624.56749 -19826523.90048  20293036.983    20293039.190
  22138438.636   -17330672.15149 -13474364.44847  22138438.138    22138441.084
 03  4 13  0 45  0.0000000  0  9G31G 3G21G17G 9G23G15G14G18
  22348535.059   -12067266.27249  -9375176.90446  22348534.492    22348538.692
  22102881.182   -15830124.09249 -12310381.57747  22102880.804    22102885.298
  23541576.561   -12618965.73649  -9543256.97945  23541575.866    23541580.598
  23821816.128   -10326016.11849  -8024827.78545  23821815.421    23821823.019
  23656275.202    -7043312.27749  -5092545.85945  23656274.892    23656279.838
  22574612.629   -13495621.92749 -10489968.77446  22574611.971    22574616.215
  21083962.834   -24584089.94749 -19135849.09147  21083962.027    21083966.284
  20288844.423   -25488659.43749 -19843693.90748  20288843.876    20288846.063
  22149787.541   -17271033.54849 -13427892.83646  22149787.012    22149789.966
 03  4 13  0 45 30.0000000  0  9G31G 3G21G17G 9G23G15G14G18
  22348697.152   -12066414.26949  -9374513.01246  22348696.589    22348700.791
  22111855.227   -15782965.18249 -12273634.40547  22111854.831    22111859.364
  23559662.721   -12523922.77249  -9469197.63245  23559662.016    23559666.793
  23839970.479   -10230614.13949  -7950488.72445  23839969.892    23839977.556
  23662713.040    -7009481.53649  -5066184.25445  23662712.755    23662717.634
  22584630.707   -13442977.08649 -10448946.84946  22584630.046    22584634.244
  21095495.369   -24523486.27849 -19088625.49147  21095494.533    21095498.824
  20284753.201   -25510158.90649 -19860446.72448  20284752.668    20284754.822
  22161156.967   -17211286.92749 -13381337.06246  22161156.440    22161159.378
 03  4 13  0 46  0.0000000  0  9G31G 3G21G17G 9G23G15G14G18
  22348968.293   -12064989.33349  -9373402.67346  22348967.722    22348971.952
  22120914.989   -15735355.82449 -12236536.23347  22120914.619    22120919.153
  23577792.471   -12428650.75149  -9394959.82745  23577791.784    23577796.611
  23858169.403   -10134978.33749  -7875967.47245  23858168.913    23858176.586
  23669261.216    -6975070.83049  -5039370.72045  23669260.831    23669265.725
  22594658.926   -13390278.12449 -10407882.75546  22594658.303    22594662.496
  21107104.728   -24462478.61349 -19041087.08947  21107103.936    21107108.234
  20280764.116   -25531121.70849 -19876781.35748  20280763.570    20280765.748
  22172547.208   -17151431.27949 -13334696.32946  22172546.665    22172549.552
 03  4 13  0 46 30.0000000  0  9G31G 3G21G17G 9G23G15G14G18
  22349348.291   -12062992.41449  -9371846.63746  22349347.758    22349351.974
  22130060.011   -15687298.50749 -12199089.00347  22130059.628    22130064.184
  23595965.383   -12333151.53849  -9320544.97445  23595964.773    23595969.467
  23876412.678   -10039110.32349  -7801265.27145  23876412.034    23876420.014
  23675919.432    -6940081.52749  -5012106.32845  23675919.162    23675924.083
  22604697.412   -13337525.52749 -10366776.85446  22604696.794    22604701.004
  21118790.889   -24401067.57549 -18993234.37447  21118790.086    21118794.383
  20276876.985   -25551548.55749 -19892698.36248  20276876.461    20276878.604
  22183958.054   -17091467.10449 -13287971.01446  22183957.496    22183960.399
 03  4 13  0 47  0.0000000  0  9G31G 3G21G17G 9G23G15G14G18
  22349836.689   -12060425.88649  -9369846.74946  22349836.151    22349840.375
  22139289.417   -15638797.53549 -12161296.06547  22139289.039    22139293.660
  23614181.177   -12237427.97649  -9245955.30945  23614180.472    23614185.315
  23894699.637    -9943012.93949  -7726384.35045  23894698.913    23894706.904
  23682687.324    -6904516.52349  -4984393.33245  23682686.987    23682691.916
  22614745.761   -13284721.27349 -10325630.70546  22614745.118    22614749.388
  21130553.330   -24339255.76649 -18945069.36947  21130552.533    21130556.819
  20273091.536   -25571441.18049 -19908199.08548  20273090.991    20273093.126
  22195389.083   -17031396.68349 -13241162.92446  22195388.562    22195391.427
 03  4 13  0 47 30.0000000  0  9G31G 3G21G17G 9G23G15G14G18
  22350433.807   -12057288.08349  -9367401.72846  22350433.287    22350437.448
  22148603.346   -15589852.68449 -12123157.25947  22148602.971    22148607.594
  23632439.684   -12141479.04749  -9171190.04245  23632439.052    23632443.975
  23913030.318    -9846685.37549  -7651324.06245  23913029.704    23913037.564
  23689564.912    -6868374.04149  -4956230.36245  23689564.566    23689569.529
  22624804.258   -13231863.23649 -10284442.66146  22624803.684    22624807.946
  21142392.368   -24277041.46549 -18896590.73347  21142391.557    21142395.859
  20269408.121   -25590797.75449 -19923282.11648  20269407.581    20269409.706
  22206840.709   -16971218.16349 -13194270.59946  22206840.174    22206843.033
 03  4 13  0 48  0.0000000  0  9G31G 3G21G17G 9G23G15G14G18
  22351139.445   -12053580.32549  -9364512.58846  22351138.889    22351143.048
  22158001.202   -15540466.78749 -12084674.77547  22158000.825    22158005.440
  23650740.606   -12045306.99649  -9096250.87845  23650740.154    23650745.053
  23931404.314    -9750129.85249  -7576086.14545  23931403.724    23931411.672
  23696552.044    -6831655.67749  -4927618.65045  23696551.719    23696556.862
  22634872.969   -13178952.34249 -10243213.41946  22634872.364    22634876.581
  21154307.785   -24214425.98449 -18847799.49247  21154306.958    21154311.250
  20265826.531   -25609618.96549 -19937947.97648  20265826.001    20265828.140
  22218312.620   -16910932.94849 -13147295.13546  22218312.102    22218314.950
 03  4 13  0 48 30.0000000  0  9G31G 3G21G17G 9G23G15G14G18
  22351953.199   -12049304.03849  -9361180.43546  22351952.635    22351956.815
  22167482.428   -15490642.92349 -12045851.02547  22167482.071    22167486.673
  23669083.709   -11948913.68549  -9021139.35045  23669083.225    23669088.267
  23949821.460    -9653347.70249  -7500671.64345  23949820.834    23949828.760
  23703648.571    -6794363.12149  -4898559.53845  23703648.256    23703653.454
  22644951.459   -13125989.47949 -10201943.68846  22644950.877    22644955.106
  21166299.194   -24151410.53649 -18798696.58247  21166298.396    21166302.703
  20262346.627   -25627905.84549 -19952197.48348  20262346.110    20262348.220
  22229804.701   -16850541.76949 -13100237.10646  22229804.167    22229807.022
 03  4 13  0 49  0.0000000  0  9G31G 3G21G17G 9G23G15G14G18
  22352875.318   -12044458.21149  -9357404.48946  22352874.817    22352878.988
  22177046.825   -15440381.77949 -12006686.53247  22177046.450    22177051.099
  23687469.038   -11852298.87649  -8945855.22345  23687468.496    23687473.461
  23968281.698    -9556339.36649  -7425080.88745  23968280.964    23968288.875
  23710854.428    -6756495.89249  -4869052.60845  23710854.108    23710859.316
  22655040.123   -13072973.19149 -10160632.31946  22655039.532    22655043.789
  21178366.940   -24087994.31549 -18749281.37547  21178366.152    21178370.471
  20258968.631   -25645657.23749 -19966029.71848  20258968.118    20258970.209
  22241317.166   -16790043.63049 -13053095.72646  22241316.627    22241319.467
 03  4 13  0 49 30.0000000  0  9G31G 3G21G17G 9G23G15G14G18
  22353905.269   -12039045.85449  -9353187.08146  22353904.753    22353908.960
  22186693.616   -15389687.77349 -11967184.74147  22186693.242    22186697.873
  23705895.897   -11755465.82349  -8870401.00445  23705895.261    23705900.341
  23986784.418    -9459107.89749  -7349316.25345  23986783.635    23986791.706
  23718169.061    -6718057.22949  -4839100.42045  23718168.763    23718173.932
  22665138.585   -13019905.72649 -10119281.07046  22665137.971    22665142.240
  21190510.391   -24024180.23749 -18699556.14747  21190509.595    21190513.908
  20255692.108   -25662875.49249 -19979446.51948  20255691.577    20255693.705
  22252849.468   -16729441.05449 -13005872.96146  22252848.913    22252851.783
 03  4 13  0 50  0.0000000  0  9G31G 3G21G17G 9G23G15G14G18
  22355043.185   -12033065.98549  -9348527.46646  22355042.666    22355046.880
  22196422.604   -15338561.73949 -11927346.31347  22196422.217    22196426.835
  23724364.304   -11658414.41149  -8794776.65445  23724363.654    23724368.777
  24005329.647    -9361652.72849  -7273377.31345  24005328.886    24005336.937
  23725592.593    -6679046.25449  -4808702.26545  23725592.344    23725597.549
  22675247.023   -12966785.66749 -10077888.83946  22675246.393    22675250.714
  21202729.769   -23959967.21249 -18649520.05647  21202728.966    21202733.262
  20252517.286   -25679559.12549 -19992446.73548  20252516.764    20252518.880
  22264401.907   -16668732.58449 -12958567.68346  22264401.365    22264404.290
 03  4 13  0 50 30.0000000  0  9G31G 3G21G17G 9G23G15G14G18
  22356288.927   -12026519.71149  -9343426.48846  22356288.394    22356292.607
  22206233.320   -15287006.15349 -11887173.15847  22206232.944    22206237.547
  23742873.873   -11561146.31249  -8718983.47445  23742873.341    23742878.378
  24023917.130    -9263975.26549  -7197265.15645  24023916.339    24023924.406
  23733124.866    -6639464.34449  -4777859.22045  23733124.590    23733129.613
  22685365.381   -12913613.36749 -10036455.90146  22685364.749    22685369.156
  21215024.898   -23895356.08349 -18599173.75547  21215024.055    21215028.373
  20249444.085   -25695708.88049 -20005030.94548  20249443.562    20249445.662
  22275974.306   -16607919.32949 -12911180.75746  22275973.754    22275976.687
 03  4 13  0 51  0.0000000  0  9G31G 3G21G17G 9G23G15G14G18
  22357642.125   -12019408.46449  -9337885.27846  22357641.637    22357645.877
  22216125.280   -15235023.81549 -11846667.47947  22216124.897    22216129.516
  23761424.351   -11463663.35749  -8643022.85845  23761423.739    23761428.813
  24042546.431    -9166078.03149  -7120981.74145  24042545.562    24042553.865
  23740765.200    -6599313.25849  -4746572.66645  23740764.881    23740770.184
  22695493.572   -12860389.69049  -9994982.93746  22695492.927    22695497.283
  21227395.467   -23830348.30149 -18548518.38147  21227394.660    21227398.990
  20246472.266   -25711325.90049 -20017200.03848  20246471.739    20246473.845
  22287566.432   -16547002.16949 -12863712.86346  22287565.899    22287568.853
 03  4 13  0 51 30.0000000  0  9G31G 3G21G17G 9G23G15G14G18
  22359102.881   -12011732.11449  -9331903.71246  22359102.426    22359106.668
  22226098.128   -15182616.24349 -11805830.44547  22226097.773    22226102.355
  23780015.711   -11365966.07649  -8566895.23545  23780015.027    23780020.039
  24061217.598    -9067961.30449  -7044527.29745  24061216.676    24061225.006
  23748514.103    -6558593.07249  -4714842.65045  23748513.756    23748519.009
  22705631.597   -12807113.78249  -9953469.25646  22705630.999    22705635.419
  21239841.563   -23764943.78149 -18497553.85947  21239840.764    21239845.094
  20243601.942   -25726409.43149 -20028953.42548  20243601.406    20243603.534
  22299178.476   -16485980.41849 -12816163.47946  22299177.921    22299180.989
 03  4 13  0 52  0.0000000  0  9G31G 3G21G17G 9G23G15G14G18
  22360670.893   -12003492.34849  -9325483.12446  22360670.430    22360674.624
  22236151.183   -15129786.90949 -11764664.76347  22236150.833    22236155.423
  23798647.484   -11268056.41249  -8490602.13445  23798646.749    23798651.800
  24079930.155    -8969627.00149  -6967903.32145  24079929.441    24079937.603
  23756370.891    -6517305.67049  -4682670.66345  23756370.547    23756375.710
  22715779.516   -12753786.49849  -9911915.55446  22715778.884    22715783.302
  21252362.927   -23699143.59649 -18446281.01747  21252362.126    21252366.476
  20240832.931   -25740960.68649 -20040292.04548  20240832.383    20240834.501
  22310810.270   -16424855.18749 -12768533.45246  22310809.718    22310812.743
 03  4 13  0 52 30.0000000  0  9G31G 3G21G17G 9G23G15G14G18
  22362345.948   -11994689.47749  -9318623.75646  22362345.530    22362349.774
  22246284.231   -15076537.72149 -11723171.93547  22246283.848    22246288.385
  23817319.451   -11169935.42349  -8414144.35645  23817318.713    23817323.838
  24098683.927    -8871075.90349  -6891110.40845  24098683.169    24098691.193
  23764335.297    -6475451.85649  -4650057.31345  23764334.972    23764340.264
  22725937.165   -12700407.41649  -9870321.48946  22725936.552    22725941.005
  21264959.539   -23632948.34149 -18394700.34447  21264958.725    21264963.087
  20238165.204   -25754979.63749 -20051215.88948  20238164.650    20238166.742
  22322461.708   -16363626.38349 -12720822.72046  22322461.182    22322464.200
 03  4 13  0 53  0.0000000  0  9G31G 3G21G17G 9G23G15G14G18
  22364128.245   -11985323.51649  -9311325.60946  22364127.836    22364132.074
  22256496.896   -15022870.00349 -11681352.96447  22256496.488    22256501.058
  23836031.404   -11071603.65149  -8337522.32445  23836030.550    23836035.776
  24117478.731    -8772308.82749  -6814149.19245  24117477.937    24117486.128
  23772407.722    -6433031.89649  -4617002.80245  23772407.335    23772412.637
  22736104.947   -12646975.72849  -9828686.43046  22736104.352    22736108.737
  21277631.265   -23566357.86049 -18342811.69747  21277630.493    21277634.852
  20235598.855   -25768465.87149 -20061724.62648  20235598.297    20235600.391
  22334132.933   -16302293.69749 -12673031.04146  22334132.392    22334135.471
 03  4 13  0 53 30.0000000  0  9G31G 3G21G17G 9G23G15G14G18
  22366016.996   -11975398.21249  -9303591.61446  22366016.569    22366020.821
  22266788.182   -14968789.09849 -11639212.03947  22266787.784    22266792.363
  23854782.660   -10973065.25049  -8260739.26745  23854781.878    23854787.153
  24136314.143    -8673329.59349  -6737022.65745  24136313.358    24136321.451
  23780586.864    -6390049.70449  -4583510.19745  23780586.534    23780591.713
  22746282.106   -12593494.28549  -9787012.60546  22746281.517    22746285.984
  21290377.548   -23499375.81349 -18290617.93247  21290376.769    21290381.166
  20233133.221   -25781422.68049 -20071820.82448  20233132.694    20233134.787
  22345823.372   -16240860.06249 -12625160.69646  22345822.849    22345825.993
 03  4 13  0 54  0.0000000  0  9G31G 3G21G17G 9G23G15G14G18
  22368012.821   -11964910.41449  -9295419.31646  22368012.337    22368016.574
  22277158.404   -14914293.13449 -11596747.68846  22277158.014    22277162.612
  23873573.750   -10874317.57849  -8183793.15645  23873572.959    23873578.458
  24155190.321    -8574135.07749  -6659728.38445  24155189.440    24155197.497
  23788873.700    -6346502.36749  -4549577.20945  23788873.375    23788878.648
  22756469.482   -12539959.12849  -9745296.93046  22756468.895    22756473.376
  21303198.990   -23431998.71649 -18238116.34547  21303198.223    21303202.635
  20230769.067   -25793846.37249 -20081501.60648  20230768.521    20230770.631
  22357533.767   -16179321.87349 -12577208.89446  22357533.242    22357536.348
 03  4 13  0 54 30.0000000  0  9G31G 3G21G17G 9G23G15G14G18
  22370114.683   -11953865.33149  -9286812.77046  22370114.172    22370118.432
  22287606.366   -14859389.02749 -11553965.30346  22287605.952    22287610.532
  23892403.736   -10775366.08649  -8106688.23645  23892403.014    23892408.423
  24174106.148    -8474731.76349  -6582271.39345  24174105.455    24174113.501
  23797267.045    -6302395.40549  -4515208.15845  23797266.645    23797271.918
  22766666.208   -12486374.69949  -9703542.85146  22766665.645    22766670.223
  21316094.695   -23364231.64449 -18185310.87347  21316093.915    21316098.328
  20228505.395   -25805741.71949 -20090770.69148  20228504.877    20228506.995
  22369263.095   -16117683.69949 -12529179.17246  22369262.552    22369265.715
 03  4 13  0 55  0.0000000  0 10G31G 3G21G17G 9G25G23G15G14G18
  22372322.618   -11942262.65049  -9277771.72846  22372322.083    22372326.320
  22298131.808   -14804077.96449 -11510865.81746  22298131.395    22298135.946
  23911272.375   -10676210.87449  -8029424.55745  23911271.791    23911277.119
  24193061.757    -8375119.45749  -6504651.57245  24193061.132    24193069.246
  23805766.846    -6257728.43849  -4480402.74645  23805766.481    23805771.753
  24536982.000    -4530258.61759  -3503811.30045  24536981.622    24536991.062
  22776872.722   -12432739.58649  -9661749.28446  22776872.129    22776876.733
  21329064.650   -23296074.16649 -18132201.19247  21329063.886    21329068.331
  20226342.508   -25817107.85649 -20099627.40548  20226341.955    20226344.073
  22381011.694   -16055944.43749 -12481070.69646  22381011.168    22381014.387
 03  4 13  0 55 30.0000000  0 10G31G 3G21G17G 9G25G23G15G14G18
  22374636.139   -11930105.12849  -9268298.33646  22374635.582    22374639.805
  22308733.803   -14748364.07649 -11467452.42946  22308733.405    22308737.992
  23930179.056   -10576855.13049  -7952004.61145  23930178.552    23930184.028
  24212056.632    -8275301.38849  -6426871.41845  24212055.962    24212064.063
  23814372.699    -6212504.78749  -4445163.56245  23814372.343    23814377.539
  24518370.101    -4628062.83249  -3580022.09945  24518369.856    24518379.243
  22787088.472   -12379055.61849  -9619917.64246  22787087.887    22787092.478
  21342108.434   -23227528.92249 -18078789.35747  21342107.656    21342112.089
  20224279.868   -25827947.12549 -20108073.56748  20224279.323    20224281.410
  22392779.131   -15994106.27749 -12432885.14746  22392778.642    22392781.788
 03  4 13  0 56  0.0000000  0 10G31G 3G21G17G 9G25G23G15G14G18
  22377055.937   -11917388.69149  -9258389.43346  22377055.437    22377059.683
  22319412.966   -14692244.65549 -11423723.04746  22319412.582    22319417.200
  23949124.824   -10477295.13749  -7874425.53245  23949124.236    23949129.772
  24231091.392    -8175273.36549  -6348927.65445  24231090.774    24231098.842
  23823085.136    -6166720.57049  -4409487.57545  23823084.801    23823089.932
  24499748.125    -4725921.20649  -3656275.12745  24499747.808    24499757.122
  22797314.546   -12325317.73949  -9578043.99646  22797313.948    22797318.431
  21355226.817   -23158591.39849 -18025071.84947  21355226.044    21355230.469
  20222318.331   -25838254.96549 -20116105.63048  20222317.791    20222319.878
  22404566.337   -15932164.45449 -12384618.82346  22404565.821    22404568.928
 03  4 13  0 56 30.0000000  0 10G31G 3G21G17G 9G25G23G15G14G18
  22379581.702   -11904115.82749  -9248046.95846  22379581.218    22379585.427
  22330168.603   -14635723.64049 -11379680.74346  22330168.226    22330172.825
  23968108.893   -10377533.89749  -7796689.63145  23968108.244    23968113.868
  24250165.464    -8075038.82049  -6270822.96645  24250164.910    24250173.065
  23831903.709    -6120378.84249  -4373377.15245  23831903.417    23831908.330
  24481115.980    -4823832.73049  -3732569.54245  24481115.597    24481124.984
  22807550.498   -12271527.41749  -9536129.48746  22807549.902    22807554.372
  21368419.459   -23089263.84149 -17971050.41847  21368418.691    21368423.123
  20220457.497   -25848033.57349 -20123725.31548  20220456.979    20220459.065
  22416372.909   -15870120.77649 -12336273.13146  22416372.378    22416375.440
 03  4 13  0 57  0.0000000  0 10G31G 3G21G17G 9G25G23G15G14G18
  22382212.841   -11890288.90249  -9237272.73746  22382212.357    22382216.609
  22340999.992   -14578804.60149 -11335328.27946  22340999.598    22341004.162
  23987130.947   -10277573.91249  -7718798.85545  23987130.125    23987135.683
  24269278.405    -7974599.81349  -6192558.97145  24269277.818    24269286.119
  23840827.944    -6073481.97449  -4336834.14545  23840827.568    23840832.534
  24462473.991    -4921796.10549  -3808904.38645  24462473.662    24462482.902
  22817796.108   -12217686.00649  -9494175.17046  22817795.539    22817800.074
  21381685.845   -23019548.43649 -17916726.76447  21381685.097    21381689.544
  20218697.058   -25857284.59049 -20130933.88048  20218696.518    20218698.624
  22428198.577   -15807976.76149 -12287849.25446  22428198.022    22428201.097
 03  4 13  0 57 30.0000000  0  9G31G 3G21G 9G25G23G15G14G18
  22384949.371   -11875908.20749  -9226067.01446  22384948.892    22384953.175
  22351906.764   -14521489.44149 -11290667.15546  22351906.337    22351910.934
  24006190.376   -10177415.83549  -7640753.73845  24006189.651    24006195.380
  23849857.713    -6026030.37049  -4299858.88645  23849857.357    23849862.319
  24443822.782    -5019808.32049  -3885277.27945  24443822.404    24443831.644
  22828051.799   -12163792.68849  -9452180.40646  22828051.199    22828055.626
  21395026.106   -22949445.22849 -17862100.93047  21395025.342    21395029.777
  20217037.113   -25866007.71749 -20137731.11048  20217036.577    20217038.690
  22440043.352   -15745731.88949 -12239346.78846  22440042.831    22440045.926
 03  4 13  0 58  0.0000000  0  9G31G 3G21G 9G25G23G15G14G18
  22387790.875   -11860976.30549  -9214431.76846  22387790.375    22387794.613
  22362888.071   -14463782.29249 -11245700.58246  22362887.675    22362892.305
  24025287.111   -10077062.47649  -7562556.43445  24025286.410    24025292.023
  23858992.430    -5978027.15949  -4262453.80445  23858992.094    23858997.053
  24425162.503    -5117867.71449  -3961686.94045  24425162.073    24425171.236
  22838316.922   -12109849.03349  -9410146.41546  22838316.313    22838320.793
  21408439.680   -22878956.56049 -17807174.73147  21408438.906    21408443.372
  20215477.161   -25874205.35149 -20144118.85648  20215476.587    20215478.689
  22451907.077   -15683387.82249 -12190767.02646  22451906.558    22451909.667
 03  4 13  0 58 30.0000000  0  9G31G 3G21G 9G25G23G15G14G18
  22390737.068   -11845494.27949  -9202367.85946  22390736.545    22390740.758
  22373943.517   -14405685.58549 -11200430.45846  22373943.112    22373947.791
  24044420.542    -9976515.43849  -7484208.20545  24044419.985    24044425.553
  23868231.825    -5929473.63649  -4224619.89445  23868231.527    23868236.332
  24406493.678    -5215971.93449  -4038131.50945  24406493.307    24406502.307
  22848591.625   -12055855.03849  -9368073.19046  22848591.069    22848595.588
  21421926.401   -22808083.39549 -17751948.93047  21421925.629    21421930.105
  20214017.069   -25881877.96249 -20150097.50048  20214016.518    20214018.628
  22463789.607   -15620945.03149 -12142110.33846  22463789.092    22463792.137
 03  4 13  0 59  0.0000000  0  9G31G 3G21G 9G25G23G15G14G18
  22393788.340   -11829459.73549  -9189873.41746  22393787.823    22393792.036
  22385073.269   -14347198.37549 -11154856.05246  22385072.887    22385077.561
  24063591.353    -9875772.55549  -7405707.39845  24063590.763    24063596.533
  23877576.451    -5880367.37749  -4186355.30545  23877576.158    23877581.136
  24387817.645    -5314114.86949  -4114606.28445  24387817.127    24387825.861
  22858876.700   -12001807.03049  -9325957.90246  22858876.080    22858880.586
  21435486.802   -22736823.06449 -17696421.44947  21435486.032    21435490.537
  20212657.439   -25889022.67749 -20155664.80248  20212656.909    20212659.009
  22475691.485   -15558400.07349 -12093374.03746  22475690.983    22475694.048
 03  4 13  0 59 30.0000000  0  9G31G 3G21G 9G25G23G15G14G18
  22396943.654   -11812878.30649  -9176952.83846  22396943.139    22396947.394
  22396276.103   -14288327.45149 -11108982.64746  22396275.701    22396280.408
  24082798.305    -9774839.54549  -7327058.41745  24082797.775    24082803.506
  23887024.957    -5830714.64149  -4147664.89645  23887024.817    23887029.692
  24369133.645    -5412298.49549  -4191112.73545  24369133.081    24369141.912
  22869171.048   -11947709.52449  -9283804.02546  22869170.473    22869175.051
  21449119.929   -22665180.65849 -17640596.24547  21449119.164    21449123.687
  20211397.374   -25895644.32949 -20160824.52048  20211396.841    20211398.936
  22487612.012   -15495757.50149 -12044561.68146  22487611.490    22487614.600
 03  4 13  1  0  0.0000000  0  9G31G 3G21G 9G25G23G15G14G18
  22400203.481   -11795747.90149  -9163604.47646  22400202.982    22400207.247
  22407552.090   -14229072.05949 -11062809.65046  22407551.655    22407556.377
  24102041.725    -9673714.47449  -7248259.77345  24102041.304    24102047.043
  23896578.078    -5780513.45249  -4108547.08545  23896577.843    23896582.562
  24350443.059    -5510516.89249  -4267646.30645  24350442.600    24350451.180
  22879475.624   -11893559.15249  -9241608.95746  22879474.969    22879479.493
  21462826.281   -22593153.79849 -17584471.46247  21462825.465    21462829.985
  20210237.270   -25901740.66649 -20165574.89848  20210236.744    20210238.820
  22499551.661   -15433014.34749 -11995670.94846  22499551.155    22499554.284
 03  4 13  1  0 30.0000000  0  9G31G 3G21G 9G25G23G15G14G18
  22403567.269   -11778071.41649  -9149830.60946  22403566.743    22403570.969
  22418900.365   -14169436.45349 -11016340.39046  22418899.929    22418904.698
  24121321.098    -9572400.86649  -7169314.23545  24121320.727    24121326.572
  23906234.794    -5729766.78749  -4069004.25145  23906234.668    23906239.407
  24331746.026    -5608769.05449  -4344206.18045  24331745.514    24331754.191
  22889789.794   -11839357.53049  -9199373.96146  22889789.179    22889793.733
  21476605.224   -22520745.13249 -17528049.17147  21476604.396    21476608.934
  20209176.692   -25907313.93049 -20169917.68948  20209176.148    20209178.219
  22511510.025   -15370172.70149 -11946703.45746  22511509.566    22511512.613
 03  4 13  1  1  0.0000000  0  9G31G 3G21G 9G25G23G15G14G18
  22407034.480   -11759850.73149  -9135632.67946  22407033.973    22407038.254
  22430320.442   -14109423.74849 -10969577.27446  22430320.013    22430324.790
  24140636.122    -9470900.57749  -7090223.22445  24140635.715    24140641.531
  23915994.990    -5678476.96349  -4029038.17345  23915994.812    23915999.729
  24313043.029    -5707052.87449  -4420790.73445  24313042.641    24313051.222
  22900113.660   -11785105.35349  -9157099.55346  22900113.051    22900117.597
  21490456.456   -22447956.35549 -17471330.67947  21490455.667    21490460.213
  20208215.398   -25912365.52549 -20173853.97948  20208214.854    20208216.919
  22523486.971   -15307233.49149 -11897659.94546  22523486.495    22523489.522
 03  4 13  1  1 30.0000000  0  9G31G 3G21G 9G25G23G15G14G18
  22410605.365   -11741085.63649  -9121010.54046  22410604.861    22410609.114
  22441812.023   -14049035.14049 -10922521.25646  22441811.627    22441816.365
  24159986.563    -9369213.44449  -7010986.62145  24159986.119    24159992.114
  23925858.341    -5626643.93649  -3988648.80145  23925858.193    23925863.097
  24294334.814    -5805364.43449  -4497396.90045  24294334.413    24294342.872
  22910447.489   -11730801.06849  -9114784.56046  22910446.827    22910451.369
  21504380.212   -22374786.98149 -17414315.62947  21504379.398    21504383.913
  20207353.533   -25916894.59749 -20177383.10848  20207352.991    20207355.052
  22535482.751   -15244195.30249 -11848539.30146  22535482.230    22535485.330
 03  4 13  1  2  0.0000000  0  9G31G 3G21G 9G25G23G15G14G18
  22414279.348   -11721778.95049  -9105966.38746  22414278.838    22414283.094
  22453374.389   -13988274.65949 -10875175.47746  22453373.993    22453378.767
  24179372.121    -9267342.53049  -6931606.82745  24179371.539    24179377.642
  23935824.702    -5574270.95849  -3947838.71645  23935824.563    23935829.497
  24275621.358    -5903702.55249  -4574023.76545  24275621.058    24275629.558
  22920790.911   -11676446.17549  -9072430.13046  22920790.247    22920794.822
  21518375.925   -22301239.21449 -17357005.72847  21518375.119    21518379.632
  20206590.625   -25920903.49449 -20180506.90948  20206590.119    20206592.174
  22547496.968   -15181059.98349 -11799342.97646  22547496.483    22547499.711
 03  4 13  1  2 30.0000000  0 10G31G 3G21G 9G25G11G23G15G14G18
  22418055.493   -11701935.16849  -9090503.71346  22418054.983    22418059.233
  22465006.294   -13927148.29949 -10827544.57246  22465005.910    22465010.761
  24198791.754    -9165292.47849  -6852087.43145  24198791.175    24198797.206
  23945892.760    -5521362.52449  -3906611.38445  23945892.583    23945897.572
  24256902.719    -6002067.88349  -4650671.84345  24256902.516    24256910.975
  24662233.255    -2535552.97959  -1957688.24945  24662232.941    24662237.016
  22931143.367   -11622043.69449  -9030038.61746  22931142.730    22931147.325
  21532442.805   -22227317.28549 -17299404.26847  21532441.981    21532446.533
  20205926.031   -25924396.10149 -20183228.39948  20205925.499    20205927.538
  22559529.172   -15117830.84949 -11750073.54646  22559528.613    22559531.795
 03  4 13  1  3  0.0000000  0 10G31G 3G21G 9G25G11G23G15G14G18
  22421934.388   -11681551.55649  -9074620.38646  22421933.848    22421938.116
  22476708.246   -13865654.48649 -10779627.36046  22476707.839    22476712.691
  24218246.067    -9063060.79049  -6772426.50245  24218245.327    24218251.371
  23956063.341    -5467916.35449  -3864965.02845  23956063.073    23956068.155
  24238180.298    -6100453.33849  -4727335.60045  24238180.277    24238188.618
  24643156.290    -2635802.38249  -2035804.59545  24643155.979    24643160.086
  22941505.722   -11567589.67149  -8987606.94146  22941505.017    22941509.583
  21546581.510   -22153018.04249 -17241508.80047  21546580.722    21546585.267
  20205360.228   -25927369.23949 -20185545.10548  20205359.711    20205361.750
  22571579.790   -15054504.09149 -11700728.05146  22571579.251    22571582.428
 03  4 13  1  3 30.0000000  0 10G31G 3G21G 9G25G11G23G15G14G18
  22425916.046   -11660627.85449  -9058316.22046  22425915.492    22425919.747
  22488479.871   -13803794.33149 -10731424.68346  22488479.440    22488484.336
  24237734.792    -8960647.22849  -6692623.85245  24237734.126    24237740.153
  23966336.112    -5413932.08149  -3822899.35645  23966335.931    23966341.048
  24219455.050    -6198854.83949  -4804011.86745  24219455.040    24219463.156
  24624090.481    -2735993.48949  -2113875.50145  24624090.148    24624094.358
  22951878.118   -11513082.21849  -8945133.62646  22951877.496    22951882.053
  21560792.137   -22078340.82049 -17183318.80647  21560791.335    21560795.908
  20204893.446   -25929822.10749 -20187456.41448  20204892.924    20204894.972
  22583649.349   -14991078.26149 -11651305.36046  22583648.836    22583652.052
 03  4 13  1  4  0.0000000  0 10G31G 3G21G 9G25G11G23G15G14G18
  22430000.109   -11639166.00949  -9041592.71246  22429999.554    22430003.808
  22500320.631   -13741570.81849 -10682938.87146  22500320.222    22500325.086
  24257257.804    -8858053.97549  -6612681.20545  24257257.071    24257263.242
  23976710.859    -5359412.28549  -3780416.42445  23976710.559    23976715.916
  24200727.083    -6297270.44749  -4880699.13545  24200727.065    24200735.043
  24605035.916    -2836125.27449  -2191900.18545  24605035.529    24605039.896
  22962260.649   -11458522.00449  -8902619.20046  22962260.018    22962264.518
  21575074.330   -22003287.41649 -17124835.67547  21575073.537    21575078.118
  20204525.390   -25931756.16549 -20188963.45148  20204524.869    20204526.906
  22595737.530   -14927554.27949 -11601806.18246  22595737.047    22595740.341
 03  4 13  1  4 30.0000000  0 10G31G 3G21G 9G25G11G23G15G14G18
  22434186.015   -11617169.09649  -9024452.27446  22434185.457    22434189.685
  22512229.678   -13678988.52049 -10634173.48846  22512229.288    22512234.168
  24276814.279    -8755284.14849  -6532600.93745  24276813.542    24276819.884
  23987186.902    -5304360.02749  -3737518.57045  23987186.656    23987191.903
  24181996.716    -6395699.20849  -4957396.63845  24181996.472    24182004.455
  24585992.781    -2936197.69649  -2269878.62145  24585992.382    24585996.777
  22972652.922   -11403910.59649  -8860064.87846  22972652.284    22972656.748
  21589427.657   -21927860.39049 -17066061.41347  21589426.861    21589431.484
  20204255.598   -25933173.99049 -20190068.22448  20204255.075    20204257.086
  22607844.090   -14863933.94849 -11552231.93046  22607843.625    22607846.886
 03  4 13  1  5  0.0000000  0 10G31G 3G21G 9G25G11G23G15G14G18
  22438473.714   -11594637.05749  -9006894.85846  22438473.198    22438477.429
  22524206.843   -13616048.27049 -10585129.19046  22524206.456    22524211.318
  24296404.429    -8652337.64049  -6452383.03245  24296403.730    24296409.909
  23997764.289    -5248775.46049  -3694205.92245  23997764.074    23997769.382
  24163264.434    -6494137.10249  -5034101.26945  24163264.151    24163272.123
  24566961.614    -3036206.91449  -2347807.80645  24566961.167    24566965.582
  22983055.096   -11349246.30549  -8817469.36346  22983054.453    22983059.068
  21603852.101   -21852059.40649 -17006995.76447  21603851.345    21603855.966
  20204084.169   -25934074.84749 -20190770.17548  20204083.624    20204085.636
  22619969.256   -14800216.00149 -11502581.60846  22619968.742    22619972.017
 03  4 13  1  5 30.0000000  0 10G31G 3G21G 9G25G11G23G15G14G18
  22442862.649   -11571573.38749  -8988923.18446  22442862.090    22442866.255
  22536251.190   -13552755.08049 -10535809.86546  22536250.788    22536255.655
  24316027.523    -8549218.00849  -6372030.19145  24316026.845    24316033.000
  24008442.269    -5192662.48449  -3650481.53345  24008442.101    24008447.363
  24144530.351    -6592583.69049  -5110812.65845  24144530.230    24144538.087
  24547942.496    -3136152.94649  -2425687.74645  24547942.133    24547946.428
  22993467.089   -11294531.17449  -8774834.22046  22993466.474    22993471.008
  21618347.277   -21775887.50749 -16947641.08747  21618346.450    21618351.053
  20204010.519   -25934461.68949 -20191071.59148  20204009.985    20204011.989
  22632112.503   -14736402.76449 -11452857.03546  22632112.015    22632115.282
 03  4 13  1  6  0.0000000  0 10G31G 3G21G 9G25G11G23G15G14G18
  22447352.646   -11547977.98849  -8970537.17346  22447352.092    22447356.336
  22548362.498   -13489110.05249 -10486216.38446  22548362.094    22548366.960
  24335683.607    -8445925.31849  -6291542.53145  24335682.917    24335689.185
  24019220.752    -5136021.37949  -3606345.63645  24019220.589    24019225.980
  24125795.673    -6691034.55549  -5187527.40145  24125795.529    24125803.221
  24528936.079    -3236032.41649  -2503515.82645  24528935.631    24528939.962
  23003889.102   -11239763.66349  -8732158.28046  23003888.429    23003892.943
  21632912.929   -21699344.20149 -16887996.99747  21632912.167    21632916.782
  20204034.840   -25934333.94049 -20190972.02248  20204034.288    20204036.299
  22644274.276   -14672492.74849 -11403057.06746  22644273.755    22644276.958
 03  4 13  1  6 30.0000000  0 10G31G 3G21G 9G25G11G23G15G14G18
  22451943.408   -11523853.75449  -8951739.09846  22451942.834    22451947.057
  22560539.933   -13425117.19949 -10436351.87446  22560539.563    22560544.386
  24355372.169    -8342462.51649  -6210922.29545  24355371.417    24355377.621
  24030099.071    -5078855.04249  -3561800.46145  24030098.859    24030104.384
  24107060.333    -6789488.28049  -5264244.36145  24107060.120    24107067.876
  24509942.359    -3335844.72449  -2581291.55445  24509942.030    24509946.203
  23014320.663   -11184945.07449  -8689442.52246  23014320.037    23014324.586
  21647548.960   -21622431.76549 -16828065.27747  21647548.154    21647552.793
  20204156.638   -25933693.78949 -20190473.19248  20204156.074    20204158.111
  22656454.125   -14608487.61249 -11353182.96546  22656453.573    22656456.765
 03  4 13  1  7  0.0000000  0 10G31G 3G21G 9G25G11G23G15G14G18
  22456634.724   -11499200.50749  -8932528.78546  22456634.146    22456638.399
  22572783.460   -13360777.36549 -10386216.99046  22572783.058    22572787.835
  24375093.057    -8238829.08449  -6130169.10945  24375092.344    24375098.644
  24041077.467    -5021163.57649  -3516846.07145  24041077.199    24041082.566
  24088325.370    -6887940.43649  -5340960.10945  24088325.129    24088332.865
  24490962.211    -3435585.86549  -2659011.82745  24490961.731    24490966.138
  23024762.492   -11130073.47549  -8646685.46346  23024761.799    23024766.305
  21662255.317   -21545149.39149 -16767845.29647  21662254.523    21662259.151
  20204376.072   -25932540.59449 -20189574.58248  20204375.532    20204377.551
  22668652.284   -14544386.02349 -11303233.72146  22668651.738    22668654.908
 03  4 13  1  7 30.0000000  0 10G31G 3G21G 9G25G11G23G15G14G18
  22461426.322   -11474020.42349  -8912907.96846  22461425.768    22461430.063
  22585092.294   -13296093.96949 -10335814.38546  22585091.896    22585096.786
  24394845.975    -8135027.56949  -6049284.95445  24394845.248    24394851.501
  24052155.292    -4962949.48949  -3471484.48545  24052155.000    24052160.442
  24069591.112    -6986388.92849  -5417673.01645  24069590.879    24069598.539
  24471995.677    -3535255.43649  -2736676.33445  24471995.230    24471999.516
  23035214.097   -11075149.46549  -8603887.56646  23035213.454    23035217.998
  21677031.723   -21467499.02749 -16707338.56647  21677030.944    21677035.608
  20204692.853   -25930875.88349 -20188277.39348  20204692.323    20204694.319
  22680868.751   -14480188.37349 -11253209.60546  22680868.172    22680871.340
 03  4 13  1  8  0.0000000  0 10G31G 3G21G 9G25G11G23G15G14G18
  22466317.498   -11448317.31049  -8892879.59046  22466316.932    22466321.225
  22597465.605   -13231072.13449 -10285148.07346  22597465.210    22597470.075
  24414630.146    -8031061.67549  -5968272.72045  24414629.443    24414635.546
  24063331.807    -4904216.84949  -3425718.79445  24063331.542    24063336.868
  24050857.670    -7084833.51649  -5494382.86745  24050857.408    24050864.951
  24453042.760    -3634853.20549  -2814284.89045  24453042.311    24453046.606
  23045675.357   -11020175.17549  -8561050.47746  23045674.732    23045679.311
  21691877.496   -21389484.22249 -16646547.86547  21691876.686    21691881.374
  20205106.348   -25928702.96049 -20186584.19348  20205105.786    20205107.785
  22693102.951   -14415897.24749 -11203112.65246  22693102.412    22693105.560
 03  4 13  1  8 30.0000000  0 10G31G 3G21G 9G25G11G23G15G14G18
  22471308.252   -11422090.71549  -8872443.29946  22471307.697    22471312.001
  22609903.232   -13165712.11649 -10234218.23046  22609902.870    22609907.681
  24434445.732    -7926930.74249  -5887131.87445  24434444.925    24434451.002
  24074607.058    -4844965.24649  -3379548.71745  24074606.766    24074612.077
  24032125.794    -7183269.42049  -5571085.97045  24032125.476    24032133.020
  24434104.355    -3734374.97249  -2891834.22945  24434103.862    24434107.995
  23056146.638   -10965148.31649  -8518172.42646  23056145.982    23056150.616
  21706792.786   -21311103.92349 -16585472.35247  21706791.991    21706796.720
  20205616.727   -25926020.64349 -20184494.06748  20205616.173    20205618.172
  22705355.273   -14351510.82649 -11152941.43946  22705354.740    22705357.945
 03  4 13  1  9  0.0000000  0 10G31G 3G21G 9G25G11G23G15G14G18
  22476398.386   -11395341.83349  -8851600.04646  22476397.863    22476402.180
  22622404.758   -13100016.52049 -10183026.91546  22622404.346    22622409.190
  24454292.487    -7822636.11549  -5805863.47645  24454291.716    24454297.634
  24085980.706    -4785196.35949  -3332975.56545  24085980.433    24085985.587
  24013396.122    -7281693.63849  -5647779.96445  24013395.792    24013403.281
  24415180.748    -3833818.79249  -2969322.84445  24415180.283    24415184.346
  23066627.924   -10910068.58149  -8475253.18846  23066627.276    23066631.949
  21721777.416   -21232359.03349 -16524112.75247  21721776.647    21721781.419
  20206223.904   -25922829.92149 -20182007.78348  20206223.373    20206225.344
  22717625.818   -14287028.90749 -11102695.83346  22717625.285    22717628.501
 03  4 13  1  9 30.0000000  0 10G31G 3G21G 9G25G11G23G15G14G18
  22481587.581   -11368072.47849  -8830351.21946  22481587.051    22481591.409
  22634969.498   -13033988.03649 -10131576.19346  22634969.107    22634973.998
  24474170.017    -7718179.49349  -5724468.85545  24474169.364    24474175.356
  24097452.385    -4724912.12249  -3286000.87845  24097452.182    24097457.438
  23994669.132    -7380103.59149  -5724462.85145  23994668.907    23994676.213
  24396272.249    -3933182.59549  -3046749.09545  24396271.763    24396275.865
  23077119.365   -10854935.92949  -8432292.70546  23077118.713    23077123.340
  21736831.275   -21153250.64549 -16462469.91547  21736830.535    21736835.309
  20206927.632   -25919131.75649 -20179126.08348  20206927.085    20206929.077
  22729914.407   -14222451.73749 -11052375.99646  22729913.928    22729917.193
 03  4 13  1 10  0.0000000  0 10G31G 3G21G 9G25G11G23G15G14G18
  22486875.410   -11340284.82149  -8808698.53346  22486874.880    22486879.267
  22647597.001   -12967630.39449 -10079868.99946  22647596.605    22647601.507
  24494078.089    -7613562.78749  -5642949.49545  24494077.283    24494083.420
  24109021.725    -4664114.84649  -3238626.37445  24109021.502    24109026.628
  23975945.314    -7478497.21149  -5801133.00645  23975945.079    23975952.334
  24377379.351    -4032464.79449  -3124111.76145  24377378.902    24377382.983
  23087620.808   -10799750.78149  -8389291.30646  23087620.133    23087624.806
  21751954.069   -21073780.39149 -16400545.09747  21751953.306    21751958.049
  20207727.619   -25914927.72949 -20175850.21348  20207727.072    20207729.080
  22742221.071   -14157780.16649 -11001982.58746  22742220.559    22742223.793
 03  4 13  1 10 30.0000000  0 10G31G 3G21G 9G25G11G23G15G14G18
  22492261.387   -11311981.45649  -8786643.97846  22492260.862    22492265.204
  22660286.400   -12900947.33349 -10027908.21346  22660286.010    22660290.930
  24514016.151    -7508788.61849  -5561307.42345  24514015.310    24514021.397
  24120688.223    -4602807.32449  -3190854.27545  24120688.006    24120693.039
  23957224.914    -7576872.60449  -5877788.97245  23957224.639    23957231.999
  24358502.330    -4131664.04849  -3201409.81745  24358501.790    24358505.881
  23098131.994   -10744514.03049  -8346249.72746  23098131.336    23098136.046
  21767145.306   -20993950.35649 -16338339.92447  21767144.489    21767149.215
  20208623.478   -25910219.67949 -20172181.59248  20208622.951    20208624.982
  22754545.467   -14093015.29749 -10951516.48446  22754544.926    22754548.146
 03  4 13  1 11  0.0000000  0 10G31G 3G21G 9G25G11G23G15G14G18
  22497745.628   -11283161.67949  -8764187.04246  22497745.095    22497749.454
  22673037.691   -12833939.02849  -9975693.99946  22673037.303    22673042.238
  24533984.121    -7403856.23749  -5479542.06945  24533983.467    24533989.629
  24132451.768    -4540989.13249  -3142684.29045  24132451.372    24132456.600
  23938508.941    -7675224.94549  -5954426.97345  23938508.606    23938515.924
  24339641.838    -4230776.70649  -3278640.37845  24339641.327    24339645.292
  23108653.545   -10689223.06549  -8303165.87646  23108652.902    23108657.615
  21782405.106   -20913759.41449 -16275853.51147  21782404.325    21782409.112
  20209615.469   -25905006.63849 -20168119.47048  20209614.955    20209616.980
  22766888.054   -14028154.91949 -10900975.96946  22766887.532    22766890.684
 03  4 13  1 11 30.0000000  0 10G31G 3G21G 9G25G11G23G15G14G18
  22503327.397   -11253829.26949  -8741330.65146  22503326.901    22503331.286
  22685850.023   -12766610.25649  -9923230.07746  22685849.603    22685854.477
  24553981.531    -7298769.28649  -5397656.28645  24553980.863    24553987.166
  24144311.743    -4478664.36049  -3094119.54545  24144311.401    24144316.604
  23919797.418    -7773553.14049  -6031046.15745  23919797.249    23919804.517
  24320797.841    -4329802.40249  -3355803.18245  24320797.213    24320801.435
  23119185.074   -10633879.78249  -8260041.26246  23119184.432    23119189.091
  21797732.999   -20833210.93249 -16213088.51547  21797732.194    21797737.030
  20210703.027   -25899291.58249 -20163666.17448  20210702.512    20210704.515
  22779248.354   -13963201.16149 -10850362.67246  22779247.865    22779250.986
 03  4 13  1 12  0.0000000  0  9G31G 3G 9G25G11G23G15G14G18
  22509006.519   -11223985.62249  -8718075.89246  22509005.970    22509010.361
  22698722.828   -12698963.34149  -9870518.25446  22698722.392    22698727.327
  24156267.962    -4415834.40649  -3045161.14545  24156267.603    24156272.749
  23901091.282    -7871854.34349  -6107644.32045  23901091.019    23901098.190
  24301970.857    -4428738.76849  -3432896.38645  24301970.256    24301974.341
  23129726.597   -10578483.70449  -8216875.51946  23129725.984    23129730.597
  21813128.835   -20752305.60049 -16150045.45747  21813128.036    21813132.886
  20211885.946   -25893075.29949 -20158822.30048  20211885.423    20211887.378
  22791626.374   -13898153.75849 -10799676.40746  22791625.966    22791629.128
 03  4 13  1 12 30.0000000  0  9G31G 3G 9G25G11G23G15G14G18
  22514782.803   -11193630.80749  -8694422.81746  22514782.271    22514786.716
  22711655.937   -12630999.39249  -9817559.39046  22711655.548    22711660.476
  24168320.204    -4352499.70649  -2995809.45645  24168319.979    24168324.904
  23882391.063    -7970124.42649  -6184218.23545  23882390.676    23882397.833
  24283161.363    -4527582.04749  -3509917.05745  24283160.918    24283165.072
  23140278.516   -10523033.02249  -8173667.22546  23140277.889    23140282.514
  21828592.588   -20671043.14149 -16086724.11247  21828591.790    21828596.661
  20213164.313   -25886357.28749 -20153587.47448  20213163.788    20213165.754
  22804022.599   -13833011.20949 -10748916.01346  22804022.174    22804025.403
 03  4 13  1 13  0.0000000  0  9G31G 3G 9G25G11G23G15G14G18
  22520655.733   -11162768.77549  -8670374.51346  22520655.165    22520659.619
  22724648.472   -12562723.67549  -9764357.58846  22724648.033    22724653.004
  24180467.661    -4288664.42149  -2946067.67145  24180467.551    24180472.284
  23863696.826    -8068362.67249  -6260767.34045  23863696.437    23863703.581
  24264369.612    -4626332.37949  -3586865.28245  24264369.197    24264373.400
  23150840.477   -10467529.72849  -8130417.92746  23150839.827    23150844.486
  21844123.642   -20589426.91349 -16023127.10347  21844122.878    21844127.735
  20214537.522   -25879141.03649 -20147964.40748  20214537.017    20214538.993
  22816436.506   -13767776.00949 -10698083.40346  22816435.990    22816439.277
 03  4 13  1 13 30.0000000  0  9G31G 3G 9G25G11G23G15G14G18
  22526625.041   -11131399.98649  -8645931.32746  22526624.492    22526628.973
  22737700.086   -12494137.35049  -9710913.76046  22737699.688    22737704.656
  24192710.178    -4224329.15749  -2895936.33745  24192710.035    24192715.152
  23845009.418    -8166564.72949  -6337288.25145  23845009.054    23845016.020
  24245596.317    -4724986.45449  -3663738.52545  24245595.914    24245600.061
  23161412.808   -10411972.33249  -8087126.47746  23161412.188    23161416.791
  21859722.135   -20507456.74249 -15959254.30747  21859721.319    21859726.172
  20216005.623   -25871426.11549 -20141952.76848  20216005.081    20216007.075
  22828868.169   -13702446.83349 -10647177.59946  22828867.694    22828871.084
 03  4 13  1 14  0.0000000  0  9G31G 3G 9G25G11G23G15G14G18
  22532690.224   -11099527.14149  -8621095.37646  22532689.703    22532694.181
  22750810.022   -12425244.18249  -9657230.82546  22750809.662    22750814.623
  24205047.384    -4159496.82949  -2845417.65845  24205047.155    24205052.445
  23826329.350    -8264728.93849  -6413779.68745  23826328.956    23826335.824
  24226841.599    -4823542.99349  -3740535.74945  24226841.157    24226845.237
  23171995.118   -10356361.49749  -8043793.39046  23171994.532    23171999.211
  21875387.513   -20425134.77249 -15895107.37147  21875386.735    21875391.574
  20217568.164   -25863214.76849 -20135554.30748  20217567.639    20217569.611
  22841317.673   -13637024.75449 -10596199.38546  22841317.145    22841320.536
 03  4 13  1 14 30.0000000  0  9G31G 3G 9G25G11G23G15G14G18
  22538851.155   -11067151.37649  -8595867.53146  22538850.648    22538855.124
  22763978.017   -12356046.36749  -9603310.50446  22763977.616    22763982.582
  24217478.884    -4094168.91349  -2794512.79245  24217478.679    24217483.888
  23807657.086    -8362851.93549  -6490239.00445  23807656.643    23807663.385
  24208105.996    -4921999.22549  -3817254.81845  24208105.577    24208109.531
  23182587.843   -10300696.41849  -8000418.02746  23182587.249    23182591.972
  21891119.715   -20342461.56549 -15830686.74647  21891118.974    21891123.797
  20219225.131   -25854507.41649 -20128769.34348  20219224.612    20219226.568
  22853784.878   -13571509.18349 -10545148.32346  22853784.374    22853787.738
 03  4 13  1 15  0.0000000  0  9G31G 3G 9G25G11G23G15G14G18
  22545107.043   -11034276.37349  -8570250.67646  22545106.577    22545111.042
  22777203.013   -12286548.55649  -9549156.42146  22777202.611    22777207.686
  24230003.844    -4028349.13349  -2743224.68345  24230003.717    24230009.042
  23788992.692    -8460932.83549  -6566665.53045  23788992.294    23788999.000
  24189389.492    -5020355.09649  -3893895.67945  24189389.095    24189392.946
  23193190.620   -10244978.87149  -7957001.77346  23193189.959    23193194.665
  21906918.189   -20259440.03349 -15765994.70347  21906917.476    21906922.340
  20220975.889   -25845307.17949 -20121600.31448  20220975.360    20220977.311
  22866269.521   -13505901.99849 -10494025.88546  22866268.991    22866272.363
 03  4 13  1 15 30.0000000  0  9G31G 3G 9G25G11G23G15G14G18
  22551458.028   -11000901.80449  -8544244.54646  22551457.551    22551462.016
  22790485.050   -12216751.19749  -9494768.93346  22790484.666    22790489.731
  24242622.699    -3962037.29249  -2691553.12245  24242622.631    24242627.680
  23770337.196    -8558966.64049  -6643055.35945  23770336.918    23770343.678
  24170692.982    -5118606.02549  -3970454.76545  24170692.618    24170696.368
  23203803.765   -10189206.37649  -7913542.74046  23203803.161    23203807.840
  21922783.144   -20176069.41749 -15701030.64847  21922782.393    21922787.307
  20222820.598   -25835613.07049 -20114046.45748  20222820.083    20222822.005
  22878772.081   -13440201.08849 -10442830.40146  22878771.536    22878774.943
 03  4 13  1 16  0.0000000  0  9G31G 3G 9G25G11G23G15G14G18
  22557903.686   -10967029.80749  -8517850.81146  22557903.208    22557907.660
  22803823.477   -12146657.50949  -9440150.52546  22803823.092    22803828.217
  24255334.639    -3895235.68749  -2639499.93645  24255334.491    24255339.618
  23751691.228    -8656950.97449  -6719406.62745  23751691.016    23751697.719
  24152016.706    -5216750.46349  -4046930.87445  24152016.317    24152020.008
  23214427.391   -10133379.01749  -7870040.91846  23214426.767    23214431.447
  21938714.210   -20092351.47549 -15635795.93847  21938713.395    21938718.365
  20224759.033   -25825426.53449 -20106108.88648  20224758.491    20224760.421
  22891292.309   -13374406.97349 -10391562.30346  22891291.749    22891295.156
 03  4 13  1 16 30.0000000  0  9G31G 3G 9G25G11G23G15G14G18
  22564443.445   -10932663.36949  -8491071.79346  22564442.961    22564447.397
  22817217.515   -12076271.46549  -9385304.30846  22817217.159    22817222.300
  24268139.174    -3827947.61649  -2587067.71445  24268139.027    24268144.180
  23733055.070    -8754883.92249  -6795717.86045  23733054.868    23733061.615
  24133360.948    -5314787.20649  -4123323.04645  24133360.493    24133364.186
  23225061.272   -10077497.65349  -7826497.04046  23225060.626    23225065.298
  21954710.922   -20008288.31849 -15570292.23347  21954710.130    21954715.095
  20226790.683   -25814750.06449 -20097789.55148  20226790.154    20226792.087
  22903830.106   -13308520.60749 -10340222.31146  22903829.518    22903832.970
 03  4 13  1 17  0.0000000  0  9G31G 3G 9G25G11G23G15G14G18
  22571077.108   -10897803.35649  -8463908.16346  22571076.609    22571081.078
  22830666.832   -12005594.96949  -9330231.78046  22830666.429    22830671.651
  24281036.153    -3760174.38349  -2534257.40445  24281035.859    24281041.004
  23714429.284    -8852761.96049  -6871986.29045  23714429.102    23714435.948
  24114726.184    -5412713.30649  -4199628.99945  24114725.663    24114729.457
  23235705.688   -10021561.09449  -7782910.14446  23235705.036    23235709.702
  21970773.427   -19923880.04749 -15504519.61447  21970772.581    21970777.525
  20228915.572   -25803583.75749 -20089088.52148  20228915.043    20228916.953
  22916385.497   -13242541.41049 -10288809.98346  22916384.967    22916388.399
 03  4 13  1 17 30.0000000  0  9G31G 3G 9G25G11G23G15G14G18
  22577804.160   -10862452.64549  -8436362.18246  22577803.652    22577808.115
  22844170.766   -11934631.55949  -9274935.67146  22844170.350    22844175.595
  24294024.690    -3691918.74449  -2481071.25045  24294024.467    24294029.769
  23695814.362    -8950583.39949  -6948210.61845  23695814.239    23695821.011
  24096112.711    -5510527.41949  -4275847.69045  24096112.119    24096116.005
  23246360.422    -9965570.01049  -7739280.77146  23246359.870    23246364.529
  21986901.027   -19839129.04449 -15438479.92847  21986900.196    21986905.152
  20231133.213   -25791929.80349 -20080007.51348  20231132.688    20231134.594
  22928958.612   -13176470.04549 -10237325.84546  22928958.032    22928961.415
 03  4 13  1 18  0.0000000  0  9G31G 3G 9G25G11G23G15G14G18
  22584624.256   -10826612.97649  -8408435.19246  22584623.730    22584628.144
  22857728.775   -11863383.90649  -9219418.08546  22857728.414    22857733.595
  24307104.710    -3623182.70049  -2427510.68845  24307104.492    24307109.737
  23677210.885    -9048344.91849  -7024388.25645  23677210.718    23677217.511
  24077520.951    -5608227.26549  -4351977.33245  24077520.370    24077524.295
  23257025.680    -9909523.85849  -7695608.48446  23257025.067    23257029.874
  22003093.604   -19754036.50949 -15372174.11647  22003092.786    22003097.780
  20233443.461   -25779789.36049 -20070547.42448  20233442.949    20233444.855
  22941549.194   -13110306.28849 -10185769.71546  22941548.596    22941552.045
 03  4 13  1 18 30.0000000  0  9G31G 3G 9G25G11G23G15G14G18
  22591537.137   -10790285.63449  -8380128.19146  22591536.634    22591541.048
  22871340.486   -11791854.20849  -9163680.71946  22871340.111    22871345.295
  24320275.962    -3553967.65349  -2373576.91745  24320275.724    24320281.080
  23658619.455    -9146043.25749  -7100516.65345  23658619.209    23658626.006
  24058951.466    -5705810.00549  -4428015.73545  24058950.975    24058954.862
  23267701.614    -9853421.73949  -7651892.58746  23267701.036    23267705.813
  22019351.073   -19668603.15849 -15305602.72447  22019350.241    22019355.258
  20235846.172   -25767163.12349 -20060708.79148  20235845.636    20235847.536
  22954157.383   -13044049.89149 -10134141.39046  22954156.818    22954160.276
 03  4 13  1 19  0.0000000  0  9G31G 3G 9G25G11G23G15G14G18
  22598542.424   -10753472.48149  -8351442.63446  22598541.935    22598546.413
  22885005.329   -11720045.02349  -9107725.56646  22885004.951    22885010.179
  24333537.845    -3484275.74649  -2319271.56045  24333537.612    24333543.024
  23640040.557    -9243675.36649  -7176593.45145  23640040.251    23640047.028
  24040404.763    -5803273.32149  -4503961.08545  24040404.355    24040408.115
  23278388.237    -9797263.32049  -7608132.81346  23278387.598    23278392.402
  22035673.180   -19582830.19849 -15238766.69947  22035672.341    22035677.376
  20238341.088   -25754052.19249 -20050492.47148  20238340.548    20238342.438
  22966783.235   -12977700.84249 -10082440.87846  22966782.627    22966786.091
 03  4 13  1 19 30.0000000  0  9G31G 3G 9G25G11G23G15G14G18
  22605639.464   -10716177.36649  -8322381.51646  22605638.962    22605643.422
  22898722.523   -11647961.17949  -9051556.39546  22898722.095    22898727.346
  24346889.799    -3414111.11949  -2264597.83345  24346889.579    24346894.827
  23621474.375    -9341240.38049  -7252617.96345  23621474.144    23621480.863
  24021880.757    -5900616.94149  -4579813.15545  24021880.339    24021884.168
  23289085.279    -9741050.36149  -7564330.54046  23289084.612    23289089.448
  22052059.281   -19496720.57749 -15171668.33746  22052058.478    22052063.533
  20240927.622   -25740459.72449 -20039900.93048  20240927.098    20240928.997
  22979426.203   -12911261.09049 -10030669.67946  22979425.655    22979429.177
 03  4 13  1 20  0.0000000  0  9G31G 3G 9G25G11G23G15G14G18
  22612828.163   -10678400.87249  -8292945.30846  22612827.645    22612832.114
  22912491.594   -11575604.17049  -8995174.37046  22912491.162    22912496.478
  24360331.596    -3343474.39549  -2209556.24345  24360331.443    24360336.517
  23602921.891    -9438734.10449  -7328586.93545  23602921.647    23602928.241
  24003380.153    -5997837.48649  -4655569.33445  24003379.756    24003383.543
  23299792.937    -9684781.15449  -7520484.43646  23299792.329    23299797.186
  22068509.419   -19410274.38049 -15104307.71546  22068508.599    22068513.755
  20243605.828   -25726385.71049 -20028934.15748  20243605.264    20243607.209
  22992086.895   -12844729.01949  -9978826.55446  22992086.350    22992089.800
 03  4 13  1 20 30.0000000  0  8G31G 3G25G11G23G15G14G18
  22620108.255   -10640143.52849  -8263134.41046  22620107.765    22620112.213
  22926312.521   -11502975.19649  -8938580.42446  22926312.084    22926317.391
  23584383.846    -9536152.19449  -7404496.97745  23584383.461    23584390.004
  23984903.772    -6094930.99649  -4731226.52245  23984903.397    23984907.089
  23310511.632    -9628454.05749  -7476593.23546  23310511.039    23310515.937
  22085023.727   -19323491.63749 -15036684.84646  22085022.897    22085028.026
  20246375.617   -25711829.95749 -20017592.00648  20246375.106    20246377.038
  23004765.420   -12778102.97049  -9926910.18846  23004764.902    23004768.331
 03  4 13  1 21  0.0000000  0  8G31G 3G25G11G23G15G14G18
  22627478.879   -10601410.55849  -8232952.89646  22627478.373    22627482.865
  22940183.932   -11430080.50449  -8881779.42546  22940183.512    22940188.830
  23565859.921    -9633495.16749  -7480348.48845  23565859.625    23565866.110
  23966451.463    -6191898.56149  -4806785.57045  23966451.021    23966454.567
  23321240.836    -9572071.93049  -7432659.15746  23321240.221    23321245.160
  22101601.211   -19236376.66349 -14968803.10046  22101600.390    22101605.465
  20249236.300   -25696797.13149 -20005878.10348  20249235.786    20249237.700
  23017461.086   -12711386.70649  -9874923.53546  23017460.613    23017464.087
 03  4 13  1 21 30.0000000  0  8G31G 3G25G11G23G15G14G18
  22634939.985   -10562202.28749  -8202401.02146  22634939.497    22634943.958
  22954105.713   -11356921.05949  -8824772.11446  22954105.313    22954110.692
  23547351.242    -9730758.40949  -7556137.85345  23547350.869    23547357.306
  23948023.865    -6288735.98449  -4882243.20845  23948023.329    23948026.882
  23331980.942    -9515632.53349  -7388680.44046  23331980.356    23331985.257
  22118242.002   -19148928.90749 -14900662.03246  22118241.200    22118246.291
  20252187.877   -25681286.61549 -19993791.97448  20252187.342    20252189.240
  23030174.449   -12644578.12549  -9822864.95446  23030173.932    23030177.338
 03  4 13  1 22  0.0000000  0  8G31G 3G25G11G23G15G14G18
  22642490.957   -10522521.90749  -8171481.25546  22642490.450    22642494.933
  22968077.128   -11283500.84949  -8767561.61646  22968076.731    22968082.131
  23528858.053    -9827939.87649  -7631863.52045  23528857.741    23528864.142
  23929621.030    -6385442.42049  -4957598.78445  23929620.629    23929624.221
  23342731.598    -9459136.98049  -7344657.96646  23342731.093    23342736.026
  22134945.583   -19061151.11849 -14832263.80146  22134944.797    22134949.897
  20255229.778   -25665301.13749 -19981335.74748  20255229.227    20255231.150
  23042904.945   -12577678.76549  -9770735.61346  23042904.449    23042908.000
 03  4 13  1 22 30.0000000  0  8G31G 3G25G11G23G15G14G18
  22650131.600   -10482370.07849  -8140194.14646  22650131.091    22650135.593
  22982097.871   -11209821.20649  -8710148.97046  22982097.555    22982102.911
  23510381.153    -9925035.74649  -7707522.49046  23510380.912    23510387.278
  23911243.809    -6482014.44849  -5032849.63445  23911243.451    23911247.168
  23353493.464    -9402583.41249  -7300590.28946  23353492.913    23353497.861
  22151711.942   -18973043.37249 -14763608.46746  22151711.189    22151716.301
  20258362.067   -25648840.74849 -19968509.46048  20258361.528    20258363.459
  23055653.139   -12510686.83049  -9718534.15746  23055652.674    23055656.150
 03  4 13  1 23  0.0000000  0  8G31G 3G25G11G23G15G14G18
  22657861.280   -10441750.42349  -8108542.48646  22657860.780    22657865.248
  22996167.248   -11135886.61049  -8652537.64446  22996166.895    22996172.223
  23491920.836   -10022044.64249  -7783113.67046  23491920.652    23491926.883
  23892892.432    -6578451.20249  -5107995.08945  23892892.035    23892895.794
  23364266.140    -9345973.10549  -7256478.39546  23364265.585    23364270.493
  22168540.653   -18884608.47049 -14694698.19346  22168539.859    22168544.951
  20261584.235   -25631908.15749 -19955315.21948  20261583.697    20261585.600
  23068418.594   -12443604.26549  -9666262.05046  23068418.097    23068421.475
 03  4 13  1 23 30.0000000  0  8G31G 3G25G11G23G15G14G18
  22665679.654   -10400664.77349  -8076527.71546  22665679.157    22665683.636
  23010284.566   -11061699.83449  -8594729.81646  23010284.191    23010289.506
  23473477.779   -10118963.09349  -7858634.39446  23473477.460    23473483.688
  23874567.380    -6674750.19349  -5183033.20245  23874567.051    23874570.620
  23375049.607    -9289305.44749  -7212321.82046  23375049.010    23375053.993
  22185431.311   -18795847.57049 -14625533.90746  22185430.536    22185435.637
  20264896.009   -25614504.64449 -19941754.03448  20264895.465    20264897.373
  23081201.370   -12376430.56349  -9613918.95346  23081200.877    23081204.294
 03  4 13  1 24  0.0000000  0  8G31G 3G25G11G23G15G14G18
  22673586.172   -10359115.50649  -8044151.68346  22673585.703    22673590.203
  23024449.303   -10987263.62349  -8536727.64046  23024448.955    23024454.284
  23455052.415   -10215788.68349  -7934082.73846  23455052.026    23455058.235
  23856268.886    -6770909.33949  -5257962.33445  23856268.590    23856272.061
  23385844.109    -9232580.40749  -7168120.53146  23385843.507    23385848.501
  22202383.681   -18706762.28749 -14556116.84446  22202382.900    22202388.060
  20268297.103   -25596631.69749 -19927827.04948  20268296.570    20268298.490
  23094001.404   -12309165.87349  -9561504.94846  23094000.975    23094004.297
 03  4 13  1 24 30.0000000  0  8G31G 3G25G11G23G15G14G18
  22681580.927   -10317103.26149  -8011414.89346  22681580.418    22681584.887
  23038661.337   -10912579.29849  -8478532.11446  23038660.967    23038666.192
  23436645.425   -10312517.24649  -8009455.49446  23436645.078    23436651.290
  23837997.669    -6866925.01149  -5332779.66245  23837997.398    23838000.826
  23396649.760    -9175796.27149  -7123873.18246  23396649.176    23396654.217
  22219397.723   -18617352.74349 -14486447.10946  22219397.011    22219402.197
  20271787.501   -25578289.53449 -19913534.44848  20271786.984    20271788.882
  23106819.081   -12241808.88849  -9509019.03546  23106818.613    23106821.992
 03  4 13  1 25  0.0000000  0  8G31G 3G25G11G23G15G14G18
  22689662.783   -10274632.66249  -7978320.94246  22689662.303    22689666.742
  23052919.548   -10837652.17649  -8420147.40046  23052919.166    23052924.465
  23418256.986   -10409148.45449  -8084752.38846  23418256.659    23418262.790
  23819753.764    -6962797.18549  -5407485.19145  23819753.408    23819756.921
  23407466.394    -9118954.95649  -7079581.29346  23407465.698    23407470.750
  22236472.923   -18527622.49049 -14416527.48846  22236472.141    22236477.310
  20275366.449   -25559481.94549 -19898879.17248  20275365.916    20275367.838
  23119653.799   -12174361.96349  -9456463.02646  23119653.337    23119656.759
 03  4 13  1 25 30.0000000  0  8G31G 3G25G11G23G15G14G18
  22697831.937   -10231703.71949  -7944869.84346  22697831.408    22697835.896
  23067223.846   -10762483.16349  -8361574.18846  23067223.433    23067228.755
  23399887.987   -10505677.39549  -8159969.59446  23399887.665    23399893.823
  23801537.975    -7058521.78549  -5482075.71045  23801537.548    23801541.113
  23418294.264    -9062054.21649  -7035243.07946  23418293.563    23418298.628
  22253609.252   -18437571.09349 -14346357.61846  22253608.427    22253613.582
  20279034.076   -25540208.34249 -19883860.77248  20279033.547    20279035.476
  23132506.103   -12106822.97149  -9403835.28146  23132505.600    23132508.951
 03  4 13  1 26  0.0000000  0  8G31G 3G25G11G23G15G14G18
  22706087.660   -10188319.54849  -7911064.02646  22706087.133    22706091.635
  23081573.322   -10687076.21949  -8302815.58346  23081572.919    23081578.250
  23381538.803   -10602102.08649  -8235105.56346  23381538.518    23381544.647
  23783350.532    -7154097.07049  -5556549.88045  23783350.180    23783353.603
  23429133.262    -9005094.61849  -6990859.01446  23429132.649    23429137.571
  22270806.068   -18347200.92549 -14275939.35846  22270805.262    22270810.482
  20282789.973   -25520470.96949 -19868480.99148  20282789.427    20282791.376
  23145375.752   -12039192.87749  -9351136.54246  23145375.230    23145378.636
 03  4 13  1 26 30.0000000  0  8G31G 3G25G11G23G15G14G18
  22714429.621   -10144482.37749  -7876905.20946  22714429.078    22714433.658
  23095967.477   -10611434.31149  -8243873.89646  23095967.074    23095972.453
  23363210.044   -10698419.51149  -8310157.94846  23363209.767    23363215.901
  23765191.900    -7249520.97749  -5630906.10145  23765191.550    23765195.041
  23439983.553    -8948075.73249  -6946428.76046  23439982.987    23439987.930
  22288063.302   -18256513.28849 -14205273.71446  22288062.525    22288067.828
  20286633.779   -25500271.47449 -19852741.11748  20286633.236    20286635.188
  23158262.694   -11971471.51149  -9298366.68946  23158262.199    23158265.586
 03  4 13  1 27  0.0000000  0  8G31G 3G25G11G23G15G14G18
  22722857.214   -10100195.21049  -7842395.76346  22722856.703    22722861.260
  23110405.749   -10535560.77849  -8184751.71946  23110405.369    23110410.779
  23344902.133   -10794627.89849  -8385125.39146  23344901.821    23344907.898
  23747062.408    -7344792.08949  -5705143.27645  23747061.961    23747065.498
  23450845.101    -8890998.02849  -6901952.65546  23450844.478    23450849.458
  22305380.654   -18165510.24349 -14134362.30046  22305379.887    22305385.192
  20290565.105   -25479611.91849 -19836642.76548  20290564.604    20290566.538
  23171166.843   -11903659.67149  -9245526.35046  23171166.365    23171169.812
 03  4 13  1 27 30.0000000  0  8G31G 3G25G11G23G15G14G18
  22731370.190   -10055459.26149  -7807536.60146  22731369.681    22731374.257
  23124887.833   -10459457.28249  -8125450.34746  23124887.433    23124892.900
  23326615.650   -10890723.27749  -8460004.78046  23326615.411    23326621.390
  23728962.504    -7439907.09649  -5779258.79045  23728962.061    23728965.593
  23461718.143    -8833860.17649  -6857429.68146  23461717.471    23461722.470
  22322758.003   -18074192.43749 -14063205.62646  22322757.137    22322762.462
  20294583.945   -25458492.89249 -19820186.37348  20294583.452    20294585.376
  23184088.525   -11835756.44449  -9192614.77046  23184087.980    23184091.437
 03  4 13  1 28  0.0000000  0  8G31G 3G25G11G23G15G14G18
  22739968.061   -10010277.45649  -7772330.03446  22739967.498    22739972.080
  23139412.929   -10383127.75649  -8065972.85246  23139412.517    23139417.996
  23308351.178   -10986703.06349  -8534794.10346  23308350.935    23308356.918
  23710892.651    -7534864.33149  -5853251.36245  23710892.281    23710895.781
  23472602.559    -8776662.45649  -6812860.08146  23472601.886    23472606.925
  22340194.746   -17982562.04749 -13991805.38646  22340193.856    22340199.153
  20298689.812   -25436916.52149 -19803373.61248  20298689.300    20298691.230
  23197027.376   -11767762.34549  -9139632.40546  23197026.853    23197030.313
 03  4 13  1 28 30.0000000  0  8G31G 3G25G11G23G15G14G18
  22748650.251    -9964652.35649  -7736778.03946  22748649.678    22748654.261
  23153980.393   -10306575.43049  -8006321.75146  23153980.003    23153985.465
  23290109.111   -11082565.03949  -8609491.61746  23290108.883    23290114.847
  23692853.262    -7629661.73849  -5927119.40045  23692852.909    23692856.440
  23483498.269    -8719404.94049  -6768243.87746  23483497.662    23483502.682
  22357690.610   -17890620.77449 -13920162.89046  22357689.754    22357695.104
  20302882.257   -25414884.88849 -19786206.10148  20302881.757    20302883.672
  23209983.431   -11699677.86449  -9086579.62046  23209982.904    23209986.411
 03  4 13  1 29  0.0000000  0  8G31G 3G25G11G23G15G14G18
  22757416.495    -9918585.49349  -7700881.82346  22757415.929    22757420.507
  23168589.960   -10229802.13249  -7946498.46746  23168589.549    23168595.021
  23271890.285   -11178305.23249  -8684094.23746  23271889.986    23271895.940
  23674844.965    -7724296.41549  -6000860.63646  23674844.516    23674848.053
  23494405.614    -8662086.65949  -6723580.31946  23494405.012    23494410.084
  22375245.435   -17798369.38549 -13848278.75846  22375244.621    22375249.969
  20307161.243   -25392398.53849 -19768684.26548  20307160.745    20307162.657
  23222956.889   -11631502.07349  -9033455.68146  23222956.402    23222959.901
 03  4 13  1 29 30.0000000  0  8G31G 3G25G11G23G15G14G18
  22766266.265    -9872079.49049  -7664643.41446  22766265.722    22766270.350
  23183240.888   -10152811.12349  -7886505.53446  23183240.497    23183245.973
  23253694.800   -11273921.87849  -8758600.59046  23253694.662    23253700.504
  23656867.948    -7818766.25749  -6074473.43546  23656867.482    23656870.878
  23505324.534    -8604707.53749  -6678869.35846  23505323.953    23505329.021
  22392859.018   -17705809.85949 -13776154.51746  22392858.197    22392863.531
  20311526.372   -25369459.57749 -19750809.74948  20311525.863    20311527.788
  23235947.644   -11563235.37649  -8980260.91146  23235947.128    23235950.669
 03  4 13  1 30  0.0000000  0  8G31G 3G25G11G23G15G14G18
  22775199.009    -9825137.37649  -7628065.17446  22775198.468    22775203.149
  23197932.609   -10075606.15949  -7826345.89046  23197932.205    23197937.728
  23235523.524   -11369412.21149  -8833008.51546  23235523.402    23235529.180
  23638922.601    -7913069.66149  -6147956.53746  23638922.155    23638925.469
  23516254.970    -8547267.88849  -6634111.24246  23516254.406    23516259.425
  22410530.778   -17612944.30749 -13703791.80346  22410529.963    22410535.323
  20315977.224   -25346070.15149 -19732584.21548  20315976.732    20315978.657
  23248955.566   -11494878.47849  -8926995.83546  23248955.083    23248958.619
 03  4 13  1 30 30.0000000  0  8G31G 3G25G11G23G15G14G18
  22784214.466    -9777761.02349  -7591148.57246  22784213.927    22784218.657
  23212664.434    -9998189.67049  -7766021.42346  23212664.037    23212669.585
  23217376.972   -11464772.96049  -8907315.46746  23217376.765    23217382.521
  23621009.304    -8007204.01049  -6221307.89745  23621008.827    23621012.176
  23527197.124    -8489766.89949  -6589305.32846  23527196.521    23527201.593
  22428260.569   -17519773.87649 -13631191.52846  22428259.729    22428265.105
  20320513.576   -25322231.36449 -19714008.53748  20320513.072    20320515.024
  23261980.777   -11426430.86749  -8873660.08946  23261980.226    23261983.855
 03  4 13  1 31  0.0000000  0  8G31G 3G25G11G23G15G14G18
  22793312.284    -9729951.97349  -7553894.80746  22793311.728    22793316.400
  23227436.270    -9920563.71249  -7705533.73046  23227435.890    23227441.411
  23199255.671   -11560000.63549  -8981518.72746  23199255.440    23199261.142
  23603128.685    -8101166.12249  -6294525.05045  23603128.235    23603131.675
  23538151.170    -8432203.52249  -6544450.79546  23538150.567    23538155.516
  22446048.235   -17426299.27149 -13558354.22946  22446047.394    22446052.796
  20325135.319   -25297944.02649 -19695083.33448  20325134.822    20325136.789
  23275023.334   -11357891.55449  -8820252.88246  23275022.846    23275026.446
 03  4 13  1 31 30.0000000  0  8G31G 3G25G11G23G15G14G18
  22802491.679    -9681714.01249  -7516306.82746  22802491.144    22802495.801
  23242247.126    -9842732.54849  -7644886.14846  23242246.717    23242252.238
  23181159.928   -11655093.89949  -9055617.24746  23181159.697    23181165.409
  23585281.205    -8194954.91849  -6367607.16145  23585280.840    23585284.253
  23549116.844    -8374578.52649  -6499548.24546  23549116.266    23549121.204
  22463893.250   -17332523.45149 -13485282.22546  22463892.401    22463897.808
  20329841.820   -25273211.13749 -19675810.95548  20329841.304    20329843.302
  23288083.216   -11289261.88149  -8766775.26846  23288082.686    23288086.308
 03  4 13  1 32  0.0000000  0  8G31G 3G25G11G23G15G14G18
  22811752.251    -9633049.45349  -7478386.42346  22811751.712    22811756.363
  23257096.365    -9764699.16949  -7584080.97946  23257095.978    23257101.563
  23163090.450   -11750049.66749  -9129608.61946  23163090.167    23163095.829
  23567467.200    -8288568.12749  -6440552.43946  23567466.823    23567470.207
  23560094.349    -8316891.63749  -6454597.47146  23560093.746    23560098.693
  22481795.275   -17238447.83749 -13411976.60746  22481794.418    22481799.814
  20334632.792   -25248034.33249 -19656192.65648  20334632.287    20334634.281
  23301160.202   -11220541.97049  -8713227.33246  23301159.663    23301163.270
 03  4 13  1 32 30.0000000  0  8G31G 3G25G11G23G15G14G18
  22821093.735    -9583959.68049  -7440134.69146  22821093.176    22821097.852
  23271983.823    -9686465.25849  -7523119.55546  23271983.440    23271989.022
  23145047.709   -11844864.19849  -9203489.94346  23145047.427    23145053.131
  23549687.174    -8382002.60449  -6513358.46346  23549686.751    23549690.132
  23571083.777    -8259141.50349  -6409597.41746  23571083.159    23571088.274
  22499754.243   -17144073.10549 -13338437.91346  22499753.365    22499758.775
  20339508.086   -25222414.44049 -19636229.10148  20339507.582    20339509.567
  23314254.519   -11151730.78549  -8659608.27646  23314253.988    23314257.613
 03  4 13  1 33  0.0000000  0  8G31G 3G25G11G23G15G14G18
  22830515.590    -9534447.56649  -7401553.86446  22830515.113    22830519.722
  23286908.823    -9608034.11649  -7462004.44946  23286908.438    23286914.040
  23127032.299   -11939535.02849  -9277259.30946  23127032.119    23127037.710
  23531941.471    -8475256.27249  -6586023.60345  23531941.077    23531944.337
  23582085.409    -8201328.12349  -6364548.07046  23582084.802    23582089.746
  22517769.669   -17049401.32549 -13264667.75046  22517768.823    22517774.248
  20344467.379   -25196353.33249 -19615921.74148  20344466.859    20344468.861
  23327366.117   -11082828.79049  -8605918.46046  23327365.601    23327369.320
 03  4 13  1 33 30.0000000  0  8G31G 3G25G11G23G15G14G18
  22840017.448    -9484515.34649  -7362645.69146  22840016.905    22840021.516
  23301870.851    -9529408.55949  -7400737.86146  23301870.421    23301876.051
  23109044.816   -12034059.21649  -9350914.40646  23109044.661    23109050.225
  23514230.622    -8568326.77449  -6658546.01245  23514230.227    23514233.470
  23593099.182    -8143451.08349  -6319449.14046  23593098.577    23593103.531
  22535841.372   -16954434.08649 -13190667.37346  22535840.502    22535846.007
  20349510.285   -25169852.52449 -19595271.76348  20349509.768    20349511.784
  23340495.178   -11013835.57149  -8552157.57346  23340494.651    23340498.316
 03  4 13  1 34  0.0000000  0  8G31G 3G25G11G23G15G14G18
  22849598.206    -9434168.18749  -7323414.17846  22849597.643    22849602.261
  23316868.645    -9450594.24749  -7339324.16846  23316868.288    23316873.947
  23091085.288   -12128436.39549  -9424454.93846  23091085.185    23091090.707
  23496554.701    -8661214.15749  -6730925.73546  23496554.364    23496557.593
  23604124.525    -8085512.65749  -6274302.36746  23604123.855    23604128.846
  22553968.468   -16859175.58649 -13116440.03146  22553967.653    22553973.147
  20354636.066   -25142916.19949 -19574282.41048  20354635.579    20354637.579
  23353641.107   -10944753.74149  -8498327.62946  23353640.511    23353644.199
 03  4 13  1 34 30.0000000  0  8G31G 3G25G11G23G15G14G18
  22859258.168    -9383404.88049  -7283858.40146  22859257.645    22859262.201
  23331902.673    -9371590.45949  -7277762.85346  23331902.250    23331907.925
  23073155.013   -12222660.25349  -9497876.00746  23073154.907    23073160.362
  23478914.674    -8753913.11149  -6803158.61846  23478914.346    23478917.589
  23615162.229    -8027509.01449  -6229104.75346  23615161.594    23615166.549
  22572151.437   -16763623.71849 -13041984.08946  22572150.625    22572156.127
  20359845.071   -25115542.80849 -19552952.49548  20359844.563    20359846.552
  23366804.345   -10875580.06049  -8444426.10746  23366803.748    23366807.543
 03  4 13  1 35  0.0000000  0  8G31G 3G25G11G23G15G14G18
  22868996.453    -9332230.18849  -7243982.05746  22868995.914    22869000.499
  23346971.758    -9292402.20649  -7216057.79046  23346971.358    23346977.042
  23055254.047   -12316730.45049  -9571177.34546  23055253.840    23055259.260
  23461310.511    -8846423.04349  -6875244.23746  23461310.183    23461313.393
  23626212.037    -7969441.97249  -6183857.74946  23626211.444    23626216.417
  22590389.450   -16667782.43249 -12967302.61146  22590388.639    22590394.202
  20365136.570   -25087735.87749 -19531284.74948  20365136.060    20365138.042
  23379984.790   -10806316.46349  -8390454.52646  23379984.254    23379988.027
 03  4 13  1 35 30.0000000  0  8G31G 3G25G11G23G15G14G18
  22878812.695    -9280645.76449  -7203786.44846  22878812.158    22878816.688
  23362075.490    -9213031.73849  -7154210.75046  23362075.052    23362080.787
  23037383.061   -12410642.99549  -9644355.84546  23037382.802    23037388.174
  23443743.116    -8938740.38849  -6947179.79446  23443742.755    23443745.941
  23637274.152    -7911310.40449  -6138560.47546  23637273.565    23637278.562
  22608682.333   -16571652.59049 -12892396.31346  22608681.586    22608687.158
  20370510.315   -25059496.49549 -19509280.03748  20370509.800    20370511.805
  23393182.619   -10736961.66449  -8336411.87345  23393182.107    23393185.883
 03  4 13  1 36  0.0000000  0  8G31G 3G25G11G23G15G14G18
  22888706.306    -9228654.70649  -7163273.98346  22888705.818    22888710.347
  23377213.252    -9133482.59249  -7092224.47246  23377212.782    23377218.466
  23019542.366   -12504395.82649  -9717409.87646  23019542.093    23019547.473
  23426212.561    -9030863.89849  -7018964.30646  23426212.181    23426215.386
  23648348.499    -7853114.52049  -6093213.07646  23648347.910    23648353.005
  22627029.815   -16475236.29249 -12817266.80046  22627029.063    22627034.650
  20375965.899   -25030827.09049 -19486940.24148  20375965.383    20375967.403
  23406397.642   -10667516.49749  -8282298.82745  23406397.059    23406400.950
 03  4 13  1 36 30.0000000  0  8G31G 3G25G11G23G15G14G18
  22898676.819    -9176259.39849  -7122446.50946  22898676.326    22898680.940
  23392384.475    -9053757.53449  -7030101.12346  23392384.069    23392389.717
  23001732.610   -12597985.86149  -9790337.05546  23001732.393    23001737.785
  23408719.324    -9122791.40449  -7090596.09546  23408718.941    23408722.136
  23659435.094    -7794853.73649  -6047815.10945  23659434.564    23659439.660
  22645431.566   -16378534.89549 -12741915.13546  22645430.784    22645436.322
  20381503.062   -25001729.11349 -19464266.48548  20381502.549    20381504.569
  23419629.864   -10597981.08549  -8228115.42545  23419629.318    23419633.121
 03  4 13  1 37  0.0000000  0  8G31G 3G25G11G23G15G14G18
  22908723.983    -9123461.39649  -7081305.24946  22908723.460    22908728.110
  23407588.759    -8973858.64349  -6967842.32146  23407588.393    23407594.073
  22983954.722   -12691408.94749  -9863134.15046  22983954.500    22983959.834
  23391264.001    -9214519.20249  -7162072.26046  23391263.586    23391266.816
  23670534.323    -7736526.76849  -6002365.57445  23670533.820    23670538.908
  22663887.355   -16281549.35949 -12666342.04346  22663886.578    22663892.121
  20387121.599   -24972203.43149 -19441259.45548  20387121.090    20387123.104
  23432879.518   -10528354.21949  -8173860.77745  23432878.925    23432882.694
 03  4 13  1 37 30.0000000  0  8G31G 3G25G11G23G15G14G18
  22918847.018    -9070264.61749  -7039853.26246  22918846.473    22918851.108
  23422825.346    -8893790.19949  -6905451.39746  23422824.956    23422830.720
  22966208.899   -12784663.98549  -9935800.30046  22966208.585    22966213.853
  23373846.937    -9306046.45049  -7233392.15546  23373846.563    23373849.774
  23681645.981    -7678134.61449  -5956865.24345  23681645.458    23681650.705
  22682396.695   -16184282.69449 -12590549.91746  22682395.864    22682401.423
  20392820.960   -24942253.05949 -19417921.50348  20392820.454    20392822.469
  23446146.249   -10458637.26049  -8119535.93645  23446145.710    23446149.429
 03  4 13  1 38  0.0000000  0  8G31G 3G25G11G23G15G14G18
  22929045.579    -9016670.92349  -6998091.98146  22929044.993    22929049.704
  23438093.729    -8813554.29449  -6842929.98346  23438093.405    23438099.218
  22948495.606   -12877747.59049 -10008332.86646  22948495.268    22948500.511
  23356468.617    -9397370.28249  -7304553.54246  23356468.263    23356471.475
  23692770.234    -7619676.26349  -5911313.33145  23692769.706    23692774.982
  22700959.137   -16086736.05749 -12514539.61846  22700958.394    22700964.013
  20398600.901   -24911879.08449 -19394253.46948  20398600.413    20398602.419
  23459430.278   -10388829.57949  -8065140.38445  23459429.734    23459433.482
 03  4 13  1 38 30.0000000  0  8G31G 3G25G11G23G15G14G18
  22939319.235    -8962682.47349  -6956023.09446  22939318.680    22939323.408
  23453393.557    -8733153.48649  -6780280.07846  23453393.224    23453399.006
  22930815.567   -12970656.33349 -10080729.17646  22930815.277    22930820.422
  23339129.536    -9488487.75349  -7375554.15146  23339129.187    23339132.326
  23703907.349    -7561150.92449  -5865709.21445  23703906.797    23703912.148
  22719574.762   -15988910.63749 -12438312.09046  22719574.036    22719579.672
  20404461.246   -24881082.94149 -19370256.47948  20404460.756    20404462.736
  23472731.554   -10318930.72149  -8010673.82445  23472731.096    23472734.762
 03  4 13  1 39  0.0000000  0  8G31G 3G25G11G23G15G14G18
  22949667.409    -8908302.65949  -6913649.26046  22949666.846    22949671.556
  23468724.040    -8652591.58549  -6717504.64846  23468723.690    23468729.485
  22913169.157   -13063388.21349 -10152987.66146  22913168.873    22913174.018
  23321829.963    -9579397.32049  -7446392.73146  23321829.623    23321832.748
  23715056.962    -7502559.14649  -5820053.33245  23715056.428    23715061.859
  22738242.960   -15890808.95049 -12361869.29246  22738242.243    22738247.862
  20410401.397   -24849867.07849 -19345932.42548  20410400.904    20410402.907
  23486050.143   -10248941.45449  -7956136.78645  23486049.626    23486053.375
 03  4 13  1 39 30.0000000  0  8G31G 3G25G11G23G15G14G18
  22960089.529    -8853534.13149  -6870972.52946  22960088.971    22960093.685
  23484084.737    -8571871.42449  -6654605.89346  23484084.346    23484090.146
  22895556.976   -13155940.40849 -10225106.13546  22895556.686    22895561.812
  23304570.328    -9670096.78349  -7517067.58846  23304570.012    23304573.147
  23726219.390    -7443900.57249  -5774345.39245  23726218.780    23726224.176
  22756963.411   -15792432.66449 -12285212.51346  22756962.662    22756968.301
  20416421.047   -24818233.55449 -19321282.92448  20416420.576    20416422.558
  23499385.858   -10178861.71449  -7901529.23945  23499385.265    23499389.098
 03  4 13  1 40  0.0000000  0  8G31G 3G25G11G23G15G14G18
  22970585.037    -8798380.16049  -6827995.45346  22970584.435    22970589.182
  23499474.729    -8490996.86149  -6591586.83846  23499474.322    23499480.147
  22877979.356   -13248311.14949 -10297083.22246  22877979.015    22877984.137
  23287351.136    -9760584.17949  -7587577.20946  23287350.743    23287353.936
  23737394.389    -7385175.43549  -5728585.60945  23737393.754    23737399.246
  22775735.578   -15693784.36049 -12208343.77446  22775734.837    22775740.519
  20422519.716   -24786184.95449 -19296309.99248  20422519.214    20422521.213
  23512738.652   -10108692.24849  -7846851.79645  23512738.130    23512741.979
 03  4 13  1 40 30.0000000  0  8G31G 3G25G11G23G15G14G18
  22981153.874    -8742840.57649  -6784717.90346  22981153.308    22981157.989
  23514894.041    -8409967.89649  -6528447.46446  23514893.638    23514899.560
  22860437.388   -13340494.41449 -10368914.20846  22860437.039    22860442.125
  23270173.204    -9850854.47649  -7657917.65846  23270172.844    23270175.962
  23748582.831    -7326380.53549  -5682771.43045  23748582.199    23748587.610
  22794559.789   -15594862.78449 -12131262.10446  22794559.025    22794564.713
  20428697.602   -24753720.14549 -19271012.74448  20428697.097    20428699.071
  23526109.027   -10038430.16849  -7792102.17545  23526108.624    23526112.427
 03  4 13  1 41  0.0000000  0  8G31G 3G25G11G23G15G14G18
  22991794.779    -8686922.37849  -6741145.31546  22991794.242    22991798.964
  23530341.393    -8328791.70049  -6465193.36546  23530341.024    23530346.903
  22842930.733   -13432491.78749 -10440600.36446  22842930.439    22842935.468
  23253036.272    -9940909.58349  -7728090.43146  23253035.958    23253038.979
  23759783.594    -7267519.87249  -5636906.05145  23759783.054    23759788.479
  22813434.840   -15495674.11949 -12053972.30246  22813434.048    22813439.755
  20434953.569   -24720844.90949 -19245395.67848  20434953.036    20434955.028
  23539496.354    -9968079.70249  -7737283.68445  23539495.936    23539499.784
 03  4 13  1 41 30.0000000  0  8G31G 3G25G11G23G15G14G18
  23002508.073    -8630623.95749  -6697276.47146  23002507.546    23002512.276
  23545817.057    -8247467.08549  -6401823.60946  23545816.720    23545822.568
  22825460.787   -13524296.28349 -10512136.20646  22825460.513    22825465.541
  23235941.431   -10030742.99649  -7798090.43846  23235941.132    23235944.202
  23770997.961    -7208588.98249  -5590985.91645  23770997.301    23771002.651
  22832361.208   -15396215.89249 -11976472.45346  22832360.466    22832366.100
  20441287.997   -24687557.20349 -19219457.20948  20441287.471    20441289.454
  23552901.387    -9897636.59249  -7682393.00545  23552900.946    23552904.739
 03  4 13  1 42  0.0000000  0  8G31G 3G25G11G23G15G14G18
  23013292.473    -8573951.83149  -6653116.41646  23013291.969    23013296.671
  23561319.715    -8166000.67049  -6338343.37546  23561319.358    23561325.210
  22808027.312   -13615909.06249 -10583522.68346  22808027.091    22808032.092
  23218888.617   -10120356.17149  -7867918.83946  23218888.328    23218891.422
  23782224.894    -7149591.20549  -5545013.68445  23782224.269    23782229.625
  22851337.807   -15296493.67749 -11898766.91646  22851336.978    22851342.688
  20447699.866   -24653862.56449 -19193201.64848  20447699.342    20447701.336
  23566323.157    -9827104.64749  -7627433.09945  23566322.665    23566326.576
 03  4 13  1 42 30.0000000  0  8G31G 3G25G11G23G15G14G18
  23024147.923    -8516906.13449  -6608665.27446  23024147.425    23024152.190
  23576849.207    -8084392.88549  -6274752.96346  23576848.887    23576854.653
  22790631.466   -13707324.55449 -10654755.40646  22790631.205    22790636.208
  23201878.576   -10209744.49749  -7937572.02646  23201878.264    23201881.356
  23793464.968    -7090523.71449  -5498987.11145  23793464.387    23793469.907
  22870364.818   -15196506.64149 -11820854.98846  22870363.997    22870369.709
  20454189.249   -24619760.44949 -19166628.57248  20454188.760    20454190.732
  23579762.347    -9756481.26649  -7572401.94445  23579761.891    23579765.863
 03  4 13  1 43  0.0000000  0  8G31G 3G25G11G23G15G14G18
  23035073.830    -8459490.00249  -6563925.48146  23035073.351    23035078.104
  23592404.978    -8002647.20149  -6211055.09346  23592404.568    23592410.370
  22773273.491   -13798540.64449 -10725832.77546  22773273.261    22773278.237
  23184911.681   -10298905.71749  -8007048.24346  23184911.380    23184914.488
  23804718.524    -7031386.51949  -5452906.23245  23804717.956    23804723.418
  22889441.751   -15096257.04449 -11742738.51646  22889440.939    22889446.617
  20460755.829   -24585252.98849 -19139739.64048  20460755.304    20460757.301
  23593218.961    -9685766.71949  -7517299.75545  23593218.505    23593222.371
 03  4 13  1 43 30.0000000  0  8G31G 3G25G11G23G15G14G18
  23046069.692    -8401706.55649  -6518899.47246  23046069.228    23046074.041
  23607986.285    -7920767.05349  -6147252.46046  23607985.891    23607991.774
  22755954.015   -13889554.87249 -10796752.84046  22755953.751    22755958.735
  23167988.410   -10387838.03549  -8076346.09646  23167988.056    23167991.166
  23815985.228    -6972179.80749  -5406771.17845  23815984.647    23815990.114
  22908568.257   -14995747.13549 -11664419.16046  22908567.418    22908573.061
  20467399.031   -24550342.57949 -19112536.72448  20467398.515    20467400.538
  23606692.725    -9614961.61049  -7462126.98145  23606692.297    23606696.207
 03  4 13  1 44  0.0000000  0  8G31G 3G25G11G23G15G14G18
  23057134.913    -8343558.53349  -6473589.37846  23057134.448    23057139.302
  23623592.710    -7838755.41649  -6083347.36046  23623592.297    23623598.155
  22738673.449   -13980364.61449 -10867513.56046  22738673.155    22738678.143
  23151109.116   -10476539.10149  -8145463.76346  23151108.761    23151111.860
  23827265.083    -6912903.14249  -5360581.61545  23827264.598    23827270.051
  22927743.871   -14894978.78949 -11585898.44846  22927743.014    22927748.725
  20474118.568   -24515031.22049 -19085021.38148  20474118.063    20474120.086
  23620183.900    -9544065.88249  -7406883.61245  23620183.397    23620187.254
 03  4 13  1 44 30.0000000  0  8G31G 3G25G11G23G15G14G18
  23068269.214    -8285047.80349  -6427996.65846  23068268.720    23068273.542
  23639223.628    -7756614.42649  -6019341.46746  23639223.257    23639229.141
  22721432.475   -14070966.17949 -10938112.09146  22721432.150    22721437.129
  23134274.464   -10565005.65049  -8214398.68446  23134274.095    23134277.220
  23838558.756    -6853555.38349  -5314336.65345  23838558.239    23838563.591
  22946968.456   -14793952.95749 -11507177.10146  22946967.615    22946973.397
  20480914.218   -24479319.90949 -19057194.39548  20480913.698    20480915.723
  23633692.411    -9473078.66949  -7351568.94645  23633691.926    23633695.743
 03  4 13  1 45  0.0000000  0  8G31G 3G25G11G23G15G14G18
  23079471.706    -8226178.33049  -6382124.40046  23079471.224    23079476.044
  23654878.473    -7674347.99449  -5955237.83246  23654878.108    23654884.053
  22704231.293   -14161358.14049 -11008547.27646  22704231.008    22704236.004
  23117484.594   -10653236.61349  -8283150.02946  23117484.239    23117487.382
  23849865.629    -6794137.26849  -5268036.87845  23849865.102    23849870.489
  22966241.413   -14692672.75049 -11428257.51846  22966240.633    22966246.432
  20487785.357   -24443211.73149 -19029058.15248  20487784.862    20487786.890
  23647217.931    -9402001.16049  -7296183.93345  23647217.512    23647221.353
 03  4 13  1 45 30.0000000  0  8G31G 3G25G11G23G15G14G18
  23090742.132    -8166952.24949  -6335974.25946  23090741.632    23090746.511
  23670556.638    -7591958.77149  -5891038.52146  23670556.255    23670562.231
  22687070.663   -14251536.90649 -11078816.35246  22687070.468    22687075.476
  23100740.125   -10741228.84849  -8351715.35046  23100739.810    23100742.974
  23861186.229    -6734647.90649  -5221681.56645  23861185.645    23861190.941
  22985562.664   -14591139.44049 -11349140.73546  22985561.806    22985567.636
  20494731.837   -24406707.82549 -19000613.55448  20494731.323    20494733.342
  23660760.963    -9330832.69049  -7240728.01945  23660760.487    23660764.234
 03  4 13  1 46  0.0000000  0  8G31G 3G25G11G23G15G14G18
  23102079.864    -8107372.59349  -6289548.61146  23102079.343    23102084.245
  23686257.613    -7509449.86249  -5826745.94046  23686257.185    23686263.228
  22669951.286   -14341499.83049 -11148917.24846  22669951.059    22669955.959
  23084041.530   -10828980.44749  -8420093.17546  23084041.191    23084044.321
  23872520.203    -6675087.20149  -5175270.67645  23872519.689    23872525.044
  23004931.713   -14489354.90549 -11269828.16646  23004930.848    23004936.639
  20501753.201   -24369810.44549 -18971862.35348  20501752.692    20501754.711
  23674321.151    -9259573.51449  -7185201.43745  23674320.709    23674324.473
 03  4 13  1 46 30.0000000  0  8G31G 3G25G11G23G15G14G18
  23113484.379    -8047441.48949  -6242849.11346  23113483.878    23113488.825
  23701980.913    -7426823.38349  -5762361.75546  23701980.551    23701986.575
  22652873.476   -14431243.92849 -11218847.62646  22652873.232    22652878.107
  23067389.241   -10916488.58149  -8488281.29846  23067388.919    23067392.016
  23883868.019    -6615454.18549  -5128803.43845  23883867.532    23883872.847
  23024348.266   -14387320.46349 -11190320.89746  23024347.376    23024353.235
  20508849.160   -24332520.89949 -18942805.57348  20508848.640    20508850.658
  23687898.650    -9188223.15549  -7129603.80945  23687898.269    23687902.048
 03  4 13  1 47  0.0000000  0  8G31G 3G25G11G23G15G14G18
  23124955.238    -7987161.82549  -6195877.99046  23124954.737    23124959.736
  23717726.001    -7344082.57449  -5697888.47945  23717725.610    23717731.684
  22635837.882   -14520766.36149 -11288605.28146  22635837.606    22635842.457
  23050783.784   -11003750.71649  -8556277.72246  23050783.474    23050786.463
  23895229.603    -6555748.59949  -5082279.65245  23895229.058    23895234.374
  23043811.883   -14285038.13249 -11110620.45446  23043811.111    23043816.937
  20516019.346   -24294841.28949 -18913444.84348  20516018.836    20516020.868
  23701493.550    -9116781.49249  -7073935.02445  23701493.168    23701497.037
 03  4 13  1 47 30.0000000  0  8G31G 3G25G11G23G15G14G18
  23136491.813    -7926536.97449  -6148637.91146  23136491.300    23136496.321
  23733492.264    -7261230.89049  -5633328.81145  23733491.875    23733498.002
  22618844.901   -14610064.57449 -11358188.22246  22618844.640    22618849.503
  23034225.499   -11090765.18649  -8624081.17846  23034225.128    23034228.140
  23906604.924    -6495970.82649  -5035699.60945  23906604.422    23906609.689
  23063322.365   -14182510.28449 -11030728.68046  23063321.575    23063327.387
  20523263.281   -24256774.22849 -18883782.20848  20523262.781    20523264.809
  23715105.787    -9045249.13949  -7018195.58345  23715105.255    23715109.190
 03  4 13  1 48  0.0000000  0  8G31G 3G25G11G23G15G14G18
  23148093.627    -7865569.29749  -6101130.68246  23148093.088    23148098.109
  23749279.120    -7178270.57449  -5568684.49045  23749278.736    23749284.965
  22601895.229   -14699135.60649 -11427594.12846  22601894.914    22601899.776
  23017714.898   -11177529.22849  -8691689.48146  23017714.518    23017717.508
  23917994.246    -6436119.86349  -4989062.54945  23917993.727    23917999.007
  23082879.348   -14079738.32049 -10950646.72246  23082878.545    23082884.305
  20530580.686   -24218321.06349 -18853818.71248  20530580.165    20530582.211
  23728735.315    -8973625.68149  -6962385.13845  23728734.778    23728738.778
 03  4 13  1 48 30.0000000  0  8G31G 3G25G11G23G15G14G18
  23159759.931    -7804262.34249  -6053359.09346  23159759.392    23159764.449
  23765085.856    -7095205.52249  -5503958.56245  23765085.444    23765091.774
  22584989.033   -14787977.66949 -11496821.63046  22584988.748    22584993.609
  23001252.189   -11264041.20249  -8759101.38546  23001251.805    23001254.752
  23929397.354    -6376196.06049  -4942368.73945  23929396.923    23929402.202
  23102482.203   -13976724.85049 -10870376.54946  23102481.425    23102487.216
  20537971.040   -24179484.40049 -18823556.38348  20537970.519    20537972.575
  23742382.117    -8901911.66849  -6906504.16145  23742381.631    23742385.585
 03  4 13  1 49  0.0000000  0  8G31G 3G25G11G23G15G14G18
  23171490.564    -7742617.72149  -6005324.37146  23171489.991    23171495.065
  23780912.316    -7012037.52249  -5439152.41845  23780911.837    23780918.242
  22568127.211   -14876586.78549 -11565867.60846  22568126.931    22568131.754
  22984838.120   -11350297.39249  -8826313.96746  22984837.747    22984840.624
  23940814.720    -6316197.90449  -4895616.96845  23940814.209    23940819.492
  23122130.758   -13873470.64349 -10789918.79646  23122130.063    23122135.925
  20545434.197   -24140265.19449 -18792995.97048  20545433.692    20545435.780
  23756046.279    -8830105.98049  -6850551.72445  23756045.832    23756049.774
 03  4 13  1 49 30.0000000  0  8G31G 3G25G11G23G15G14G18
  23183284.761    -7680638.87849  -5957029.23546  23183284.226    23183289.270
  23796757.638    -6928770.20749  -5374268.88645  23796757.138    23796763.503
  22551310.116   -14964960.68549 -11634730.31246  22551309.863    22551314.646
  22968473.126   -11436296.10049  -8893325.91746  22968472.747    22968475.621
  23952246.111    -6256125.72249  -4848807.54545  23952245.606    23952250.893
  23141824.634   -13769978.17349 -10709275.39746  23141824.048    23141829.955
  20552969.663   -24100665.94449 -18762139.42248  20552969.146    20552971.218
  23769727.763    -8758209.34949  -6794528.43545  23769727.280    23769731.210
 03  4 13  1 50  0.0000000  0  8G31G 3G25G11G23G15G14G18
  23195141.884    -7618329.78749  -5908476.74846  23195141.338    23195146.324
  23812621.104    -6845407.46549  -5309310.99645  23812620.665    23812627.028
  22534538.082   -15053097.72649 -11703408.44346  22534537.904    22534542.642
  22952157.306   -11522036.13049  -8960136.29046  22952156.922    22952159.862
  23963691.471    -6195980.20649  -4801940.95145  23963690.962    23963696.234
  23161563.431   -13666250.49649 -10628448.71046  23161562.844    23161568.737
  20560576.928   -24060689.60649 -18730989.03448  20560576.429    20560578.496
  23783426.537    -8686222.44049  -6738434.78645  23783425.947    23783429.980
 03  4 13  1 50 30.0000000  0  8G31G 3G25G11G23G15G14G18
  23207061.548    -7555691.65949  -5859667.87246  23207061.006    23207065.991
  23828502.487    -6761950.66049  -5244279.80645  23828502.071    23828508.433
  22517812.096   -15140993.71349 -11771898.73546  22517811.783    22517816.547
  22935891.445   -11607513.70949  -9026742.15046  22935891.093    22935894.025
  23975151.357    -6135759.24349  -4755015.59345  23975150.788    23975155.924
  23181347.067   -13562288.10249 -10547439.14546  23181346.318    23181352.149
  20568255.871   -24020336.63549 -18699545.16448  20568255.363    20568257.416
  23797142.633    -8614143.78549  -6682269.65645  23797142.041    23797146.209
 03  4 13  1 51  0.0000000  0  8G31G 3G25G11G23G15G14G18
  23219043.278    -7492727.12749  -5810604.64846  23219042.791    23219047.836
  23844401.311    -6678402.70349  -5179177.59645  23844400.774    23844407.170
  22501132.523   -15228645.55449 -11840198.78846  22501132.130    22501136.869
  22919676.039   -11692725.86149  -9093141.19946  22919675.708    22919678.673
  23986625.459    -6075462.57249  -4708031.23145  23986624.905    23986630.098
  23201174.888   -13458092.52349 -10466247.85046  23201174.142    23201179.998
  20576006.156   -23979608.60649 -18667809.04448  20576005.628    20576007.696
  23810876.277    -8541973.20449  -6626032.90145  23810875.683    23810879.925
 03  4 13  1 51 30.0000000  0  8G31G 3G25G11G23G15G14G18
  23231086.452    -7429440.34449  -5761290.33246  23231085.954    23231090.976
  23860316.471    -6594767.83549  -5114007.66645  23860315.937    23860322.478
  22484499.561   -15316051.77749 -11908307.44646  22484499.225    22484503.938
  22903511.368   -11777671.66849  -9159332.71146  22903511.029    22903513.943
  23998113.754    -6015090.97949  -4660988.48345  23998113.252    23998118.493
  23221046.409   -13353666.92549 -10384877.34446  23221045.695    23221051.645
  20583827.122   -23938509.16549 -18635783.51048  20583826.593    20583828.676
  23824627.194    -8469711.95249  -6569725.47545  23824626.634    23824630.789
 03  4 13  1 52  0.0000000  0  8G31G 3G25G11G23G15G14G18
  23243190.447    -7365833.53549  -5711726.65146  23243189.914    23243194.983
  23876247.833    -6511047.98549  -5048771.51545  23876247.337    23876253.839
  22467913.942   -15403209.29549 -11976222.31746  22467913.627    22467918.308
  22887397.924   -11862348.12849  -9225314.33946  22887397.555    22887400.458
  24009616.556    -5954643.45349  -4613886.58245  24009615.959    24009621.345
  23240961.558   -13249012.64549 -10303328.64246  23240960.847    23240966.768
  20591718.546   -23897039.43349 -18603469.43648  20591718.020    20591720.113
  23838395.525    -8397359.42949  -6513346.95345  23838394.932    23838399.045
 03  4 13  1 52 30.0000000  0  8G31G 3G25G11G23G15G14G18
  23255354.720    -7301909.95049  -5661916.12546  23255354.173    23255359.299
  23892194.794    -6427246.65049  -4983471.87145  23892194.337    23892200.717
  22451376.074   -15490115.73649 -12043941.53846  22451375.836    22451380.486
  22871336.130   -11946753.39549  -9291084.64546  22871335.734    22871338.597
  24021133.951    -5894119.87949  -4566725.41045  24021133.345    24021138.670
  23260919.788   -13144131.81449 -10221603.38546  23260919.001    23260924.949
  20599679.959   -23855201.70349 -18570868.61248  20599679.439    20599681.531
  23852181.204    -8324915.89949  -6456897.50345  23852180.549    23852184.649
 03  4 13  1 53  0.0000000  0  8G31G 3G25G11G23G15G14G18
  23267578.991    -7237671.04549  -5611859.90046  23267578.501    23267583.566
  23908156.957    -6343365.33849  -4918109.89745  23908156.538    23908162.765
  22434886.843   -15576767.03249 -12111461.95246  22434886.581    22434891.196
  22855326.655   -12030883.67649  -9356640.66646  22855326.287    22855329.182
  24032665.961    -5833518.67049  -4519503.74945  24032665.362    24032670.720
  23280921.014   -13039025.09949 -10139702.14446  23280920.174    23280926.190
  20607711.296   -23812996.75349 -18537981.64348  20607710.789    20607712.899
  23865984.245    -8252380.17049  -6400376.20745  23865983.703    23865987.792
 03  4 13  1 53 30.0000000  0  8G31G 3G25G11G23G15G14G18
  23279862.441    -7173121.70349  -5561561.76346  23279861.887    23279867.014
  23924133.326    -6259408.72749  -4852689.26145  23924132.977    23924139.332
  22418446.358   -15663162.25049 -12178782.82046  22418446.073    22418450.634
  22839369.613   -12114738.32149  -9421981.90546  22839369.244    22839372.202
  24044212.480    -5772841.41249  -4472222.81845  24044211.888    24044217.277
  23300964.369   -12933696.49049 -10057627.99946  23300963.578    23300969.596
  20615811.809   -23770428.24549 -18504811.38048  20615811.301    20615813.406
  23879804.548    -8179753.99249  -6343784.43245  23879804.055    23879808.216
 03  4 13  1 54  0.0000000  0  8G31G 3G25G11G23G15G14G18
  23292204.649    -7108263.51449  -5511022.98346  23292204.092    23292209.163
  23940123.847    -6175378.56649  -4787211.30445  23940123.477    23940129.773
  22402055.318   -15749297.54549 -12245901.15147  22402055.010    22402059.546
  22823465.588   -12198313.96049  -9487105.74446  22823465.264    22823468.195
  24055773.932    -5712086.42949  -4424881.30745  24055773.215    24055778.605
  23321049.809   -12828146.68449  -9975381.47746  23321049.124    23321055.231
  20623981.364   -23727496.98949 -18471358.46248  20623980.865    20623982.958
  23893642.378    -8107035.92949  -6287121.05745  23893641.856    23893646.131
 03  4 13  1 54 30.0000000  0  8G31G 3G25G11G23G15G14G18
  23304604.895    -7043099.71049  -5460246.05546  23304604.358    23304609.447
  23956127.725    -6091278.32849  -4721678.74545  23956127.338    23956133.481
  22385714.136   -15835170.30349 -12312814.90447  22385713.903    22385718.414
  22807615.114   -12281608.47449  -9552010.52846  22807614.847    22807617.755
  24067350.075    -5651253.49049  -4377479.09145  24067349.391    24067354.835
  23341176.988   -12722377.93849  -9892964.36246  23341176.290    23341182.409
  20632219.439   -23684205.66049 -18437624.96448  20632218.922    20632221.049
  23907497.656    -8034226.38049  -6230386.41645  23907497.153    23907501.346
 03  4 13  1 55  0.0000000  0  8G31G 3G25G11G23G15G14G18
  23317062.920    -6977632.25349  -5409232.50646  23317062.384    23317067.552
  23972144.508    -6007109.67749  -4656092.87545  23972144.179    23972150.435
  22369423.715   -15920777.26349 -12379521.54047  22369423.421    22369427.891
  22791818.833   -12364618.44349  -9616693.58746  22791818.543    22791821.444
  24078941.228    -5590341.47149  -4330015.21545  24078940.577    24078946.027
  23361345.691   -12616391.26149  -9810377.42846  23361344.967    23361351.079
  20640525.870   -23640554.89249 -18403611.38948  20640525.362    20640527.508
  23921370.398    -7961324.28749  -6173579.64845  23921369.920    23921374.242
 03  4 13  1 55 30.0000000  0  8G31G 3G25G11G23G15G14G18
  23329577.764    -6911866.65949  -5357986.65146  23329577.239    23329582.367
  23988173.280    -5922878.22349  -4590458.07545  23988172.963    23988179.271
  22353183.881   -16006117.97849 -12446020.71047  22353183.563    22353188.041
  22776076.642   -12447344.13449  -9681155.12546  22776076.341    22776079.199
  24090547.049    -5529352.67249  -4282491.52645  24090546.491    24090551.789
  23381555.004   -12510191.18249  -9727624.19846  23381554.197    23381560.415
  20648899.813   -23596549.54849 -18369321.52048  20648899.304    20648901.446
  23935260.257    -7888332.51949  -6116703.00545  23935259.875    23935264.069
 03  4 13  1 56  0.0000000  0  8G31G 3G25G11G23G15G14G18
  23342149.343    -6845803.09149  -5306508.58646  23342148.827    23342153.879
  24004214.032    -5838584.07049  -4524774.42545  24004213.659    24004220.034
  22336995.662   -16091187.30449 -12512308.40947  22336995.360    22336999.814
  22760389.506   -12529780.37849  -9745391.12146  22760389.221    22760392.125
  24102168.064    -5468284.03349  -4234905.61845  24102167.437    24102172.751
  23401804.998   -12403776.82449  -9644704.01246  23401804.298    23401810.520
  20657341.407   -23552188.84249 -18334754.74148  20657340.910    20657343.017
  23949167.815    -7815247.85349  -6059753.96045  23949167.366    23949171.881
 03  4 13  1 56 30.0000000  0  8G31G 3G25G11G23G15G14G18
  23354776.817    -6779445.67149  -5254801.57546  23354776.264    23354781.369
  24020265.915    -5754231.23349  -4459045.03545  24020265.606    24020271.988
  22320859.354   -16175983.53149 -12578383.31247  22320859.151    22320863.551
  22744757.685   -12611926.15749  -9809400.78746  22744757.352    22744760.292
  24113804.030    -5407136.18449  -4187257.99345  24113803.461    24113809.021
  23422095.188   -12297151.38549  -9561619.33045  23422094.501    23422100.733
  20665850.013   -23507475.81749 -18299913.43648  20665849.500    20665851.623
  23963092.751    -7742071.85649  -6002733.78145  23963092.277    23963096.857
 03  4 13  1 57  0.0000000  0  8G31G 3G25G11G23G15G14G18
  23367459.561    -6712797.30649  -5202867.83346  23367459.065    23367464.159
  24036328.363    -5669822.73049  -4393272.27845  24036327.997    24036334.437
  22304775.604   -16260504.16949 -12644243.46747  22304775.335    22304779.726
  22729181.603   -12693779.09549  -9873182.26646  22729181.265    22729184.179
  24125455.316    -5345908.89449  -4139548.46545  24125454.715    24125460.397
  23442425.168   -12190316.86949  -9478371.73645  23442424.477    23442430.727
  20674425.221   -23462412.70949 -18264799.34048  20674424.714    20674426.865
  23977035.222    -7668804.18549  -5945642.14645  23977034.745    23977039.133
 03  4 13  1 57 30.0000000  0  8G31G 3G25G11G23G15G14G18
  23380197.124    -6645861.17949  -5150709.86946  23380196.616    23380201.721
  24052400.868    -5585361.57149  -4327458.49645  24052400.499    24052406.975
  22288744.710   -16344746.71349 -12709886.92947  22288744.443    22288748.801
  22713661.657   -12775336.81949  -9936733.70346  22713661.360    22713664.201
  24137121.616    -5284601.92449  -4091776.85445  24137121.050    24137126.789
  23462794.579   -12083275.46349  -9394962.92845  23462793.866    23462800.074
  20683066.651   -23417001.63949 -18229414.10448  20683066.151    20683068.305
  23990995.078    -7595445.24049  -5888479.39945  23990994.571    23990998.977
 03  4 13  1 58  0.0000000  0  8G31G 3G25G11G23G15G14G18
  23392989.071    -6578639.35249  -5098329.28046  23392988.571    23392993.603
  24068483.091    -5500849.64649  -4261605.15745  24068482.587    24068489.178
  22272767.417   -16428707.61149 -12775310.91947  22272767.144    22272771.511
  22698198.454   -12856596.37749 -10000052.81846  22698198.145    22698200.912
  24148803.315    -5223214.01049  -4043942.16445  24148802.722    24148808.566
  23483203.155   -11976028.26349  -9311393.76345  23483202.388    23483208.564
  20691774.078   -23371243.72749 -18193758.60648  20691773.603    20691775.757
  24004972.358    -7521993.83649  -5831244.61145  24004971.893    24004976.368
 03  4 13  1 58 30.0000000  0  8G31G 3G25G11G23G15G14G18
  23405834.715    -6511135.47549  -5045728.91246  23405834.258    23405839.232
  24084574.161    -5416290.67349  -4195715.15745  24084573.646    24084580.267
  22256844.042   -16512384.90949 -12840513.93047  22256843.818    22256848.186
  22682792.336   -12937555.91149 -10063138.14846  22682792.020    22682794.728
  24160500.498    -5161745.42349  -3996044.62945  24160499.914    24160505.617
  23503650.359   -11868577.85749  -9227666.27745  23503649.582    23503655.796
  20700547.019   -23325141.68849 -18157834.95248  20700546.540    20700548.658
  24018967.209    -7448450.98549  -5773938.54745  24018966.695    24018971.083
 03  4 13  1 59  0.0000000  0  8G31G 3G25G11G23G15G14G18
  23418733.375    -6443352.62649  -4992911.16246  23418732.939    23418738.002
  24100673.549    -5331687.64849  -4129790.85045  24100673.041    24100679.896
  22240975.107   -16595776.32949 -12905494.17647  22240974.874    22240979.211
  22667443.678   -13018213.36849 -10125988.08046  22667443.365    22667446.158
  24172212.991    -5100196.02649  -3948084.12945  24172212.435    24172218.187
  23524135.778   -11760926.59049  -9143782.25745  23524135.060    23524141.255
  20709385.033   -23278697.82049 -18121644.93848  20709384.541    20709386.658
  24032979.546    -7374816.62549  -5716561.19145  24032978.995    24032983.457
 03  4 13  1 59 30.0000000  0  8G31G 3G25G11G23G15G14G18
  23431684.675    -6375293.32649  -4939878.00046  23431684.232    23431689.347
  24116781.010    -5247043.00949  -4063834.11045  24116780.570    24116787.364
  22225161.128   -16678878.79849 -12970249.27147  22225160.931    22225165.251
  22652153.106   -13098565.88249 -10188600.40946  22652152.771    22652155.579
  24183941.090    -5038565.07049  -3900060.05245  24183940.556    24183946.227
  23544659.122   -11653075.95649  -9059742.88145  23544658.402    23544664.733
  20718287.803   -23231913.64149 -18085189.74948  20718287.298    20718289.410
  24047009.188    -7301090.25549  -5659112.13645  24047008.672    24047013.176
 03  4 13  2  0  0.0000000  0  8G31G 3G25G11G23G15G14G18
  23444687.913    -6306961.48249  -4886632.47446  23444687.401    23444692.524
  24132895.702    -5162360.49549  -3997847.85945  24132895.274    24132901.994
  22209402.594   -16761690.13749 -13034777.50947  22209402.361    22209406.671
  22636920.857   -13178611.97249 -10250973.95646  22636920.526    22636923.313
  24195684.431    -4976853.21149  -3851972.94845  24195683.897    24195689.586
  23565219.790   -11545029.05049  -8975550.55845  23565219.118    23565225.432
  20727254.748   -23184792.09749 -18048471.67748  20727254.240    20727256.371
  24061056.299    -7227272.90249  -5601592.18445  24061055.809    24061060.194
 03  4 13  2  0 30.0000000  0  8G31G 3G25G11G23G15G14G18
  23457742.740    -6238357.86749  -4833175.16246  23457742.253    23457747.426
  24149017.320    -5077640.74249  -3931832.58645  24149016.993    24149023.791
  22193700.299   -16844205.73649 -13099075.30647  22193700.111    22193704.420
  22621747.767   -13258347.12449 -10313105.22246  22621747.400    22621750.197
  24207443.800    -4915057.69949  -3803820.64645  24207443.186    24207448.918
  23585817.935   -11436785.57949  -8891205.08345  23585817.268    23585823.576
  20736285.892   -23137333.01449 -18011490.58548  20736285.378    20736287.538
  24075120.943    -7153362.35649  -5543999.60145  24075120.560    24075125.009
 03  4 13  2  1  0.0000000  0  8G31G 3G25G11G23G15G14G18
  23470848.312    -6169487.63549  -4779510.10146  23470847.810    23470853.076
  24165145.229    -4992888.77749  -3865792.22045  24165144.878    24165151.638
  22178054.408   -16926425.38449 -13163142.49747  22178054.193    22178058.458
  22606633.766   -13337771.25649 -10374994.13146  22606633.434    22606636.249
  24219218.826    -4853180.35249  -3755604.59745  24219218.174    24219223.985
  23606452.592   -11328349.79449  -8806709.74945  23606451.932    23606458.327
  20745380.457   -23089540.73549 -17974249.86448  20745379.972    20745382.120
  24089202.983    -7079360.86249  -5486336.15745  24089202.592    24089207.174
 03  4 13  2  1 30.0000000  0  8G31G 3G25G11G23G15G14G18
  23484004.307    -6100352.72449  -4725638.79946  23484003.803    23484009.125
  24181279.021    -4908106.32949  -3799728.09345  24181278.549    24181285.221
  22162465.476   -17008345.47949 -13226976.26547  22162465.245    22162469.496
  22591579.716   -13416881.02749 -10436638.08946  22591579.355    22591582.132
  24231009.619    -4791219.75149  -3707323.65945  24231009.031    24231014.853
  23627123.584   -11219722.65549  -8722065.33745  23627123.013    23627129.421
  20754538.295   -23041416.05049 -17936750.12048  20754537.812    20754539.948
  24103302.647    -7005267.11049  -5428600.82745  24103302.291    24103306.734
 03  4 13  2  2  0.0000000  0  8G31G 3G25G11G23G15G14G18
  23497210.022    -6030956.64649  -4671563.99346  23497209.520    23497214.890
  24197417.730    -4823296.91949  -3733642.96545  24197417.356    24197424.034
  22146934.023   -17089963.62349 -13290574.74247  22146933.807    22146938.028
  22576585.924   -13495673.99249 -10498035.17146  22576585.565    22576588.336
  24242816.181    -4729176.14749  -3658978.05545  24242815.678    24242821.451
  23647830.660   -11110906.63849  -8637273.72045  23647830.017    23647836.605
  20763758.897   -22992961.57549 -17898993.39148  20763758.409    20763760.561
  24117419.995    -6931081.31949  -5370793.78445  24117419.408    24117423.870
 03  4 13  2  2 30.0000000  0  8G31G 3G25G11G23G15G14G18
  23510464.846    -5961302.30949  -4617287.95746  23510464.364    23510469.649
  24213561.088    -4738463.49749  -3667539.12345  24213560.591    24213567.489
  22131460.460   -17171277.17449 -13353935.88347  22131460.279    22131464.483
  22561652.688   -13574148.33349 -10559183.97046  22561652.353    22561655.121
  24254638.548    -4667049.06049  -3610567.38545  24254638.014    24254643.754
  23668573.279   -11001903.90249  -8552336.59045  23668572.609    23668579.126
  20773041.862   -22944179.38949 -17860981.30248  20773041.353    20773043.493
  24131554.512    -6856803.71749  -5312915.17545  24131553.992    24131558.500
 03  4 13  2  3  0.0000000  0  8G31G 3G25G11G23G15G14G18
  23523768.522    -5891391.03349  -4562811.69446  23523768.035    23523773.339
  24229708.800    -4653607.25149  -3601417.50045  24229708.282    24229715.117
  22116045.700   -17252282.21049 -13417056.62047  22116045.470    22116049.636
  22546780.886   -13652300.17149 -10620081.47446  22546780.549    22546783.313
  24266477.036    -4604836.72049  -3562090.28545  24266476.498    24266482.477
  23689351.268   -10892714.90349  -8467254.34345  23689350.644    23689357.271
  20782387.069   -22895070.01849 -17822714.26448  20782386.583    20782388.728
  24145706.823    -6782432.84149  -5254963.90045  24145706.346    24145710.860
 03  4 13  2  3 30.0000000  0  8G31G 3G25G11G23G15G14G18
  23537120.071    -5821228.56649  -4508139.69946  23537119.532    23537124.861
  24245859.834    -4568733.44749  -3535282.19545  24245859.351    24245866.205
  22100689.640   -17332978.77649 -13479936.99947  22100689.411    22100693.542
  22531970.402   -13730129.52449 -10680727.68446  22531970.062    22531972.829
  24278331.581    -4542541.21549  -3513548.37445  24278331.051    24278337.101
  23710163.806   -10783344.07949  -8382030.43545  23710163.305    23710169.885
  20791793.677   -22845637.94249 -17784195.76948  20791793.171    20791795.359
  24159876.425    -6707971.10249  -5196941.80545  24159875.926    24159880.555
 03  4 13  2  4  0.0000000  0  8G31G 3G25G11G23G15G14G18
  23550519.284    -5750815.17149  -4453272.17746  23550518.795    23550524.222
  24262014.269    -4483842.12149  -3469133.23945  24262013.767    24262020.675
  22085393.306   -17413361.36649 -13542572.72347  22085393.071    22085397.187
  22517222.189   -13807631.42949 -10741118.74446  22517221.902    22517224.640
  24290202.575    -4480159.52449  -3464939.32145  24290201.923    24290207.906
  23731011.143   -10673790.83849  -8296664.36345  23731010.672    23731017.157
  20801261.847   -22795882.33049 -17745425.17248  20801261.347    20801263.585
  24174063.813    -6633415.80349  -5138846.82745  24174063.244    24174067.990
 03  4 13  2  4 30.0000000  0  8G31G 3G25G11G23G15G14G18
  23563965.321    -5680155.96249  -4398213.11546  23563964.857    23563970.307
  24278171.086    -4398938.30149  -3402974.54845  24278170.572    24278177.456
  22070156.726   -17493429.81949 -13604963.65847  22070156.499    22070160.629
  22502536.401   -13884805.71649 -10801254.50746  22502536.109    22502538.860
  24302089.537    -4417693.44349  -3416264.48145  24302088.944    24302094.752
  23751892.549   -10564059.42449  -8211159.44745  23751891.917    23751898.520
  20810790.728   -22745807.75649 -17706406.02548  20810790.240    20810792.494
  24188268.703    -6558769.09049  -5080680.60245  24188268.149    24188272.807
 03  4 13  2  5  0.0000000  0  8G31G 3G25G11G23G15G14G18
  23577457.878    -5609252.11749  -4342963.45146  23577457.445    23577462.849
  24294329.964    -4314023.12149  -3336807.02545  24294329.506    24294336.368
  22054980.803   -17573179.49549 -13667106.20447  22054980.575    22054984.700
  22487913.775   -13961648.23249 -10861131.76246  22487913.442    22487916.153
  24313992.851    -4355140.80349  -3367522.22345  24313992.304    24313998.166
  23772807.794   -10454150.03849  -8125515.85245  23772807.078    23772813.634
  20820380.245   -22695414.34149 -17667138.44048  20820379.761    20820382.004
  24202491.385    -6484029.04449  -5022441.64745  24202490.814    24202495.407
 03  4 13  2  5 30.0000000  0  8G31G 3G25G11G23G15G14G18
  23590995.930    -5538109.70649  -4287527.86446  23590995.524    23591000.817
  24310490.010    -4229102.30449  -3270635.10245  24310489.469    24310496.362
  22039865.457   -17652610.90949 -13729000.75547  22039865.259    22039869.362
  22473354.026   -14038159.77449 -10920751.10446  22473353.751    22473356.403
  24325912.235    -4292504.25449  -3318714.55345  24325911.741    24325917.598
  23793755.833   -10344067.85849  -8039737.59245  23793755.127    23793761.735
  20830029.539   -22644707.08549 -17627626.29648  20830029.061    20830031.286
  24216731.027    -6409198.87349  -4964132.48445  24216730.456    24216735.077
 03  4 13  2  6  0.0000000  0  8G31G 3G25G11G23G15G14G18
  23604579.335    -5466728.66949  -4231906.34146  23604578.890    23604584.316
  24326651.003    -4144175.49249  -3204458.50145  24326650.540    24326657.534
  22024811.787   -17731718.56849 -13790643.02247  22024811.560    22024815.600
  22458858.439   -14114334.79649 -10980108.21846  22458858.116    22458860.765
  24337848.248    -4229780.45749  -3269838.92045  24337847.649    24337853.707
  23814737.068   -10233811.84049  -7953823.91545  23814736.291    23814742.793
  20839738.719   -22593685.00849 -17587868.84448  20839738.219    20839740.427
  24230988.416    -6334275.65249  -4905750.79545  24230988.005    24230992.640
 03  4 13  2  6 30.0000000  0  8G31G 3G25G11G23G15G14G18
  23618207.545    -5395111.89849  -4176101.14346  23618207.135    23618212.625
  24342812.656    -4059245.80849  -3138279.66345  24342812.142    24342819.229
  22009820.230   -17810499.85549 -13852030.97247  22009819.959    22009823.961
  22444427.223   -14190171.12049 -11039201.42046  22444426.936    22444429.592
  24349800.928    -4166969.17049  -3220895.10445  24349800.364    24349806.330
  23835750.960   -10123384.07249  -7867776.37445  23835750.054    23835756.515
  20849507.463   -22542350.02549 -17547867.57448  20849506.947    20849509.145
  24245263.704    -6259259.04249  -4847296.33045  24245263.303    24245267.835
 03  4 13  2  7  0.0000000  0  8G31G 3G25G11G23G15G14G18
  23631879.723    -5323264.52249  -4120116.23546  23631879.300    23631884.706
  24358974.111    -3974317.79949  -3072102.14345  24358973.583    24358980.721
  21994890.774   -17888954.19749 -13913164.16947  21994890.534    21994894.518
  22430060.538   -14265668.14649 -11098030.23046  22430060.243    22430062.943
  24361769.868    -4104071.84749  -3171884.22545  24361769.268    24361775.292
  23856796.420   -10012788.75149  -7781598.28245  23856795.575    23856802.327
  20859334.961   -22490706.22449 -17507625.66848  20859334.443    20859336.657
  24259556.366    -6184150.82749  -4788770.49245  24259556.009    24259560.306
 03  4 13  2  7 30.0000000  0  8G31G 3G25G11G23G15G14G18
  23645595.302    -5251188.83449  -4063953.42546  23645594.826    23645600.328
  24375134.682    -3889393.70149  -3005927.67545  24375134.235    24375141.315
  21980024.079   -17967078.64249 -13974040.29547  21980023.876    21980027.843
  22415759.022   -14340823.13349 -11156592.51846  22415758.694    22415761.397
  24373755.330    -4041087.56649  -3122805.60645  24373754.861    24373760.854
  23877873.418    -9902027.09649  -7695290.60245  23877872.772    23877879.480
  20869220.917   -22438755.17449 -17467144.33548  20869220.399    20869222.598
  24273866.611    -6108950.76449  -4730173.08145  24273866.172    24273870.388
 03  4 13  2  8  0.0000000  0  8G31G 3G25G11G23G15G14G18
  23659353.952    -5178886.57049  -4007614.06446  23659353.450    23659359.033
  24391294.398    -3804474.73549  -2939757.20345  24391293.939    24391300.960
  21965221.028   -18044869.09249 -14034656.17547  21965220.774    21965224.713
  22401523.289   -14415632.28949 -11214885.33646  22401522.968    22401525.657
  24385757.777    -3978014.49949  -3073657.82345  24385757.302    24385763.336
  23898982.130    -9791099.84649  -7608853.86145  23898981.599    23898988.336
  20879165.245   -22386497.45549 -17426424.04948  20879164.715    20879166.918
  24288194.394    -6033657.23049  -4671502.83745  24288194.043    24288198.391
 03  4 13  2  8 30.0000000  0  8G31G 3G25G11G23G15G14G18
  23673155.059    -5106362.10849  -3951101.56446  23673154.496    23673160.040
  24407452.343    -3719565.14749  -2873594.03745  24407451.862    24407458.792
  21950481.657   -18122324.72549 -14095011.16047  21950481.418    21950485.313
  22387353.530   -14490094.90449 -11272908.12346  22387353.188    22387355.869
  24397776.841    -3914853.74949  -3024441.69545  24397776.341    24397782.368
  23920121.841    -9680010.50949  -7522290.81545  23920121.233    23920127.977
  20889167.234   -22333936.44649 -17385467.43048  20889166.721    20889168.951
  24302539.957    -5958271.61649  -4612760.84845  24302539.471    24302543.627
 03  4 13  2  9  0.0000000  0  8G31G 3G25G11G23G15G14G18
  23686997.785    -5033618.29549  -3894418.14546  23686997.253    23687002.829
  24423607.778    -3634667.53349  -2807440.19045  24423607.418    24423614.344
  21935806.478   -18199442.93149 -14155103.21547  21935806.267    21935810.146
  22373250.210   -14564208.22449 -11330658.72646  22373249.891    22373252.520
  24409812.869    -3851604.66649  -2975156.75645  24409812.299    24409818.264
  23941291.942    -9568761.12749  -7435603.05245  23941291.358    23941298.143
  20899226.625   -22281074.04149 -17344275.95948  20899226.137    20899228.363
  24316903.050    -5882793.57849  -4553946.82745  24316902.548    24316906.730
 03  4 13  2  9 30.0000000  0  8G31G 3G25G11G23G15G14G18
  23700881.863    -4960657.33249  -3837565.52346  23700881.292    23700886.920
  24439760.640    -3549783.95249  -2741297.29145  24439760.275    24439767.282
  21921196.177   -18276220.27649 -14214929.66247  21921195.952    21921199.846
  22359213.899   -14637969.14549 -11388134.74846  22359213.609    22359216.227
  24421865.916    -3788266.16949  -2925802.13745  24421865.274    24421871.276
  23962492.282    -9457352.78349  -7348791.42545  23962491.742    23962498.573
  20909343.094   -22227911.55649 -17302850.66048  20909342.603    20909344.837
  24331283.777    -5807222.51949  -4495060.32545  24331283.294    24331287.645
 03  4 13  2 10  0.0000000  0  8G31G 3G25G11G23G15G14G18
  23714806.088    -4887485.33849  -3780548.45246  23714805.572    23714811.136
  24455909.693    -3464920.06549  -2675169.71545  24455909.496    24455916.391
  21906650.633   -18352657.18649 -14274490.83847  21906650.412    21906654.353
  22345244.500   -14711378.60649 -11445336.89346  22345244.209    22345246.837
  24433935.077    -3724841.08749  -2876380.03945  24433934.610    24433940.590
  23983721.898    -9345790.75449  -7261860.05645  23983721.426    23983728.150
  20919515.727   -22174454.05849 -17261195.48348  20919515.241    20919517.482
  24345681.474    -5731561.56549  -4436103.76745  24345681.066    24345685.557
 03  4 13  2 10 30.0000000  0  8G31G 3G25G11G23G15G14G18
  23728770.888    -4814100.37549  -3723365.43846  23728770.334    23728775.921
  24472055.509    -3380073.85349  -2609055.92345  24472055.278    24472062.176
  21892171.293   -18428746.23549 -14333780.96647  21892171.125    21892175.052
  22331343.426   -14784429.46049 -11502259.61546  22331343.083    22331345.710
  24446022.078    -3661324.06349  -2826886.30445  24446021.601    24446027.596
  24004981.235    -9234072.19549  -7174806.70545  24004980.818    24004987.642
  20929745.033   -22120698.76849 -17219308.25948  20929744.559    20929746.789
  24360097.322    -5655805.78349  -4377073.34645  24360096.736    24360101.440
 03  4 13  2 11  0.0000000  0  8G31G 3G25G11G23G15G14G18
  23742774.770    -4740509.57649  -3666022.03046  23742774.260    23742779.925
  24488196.809    -3295252.18549  -2542961.27645  24488196.474    24488203.460
  21877757.845   -18504489.17549 -14392801.38447  21877757.674    21877761.575
  22317510.258   -14857123.22649 -11558904.08646  22317509.909    22317512.519
  24458125.762    -3597718.80149  -2777323.82445  24458125.381    24458131.227
  24026269.353    -9122203.25249  -7087636.17945  24026268.810    24026275.681
  20940029.924   -22066651.45049 -17177193.47248  20940029.429    20940031.635
  24374530.441    -5579959.03949  -4317972.03145  24374529.835    24374534.706
 03  4 13  2 11 30.0000000  0  8G31G 3G25G11G23G15G14G18
  23756817.823    -4666713.05649  -3608518.32545  23756817.367    23756823.019
  24504333.340    -3210454.76449  -2476885.50845  24504333.002    24504340.112
  21863411.257   -18579880.84749 -14451548.10147  21863411.106    21863414.960
  22303745.920   -14929454.89349 -11615266.40246  22303745.578    22303748.236
  24470246.945    -3534022.19849  -2727690.15545  24470246.650    24470252.316
  24047586.187    -9010183.12949  -7000347.83545  24047585.662    24047592.541
  20950370.522   -22012311.36049 -17134850.55748  20950370.021    20950372.213
  24388981.393    -5504018.44949  -4258797.59245  24388980.849    24388985.818
 03  4 13  2 12  0.0000000  0  8G31G 3G25G11G23G15G14G18
  23770899.208    -4592714.92049  -3550857.51445  23770898.719    23770904.506
  24520464.643    -3125685.03649  -2410831.34645  24520464.385    24520471.432
  21849131.817   -18654919.63949 -14510019.83747  21849131.651    21849135.509
  22290050.832   -15001423.12649 -11671345.52347  22290050.489    22290053.126
  24482385.210    -3470234.85449  -2677985.76245  24482384.857    24482390.666
  24068931.183    -8898014.88749  -6912944.06045  24068930.527    24068937.304
  20960766.242   -21957681.65449 -17092281.96348  20960765.734    20960767.882
  24403450.029    -5427985.29649  -4199551.02445  24403449.564    24403454.509
 03  4 13  2 12 30.0000000  0  8G31G 3G25G11G23G15G14G18
  23785018.329    -4518518.90349  -3493042.51645  23785017.785    23785023.576
  24536589.989    -3040946.62749  -2344801.57345  24536589.672    24536596.787
  21834919.834   -18729603.93949 -14568215.34147  21834919.660    21834923.506
  22276425.122   -15073026.61749 -11727140.42647  22276424.802    22276427.386
  24494540.842    -3406357.24049  -2628211.03945  24494540.472    24494546.209
  24090303.797    -8785701.50149  -6825427.19645  24090303.070    24090310.066
  20971216.520   -21902765.21249 -17049489.93748  20971216.009    20971218.092
  24417936.243    -5351860.07949  -4140232.71845  24417935.765    24417940.773
 03  4 13  2 13  0.0000000  0  8G31G 3G25G11G23G15G14G18
  23799174.640    -4444127.57049  -3435075.32045  23799174.114    23799179.799
  24552708.803    -2956242.10849  -2278798.21645  24552708.474    24552715.801
  21820775.885   -18803930.90049 -14626132.40847  21820775.701    21820779.528
  22262869.321   -15144262.47949 -11782648.87247  22262869.007    22262871.657
  24506713.686    -3342388.51249  -2578365.32945  24506713.385    24506718.958
  24111703.711    -8673244.59049  -6737798.52045  24111702.995    24111709.971
  20981721.055   -21847563.59449 -17006475.69948  20981720.527    20981722.597
  24432440.023    -5275642.43049  -4080842.39145  24432439.614    24432444.542
 03  4 13  2 13 30.0000000  0  8G31G 3G25G11G23G15G14G18
  23813367.642    -4369543.34749  -3376957.81945  23813367.089    23813372.725
  24568820.812    -2871573.42549  -2212822.78445  24568820.329    24568828.036
  21806700.436   -18877897.72449 -14683768.84547  21806700.236    21806704.046
  22249384.074   -15215127.77249 -11837868.56447  22249383.782    22249386.395
  24518904.058    -3278327.75149  -2528447.88045  24518903.745    24518909.354
  24133130.626    -8560645.74949  -6650059.22945  24133129.872    24133136.773
  20992279.594   -21792078.04149 -16963240.21548  20992279.078    20992281.172
  24446961.344    -5199331.59149  -4021379.44745  24446960.851    24446966.048
 03  4 13  2 14  0.0000000  0  8G31G 3G25G11G23G15G14G18
  23827596.461    -4294770.58449  -3318693.40245  23827595.889    23827601.543
  24584925.230    -2786944.63949  -2146878.42745  24584924.679    24584932.337
  21792693.777   -18951502.72249 -14741123.34247  21792693.612    21792697.415
  22235969.571   -15285621.62649 -11892798.82347  22235969.269    22235971.861
  24531111.742    -3214176.01449  -2478459.57245  24531111.416    24531117.118
  24154583.953    -8447908.40649  -6562212.01345  24154583.180    24154590.097
  21002891.514   -21736312.15249 -16919786.28648  21002891.031    21002893.116
  24461500.460    -5122928.90449  -3961844.94245  24461500.006    24461505.037
 03  4 13  2 14 30.0000000  0  8G31G 3G25G11G23G15G14G18
  23841860.758    -4219810.59149  -3260283.08845  23841860.333    23841866.069
  24601021.919    -2702356.58549  -2080965.83045  24601021.497    24601028.980
  21778756.791   -19024742.03449 -14798192.89747  21778756.591    21778760.384
  22222626.482   -15355739.89549 -11947436.42847  22222626.186    22222628.733
  24543337.092    -3149931.03249  -2428398.58345  24543336.672    24543342.650
  24176063.605    -8335032.86149  -6474257.11845  24176062.689    24176069.718
  21013556.791   -21680265.94549 -16876113.93348  21013556.258    21013558.374
  24476057.286    -5046432.66349  -3902237.49945  24476056.858    24476061.808
 03  4 13  2 15  0.0000000  0  8G31G 3G25G11G23G15G14G18
  23856159.901    -4144668.41249  -3201730.81345  23856159.424    23856165.292
  24617109.991    -2617813.91549  -2015088.59445  24617109.470    24617117.134
  21764889.413   -19097615.33349 -14854977.23647  21764889.231    21764893.012
  22209354.922   -15425482.49549 -12001781.29247  22209354.614    22209357.167
  24555580.043    -3085594.53849  -2378266.29345  24555579.516    24555585.614
  24197568.538    -8222023.43849  -6386197.87445  24197567.742    24197574.773
  21024274.584   -21623943.58449 -16832226.38948  21024274.058    21024276.197
  24490631.516    -4969844.73449  -3842558.63145  24490631.109    24490635.966
 03  4 13  2 15 30.0000000  0  8G31G 3G25G11G23G15G14G18
  23870493.402    -4069345.33849  -3143037.58945  23870492.941    23870498.806
  24633189.005    -2533317.84249  -1949247.67345  24633188.628    24633196.376
  21751092.474   -19170118.60049 -14911473.23447  21751092.262    21751096.053
  22196155.477   -15494845.72349 -12055830.54247  22196155.172    22196157.724
  24567840.619    -3021164.60349  -2328061.17845  24567840.118    24567846.356
  24219098.903    -8108880.13149  -6298034.32845  24219098.286    24219105.201
  21035044.851   -21567345.34149 -16788123.87348  21035044.342    21035046.491
  24505223.454    -4893163.73549  -3782807.23545  24505222.998    24505227.865
 03  4 13  2 16  0.0000000  0  8G31G 3G25G11G23G15G14G18
  23884860.801    -3993844.69149  -3084205.97345  23884860.235    23884866.137
  24649258.993    -2448870.95749  -1883445.09045  24649258.643    24649266.381
  21737366.315   -19242249.72449 -14967679.25147  21737366.115    21737369.925
  22183028.739   -15563827.22549 -12109582.34647  22183028.399    22183030.953
  24580119.178    -2956640.98649  -2277783.09145  24580118.589    24580124.941
  24240654.434    -7995605.36849  -6209768.31345  24240653.925    24240660.825
  21045867.262   -21510473.52449 -16743808.17948  21045866.730    21045868.855
  24519833.110    -4816389.84049  -3722983.48245  24519832.563    24519837.484
 03  4 13  2 16 30.0000000  0  8G31G 3G25G11G23G15G14G18
  23899261.089    -3918171.14349  -3025239.63945  23899260.586    23899266.428
  24665318.762    -2364477.66949  -1817684.26445  24665318.365    24665326.075
  21723711.185   -19314007.75649 -15023594.55647  21723710.968    21723714.762
  22169974.752   -15632426.34549 -12163036.19047  22169974.436    22169976.955
  24592415.204    -2892024.99149  -2227432.98745  24592414.605    24592420.911
  24262234.070    -7882203.14049  -6121403.01045  24262233.685    24262240.638
  21056740.984   -21453331.82249 -16699282.18848  21056740.442    21056742.605
  24534460.021    -4739524.70049  -3663088.61745  24534459.647    24534464.532
 03  4 13  2 17  0.0000000  0  8G31G 3G25G11G23G15G14G18
  23913694.194    -3842325.04249  -2966138.86245  23913693.654    23913699.406
  24681368.062    -2280138.03149  -1751965.24445  24681367.684    24681375.655
  21710127.977   -19385388.12949 -15079215.57047  21710127.701    21710131.446
  22156994.428   -15700638.38949 -12216188.40947  22156994.112    22156996.562
  24604729.338    -2827313.63849  -2177008.58645  24604728.691    24604735.043
  24283838.325    -7768672.91449  -6032937.95845  24283837.810    24283844.798
  21067666.116   -21395919.48349 -16654545.31447  21067665.609    21067667.831
  24549104.931    -4662565.44049  -3603120.39645  24549104.439    24549109.361
 03  4 13  2 17 30.0000000  0  8G31G 3G25G11G23G15G14G18
  23928159.162    -3766311.30049  -2906907.44445  23928158.670    23928164.429
  24697406.544    -2195856.60049  -1686291.59445  24697406.091    24697413.849
  21696616.676   -19456390.47149 -15134542.02147  21696616.405    21696620.130
  22144087.803   -15768463.05549 -12269038.78347  22144087.467    22144089.944
  24617061.210    -2762508.54249  -2126511.16245  24617060.704    24617066.945
  24305465.994    -7655018.69049  -5944376.27145  24305465.486    24305472.537
  21078642.087   -21338240.28849 -16609600.49747  21078641.590    21078643.820
  24563767.442    -4585514.06449  -3543080.39045  24563766.928    24563771.758
 03  4 13  2 18  0.0000000  0  8G31G 3G25G11G23G15G14G18
  23942655.595    -3690132.65449  -2847547.52745  23942655.095    23942660.777
  24713433.441    -2111635.65249  -1620665.07245  24713432.996    24713440.610
  21683177.828   -19527011.89049 -15189571.65047  21683177.579    21683181.264
  22131255.390   -15835897.73149 -12321585.25947  22131255.061    22131257.545
  24629411.396    -2697609.02449  -2075940.14645  24629410.823    24629416.976
  24327116.884    -7541242.27849  -5855719.37745  24327116.448    24327123.648
  21089668.495   -21280296.24249 -16564449.30447  21089667.997    21089670.233
  24578447.310    -4508370.37949  -3482968.46145  24578446.855    24578451.656
 03  4 13  2 18 30.0000000  0  8G31G 3G25G11G23G15G14G18
  23957182.819    -3613792.06949  -2788061.42645  23957182.287    23957187.964
  24729448.232    -2027477.58049  -1555087.53045  24729447.908    24729455.653
  21669811.869   -19597250.09049 -15244302.66447  21669811.642    21669815.298
  22118497.623   -15902940.04549 -12373825.99847  22118497.303    22118499.797
  24641779.489    -2632614.68249  -2025295.21845  24641778.862    24641785.044
  24348790.801    -7427345.54749  -5766968.71045  24348790.333    24348797.346
  21100744.933   -21222089.12449 -16519093.12147  21100744.439    21100746.687
  24593144.943    -4431134.26749  -3422784.50445  24593144.540    24593149.372
 03  4 13  2 19  0.0000000  0  7G31G 3G25G11G23G15G14
  23971740.061    -3537293.33349  -2728452.08645  23971739.530    23971745.275
  24745450.507    -1943386.00049  -1489561.80145  24745450.122    24745457.893
  21656519.215   -19667103.37549 -15298733.73947  21656518.964    21656522.615
  22105814.757   -15969588.80749 -12425760.07347  22105814.433    22105816.961
  24654165.519    -2567526.22649  -1974576.98645  24654164.767    24654170.975
  24370486.951    -7313331.65849  -5678126.74045  24370486.543    24370493.592
  21111870.949   -21163621.74449 -16473534.12747  21111870.426    21111872.658
 03  4 13  2 19 30.0000000  0  7G31G 3G25G11G23G15G14
  23986326.345    -3460642.15649  -2668723.94645  23986325.812    23986331.668
  24761439.057    -1859366.21349  -1424092.02645  24761438.612    24761446.565
  21643299.680   -19736572.25049 -15352865.27747  21643299.446    21643303.103
  22093206.747   -16035844.44849 -12477387.81847  22093206.382    22093208.903
  24666568.996    -2502345.82049  -1923787.06545  24666568.190    24666574.383
  24392204.618    -7199205.30049  -5589197.15345  24392204.109    24392211.282
  21123045.524   -21104898.88649 -16427776.06147  21123045.000    21123047.262
 03  4 13  2 20  0.0000000  0  7G31G 3G25G11G23G15G14
  24000942.181    -3383835.79049  -2608874.90045  24000941.644    24000947.522
  24777414.541    -1775415.23849  -1358675.89045  24777414.113    24777422.065
  21630154.842   -19805648.51849 -15406690.89247  21630154.626    21630158.274
  22080674.997   -16101698.93949 -12528702.98547  22080674.657    22080677.160
  24678991.001    -2437067.45849  -1872920.85345  24678990.170    24678996.443
  24413944.297    -7084962.71849  -5500177.00845  24413943.798    24413950.773
  21134269.494   -21045916.48949 -16381815.76047  21134268.980    21134271.258
 03  4 13  2 20 30.0000000  0  7G31G 3G25G11G23G15G14
  24015586.913    -3306877.62449  -2548907.57345  24015586.415    24015592.212
  24793376.344    -1691535.85349  -1293315.52145  24793375.963    24793383.927
  21617085.024   -19874330.55149 -15460209.30947  21617084.804    21617088.461
  22068219.942   -16167150.61149 -12579704.26547  22068219.599    22068222.095
  24691431.640    -2371691.10849  -1821978.29045  24691430.869    24691437.102
  24435705.728    -6970606.62049  -5411068.39245  24435704.914    24435712.026
  21145542.373   -20986677.13849 -16335655.23747  21145541.876    21145544.151
 03  4 13  2 21  0.0000000  0  7G31G 3G25G11G23G15G14
  24030259.553    -3229772.63649  -2488825.83345  24030259.067    24030264.853
  24809323.640    -1607732.42049  -1228014.35645  24809323.273    24809331.439
  21604090.260   -19942618.18149 -15513420.39647  21604090.070    21604093.730
  22055841.623   -16232198.82149 -12630391.14747  22055841.299    22055843.863
  24703890.748    -2306218.31849  -1770960.54445  24703889.953    24703896.202
  24457487.796    -6856141.04349  -5321874.48745  24457486.914    24457494.172
  21156863.385   -20927184.76649 -16289297.55347  21156862.889    21156865.184
 03  4 13  2 21 30.0000000  0  6G31G25G11G23G15G14
  24044959.778    -3152522.61349  -2428631.09345  24044959.341    24044965.066
  21591171.252   -20010507.82649 -15566321.36547  21591171.073    21591174.696
  22043540.730   -16296840.48449 -12680761.24747  22043540.405    22043542.987
  24716368.467    -2240647.72149  -1719866.59945  24716367.734    24716373.962
  24479290.503    -6741566.76949  -5232595.85145  24479289.710    24479296.953
  21168232.431   -20867439.94949 -16242743.15647  21168231.938    21168234.241
 03  4 13  2 22  0.0000000  0  6G31G25G11G23G15G14
  24059687.370    -3075128.86449  -2368324.35245  24059686.815    24059692.651
  21578328.720   -20077995.47149 -15618909.08747  21578328.534    21578332.164
  22031317.968   -16361071.83449 -12730811.63547  22031317.646    22031320.108
  24728865.207    -2174977.29849  -1668694.85945  24728864.473    24728870.544
  24501113.932    -6626884.10649  -5143232.74945  24501113.302    24501120.402
  21179649.409   -20807443.05849 -16195992.33547  21179648.924    21179651.219
 03  4 13  2 22 30.0000000  0  6G31G25G11G23G15G14
  24074440.878    -2997599.05449  -2307911.59245  24074440.302    24074446.217
  21565562.235   -20145083.51649 -15671185.43647  21565562.082    21565565.720
  22019172.678   -16424895.30549 -12780544.17747  22019172.334    22019174.891
  24741380.064    -2109211.41849  -1617448.74845  24741379.360    24741385.664
  24522956.507    -6512100.21849  -5053790.79045  24522955.989    24522963.201
  21191113.160   -20747200.61549 -16149050.17547  21191112.678    21191115.010
 03  4 13  2 23  0.0000000  0  6G31G25G11G23G15G14
  24089219.833    -2919934.75049  -2247394.02745  24089219.290    24089225.319
  21552872.401   -20211768.78149 -15723147.92247  21552872.257    21552875.875
  22007105.774   -16488307.22249 -12829956.04147  22007105.438    22007107.954
  24753913.497    -2043348.20649  -1566126.79945  24753912.933    24753919.057
  24544818.241    -6397215.59449  -4964270.31945  24544817.826    24544824.905
  21202623.557   -20686713.19749 -16101917.12747  21202623.069    21202625.409
 03  4 13  2 23 30.0000000  0  5G31G25G11G15G14
  24104022.943    -2842144.62149  -2186778.40945  24104022.382    24104028.477
  21540258.752   -20278054.19249 -15774798.83947  21540258.519    21540262.098
  21995116.582   -16551311.06149 -12879049.93247  21995116.228    21995118.667
  24566697.922    -6282238.27249  -4874677.64245  24566697.270    24566704.377
  21214179.087   -20625988.50749 -16054599.19747  21214178.580    21214180.937
 03  4 13  2 24  0.0000000  0  5G31G25G11G15G14
  24118851.002    -2764223.18149  -2126060.49945  24118850.407    24118856.504
  21527723.071   -20343929.29349 -15826130.04447  21527722.868    21527726.415
  21983206.936   -16613896.34149 -12927817.66347  21983206.593    21983209.079
  24588596.363    -6167161.69949  -4785007.59445  24588595.709    24588602.734
  21225781.030   -20565019.98349 -16007091.26347  21225780.538    21225782.882
 03  4 13  2 24 30.0000000  0  5G31G25G11G15G14
  24133702.811    -2686175.94249  -2065244.54145  24133702.275    24133708.425
  21515265.413   -20409394.51249 -15877141.85247  21515265.202    21515268.747
  21971376.888   -16676063.40249 -12976259.50947  21971376.563    21971379.079
  24610512.685    -6051990.61549  -4695263.90445  24610511.998    24610518.985
  21237428.542   -20503812.08949 -15959396.81147  21237428.044    21237430.349
 03  4 13  2 25  0.0000000  0  5G31G25G11G15G14
  24148578.708    -2608003.58149  -2004331.10245  24148578.137    24148584.252
  21502886.537   -20474445.52649 -15927830.89947  21502886.361    21502889.885
  21959627.302   -16737807.82549 -13024372.03047  21959626.996    21959629.484
  24632446.932    -5936724.83349  -4605446.42945  24632446.342    24632453.287
  21249121.687   -20442364.52149 -15911515.59347  21249121.159    21249123.478
 03  4 13  2 25 30.0000000  0  5G31G25G11G15G14
  24163477.075    -2529712.30649  -1943324.99345  24163476.563    24163482.609
  21490586.405   -20539082.99949 -15978197.71047  21490586.227    21490589.740
  21947957.964   -16799130.76949 -13072156.12847  21947957.635    21947960.123
  24654398.448    -5821369.50049  -4515559.16245  24654397.816    24654404.732
  21260859.448   -20380682.29749 -15863451.53547  21260858.914    21260861.213
 03  4 13  2 26  0.0000000  0  5G31G25G11G15G14
  24178397.894    -2451303.10749  -1882227.00845  24178397.383    24178403.503
  21478365.744   -20603302.87649 -16028239.13547  21478365.537    21478369.052
  21936369.609   -16860027.92349 -13119608.44347  21936369.268    21936371.771
  24676366.974    -5705924.85049  -4425602.29845  24676365.988    24676373.202
  21272641.881   -20318765.38749 -15815204.60847  21272641.357    21272643.634
 03  4 13  2 26 30.0000000  0  4G31G25G11G14
  24193340.564    -2372778.69349  -1821039.23345  24193340.020    24193346.340
  21466225.011   -20667102.70549 -16077953.23547  21466224.792    21466228.331
  21924862.692   -16920496.95349 -13166727.14947  21924862.384    21924864.876
  21284468.662   -20256615.33249 -15766776.00747  21284468.129    21284470.356
 03  4 13  2 27  0.0000000  0  4G31G25G11G14
  24208304.328    -2294144.18549  -1759765.69445  24208303.700    24208310.098
  21454164.039   -20730483.17949 -16127340.56847  21454163.811    21454167.360
  21913437.257   -16980538.17449 -13213512.50947  21913436.943    21913439.370
  21296338.957   -20194236.42249 -15718169.07447  21296338.432    21296340.677
 03  4 13  2 27 30.0000000  0  4G31G25G11G14
  24223288.715    -2215401.12649  -1698407.55345  24223288.106    24223294.430
  21442183.712   -20793440.19949 -16176397.94347  21442183.495    21442187.014
  21902093.994   -17040147.57949 -13259961.38947  21902093.656    21902096.091
  21308252.746   -20131629.02549 -15669384.10647  21308252.224    21308254.472
 03  4 13  2 28  0.0000000  0  4G31G25G11G14
  24238293.137    -2136552.46949  -1636967.13745  24238292.529    24238298.970
  21430284.295   -20855971.65349 -16225123.69847  21430284.093    21430287.614
  21890833.133   -17099323.78549 -13306072.70247  21890832.792    21890835.253
  21320209.656   -20068794.90949 -15620422.46747  21320209.136    21320211.405
 03  4 13  2 28 30.0000000  0  4G31G25G11G14
  24253316.630    -2057603.92749  -1575448.88045  24253315.979    24253322.433
  21418465.743   -20918078.33349 -16273518.46747  21418465.545    21418469.067
  21879654.621   -17158067.14549 -13351846.73947  21879654.271    21879656.712
  21332208.874   -20005738.67149 -15571287.75047  21332208.359    21332210.596
 03  4 13  2 29  0.0000000  0  4G31G25G11G14
  24268359.058    -1978555.91349  -1513853.12745  24268358.445    24268364.871
  21406728.917   -20979755.79649 -16321578.77547  21406728.710    21406732.228
  21868559.379   -17216372.80749 -13397279.70247  21868559.042    21868561.498
  21344250.410   -19942459.98449 -15521979.69247  21344249.893    21344252.140
 03  4 13  2 29 30.0000000  0  4G31G25G11G14
  24283419.639    -1899412.60549  -1452183.10845  24283418.998    24283425.291
  21395073.899   -21041003.06649 -16369303.87947  21395073.699    21395077.204
  21857547.590   -17274240.16949 -13442371.14247  21857547.265    21857549.694
  21356333.742   -19878961.77849 -15472500.58347  21356333.238    21356335.510
 03  4 13  2 30  0.0000000  0  4G31G25G11G14
  24298498.021    -1820176.01849  -1390440.40445  24298497.360    24298503.634
  21383501.339   -21101817.28049 -16416691.53347  21383501.120    21383504.615
  21846619.741   -17331666.43749 -13487118.86947  21846619.380    21846621.813
  21368458.645   -19815245.00149 -15422851.15747  21368458.124    21368460.420
 03  4 13  2 30 30.0000000  0  4G31G25G11G14
  24313593.191    -1740850.37449  -1328628.31645  24313592.580    24313598.806
  21372011.301   -21162197.45649 -16463740.97547  21372011.095    21372014.565
  21835775.987   -17388650.58549 -13531522.07947  21835775.637    21835778.095
  21380624.518   -19751312.87249 -15373033.92447  21380624.012    21380626.341
 03  4 13  2 31  0.0000000  0  4G31G25G11G14
  24328705.125    -1661436.80949  -1266747.70945  24328704.548    24328710.947
  21360604.637   -21222139.76649 -16510449.22447  21360604.421    21360607.863
  21825017.098   -17445188.72149 -13575577.75547  21825016.775    21825019.242
  21392831.408   -19687165.22349 -15323048.74947  21392830.891    21392833.235
 03  4 13  2 31 30.0000000  0  4G31G25G11G14
  24343833.043    -1581939.95849  -1204802.21345  24343832.485    24343838.797
  21349281.264   -21281644.42049 -16556816.44747  21349281.030    21349284.444
  21814343.101   -17501280.88849 -13619285.91547  21814342.775    21814345.223
  21405078.627   -19622805.69849 -15272898.47747  21405078.113    21405080.472
 03  4 13  2 32  0.0000000  0  4G31G25G11G14
  24358976.206    -1502362.55749  -1142793.95245  24358975.562    24358981.798
  21338041.624   -21340708.90549 -16602840.67447  21338041.381    21338044.768
  21803754.338   -17556924.89149 -13662644.86047  21803754.005    21803756.465
  21417365.836   -19558236.08049 -15222584.49347  21417365.277    21417367.696
 03  4 13  2 32 30.0000000  0  4G31G25G11G14
  24374134.360    -1422706.20849  -1080724.15445  24374133.788    24374139.970
  21326886.379   -21399329.96149 -16648519.37547  21326886.154    21326889.510
  21793251.641   -17612117.03649 -13705651.70747  21793251.306    21793253.751
  21429692.870   -19493456.89149 -15172107.21247  21429692.353    21429694.809
 03  4 13  2 33  0.0000000  0  4G31G25G11G14
  24389306.777    -1342975.08449  -1018596.10845  24389306.264    24389312.370
  21315815.620   -21457507.10349 -16693852.16647  21315815.378    21315818.710
  21782835.035   -17666856.73249 -13748306.00447  21782834.717    21782837.133
  21442059.291   -19428470.96149 -15121468.83647  21442058.782    21442061.260
 03  4 13  2 33 30.0000000  0  4G31G25G11G14
  24404492.681    -1263173.02749   -956412.78745  24404492.101    24404498.218
  21304829.524   -21515239.27149 -16738838.22747  21304829.284    21304832.624
  21772504.674   -17721143.09549 -13790607.05147  21772504.349    21772506.750
  21454464.490   -19363281.21849 -15070671.64547  21454463.974    21454466.445
 03  4 13  2 34  0.0000000  0  4G31G25G11G14
  24419691.828    -1183300.93749   -894174.88245  24419691.270    24419697.364
  21293928.841   -21572522.27549 -16783474.29147  21293928.640    21293931.991
  21762261.303   -17774972.23149 -13832551.81747  21762260.970    21762263.366
  21466908.503   -19297887.55449 -15019715.55547  21466907.999    21466910.436
 03  4 13  2 34 30.0000000  0  4G31G25G11G14
  24434903.726    -1103362.12049   -831884.98845  24434903.148    24434909.470
  21283113.884   -21629354.86349 -16827759.38347  21283113.737    21283117.049
  21752105.308   -17828342.40249 -13874138.95247  21752104.981    21752107.329
  21479390.932   -19232292.11849 -14968602.23247  21479390.407    21479392.807
 03  4 13  2 35  0.0000000  0  4G31G25G11G14
  24450127.404    -1023362.27049   -769547.56145  24450126.809    24450133.117
  21272384.589   -21685737.97249 -16871694.22547  21272384.355    21272387.671
  21742036.518   -17881254.29349 -13915368.98247  21742036.162    21742038.526
  21491910.902   -19166499.38849 -14917335.18547  21491910.390    21491912.744
 03  4 13  2 35 30.0000000  0  4G31G25G11G14
  24465362.528     -943301.03049   -707162.28645  24465361.933    24465368.394
  21261741.691   -21741666.25549 -16915274.66247  21261741.513    21261744.806
  21732055.836   -17933703.00549 -13956238.09647  21732055.491    21732057.860
  21504468.680   -19100508.13749 -14865913.43847  21504468.156    21504470.445
 03  4 13  2 36  0.0000000  0  4G31G25G11G14
  24480608.550     -863182.35449   -644732.26445  24480608.018    24480614.663
  21251185.592   -21797139.22449 -16958500.30747  21251185.361    21251188.617
  21722163.481   -17985687.56249 -13996745.53647  21722163.130    21722165.482
  21517063.718   -19034321.03349 -14814339.08447  21517063.177    21517065.393
 03  4 13  2 36 30.0000000  0  4G31G25G11G14
  24495864.993     -783009.82149   -582260.27845  24495864.516    24495871.065
  21240716.320   -21852155.28049 -17001369.91947  21240716.088    21240719.318
  21712359.564   -18037207.16449 -14036890.67347  21712359.256    21712361.628
  21529695.493   -18967940.77149 -14762614.21647  21529694.952    21529697.115
 03  4 13  2 37  0.0000000  0  4G31G25G11G14
  24511131.076     -702786.05649   -519748.34745  24511130.567    24511137.209
  21230334.316   -21906712.72349 -17043882.16747  21230334.126    21230337.350
  21702644.705   -18088259.13849 -14076671.42247  21702644.392    21702646.725
  21542363.781   -18901368.50449 -14710739.72747  21542363.252    21542365.397
 03  4 13  2 37 30.0000000  0  4G31G25G11G14
  24526406.638     -622512.77949   -457197.86145  24526406.142    24526412.835
  21220040.109   -21960808.84249 -17086034.94847  21220039.922    21220043.135
  21693019.347   -18138840.89249 -14116085.77647  21693019.005    21693021.323
  21555068.440   -18834605.16349 -14658716.35447  21555067.877    21555070.008
 03  4 13  2 38  0.0000000  0  4G31G25G11G14
  24541690.613     -542195.71849   -394613.25245  24541689.993    24541696.964
  21209833.576   -22014444.46549 -17127828.89547  21209833.378    21209836.586
  21683483.277   -18188953.08449 -14155134.22747  21683482.957    21683485.288
  21567808.549   -18767655.30549 -14606547.64047  21567807.987    21567810.147
 03  4 13  2 38 30.0000000  0  4G31G25G11G14
  24556982.809     -461834.60249   -331994.29045  24556982.174    24556989.207
  21199715.655   -22067614.42349 -17169259.98847  21199715.433    21199718.632
  21674037.492   -18238590.95749 -14193813.08747  21674037.196    21674039.507
  21580584.323   -18700517.65249 -14554232.59647  21580583.813    21580585.992
 03  4 13  2 39  0.0000000  0  5G31G20G25G11G14
  24572281.335     -381441.02649   -269350.05745  24572280.794    24572287.662
  24724281.707    -3160549.17859  -2214201.65245  24724281.176    24724286.645
  21189684.976   -22120325.86049 -17210333.78647  21189684.747    21189687.928
  21664680.763   -18287761.21449 -14232127.56147  21664680.444    21664682.761
  21593393.906   -18633202.49249 -14501779.22847  21593393.435    21593395.666
 03  4 13  2 39 30.0000000  0  5G31G20G25G11G14
  24587586.450     -301012.84749   -206678.86445  24587585.878    24587592.781
  24707983.195    -3246199.41649  -2280942.02545  24707982.619    24707987.877
  21179742.842   -22172571.91049 -17251044.95247  21179742.600    21179745.806
  21655414.241   -18336457.00849 -14270072.33247  21655413.929    21655416.223
  21606237.969   -18565706.55849 -14449185.00047  21606237.483    21606239.719
 03  4 13  2 40  0.0000000  0  5G31G20G25G11G14
  24602898.737     -220546.78249   -143978.13645  24602898.248    24602905.092
  24691679.270    -3331877.02649  -2347703.72645  24691678.707    24691683.862
  21169890.706   -22224344.86749 -17291387.46947  21169890.510    21169893.730
  21646239.495   -18384670.60749 -14307641.36047  21646239.170    21646241.458
  21619117.338   -18498025.44049 -14396446.46847  21619116.817    21619119.072
 03  4 13  2 40 30.0000000  0  5G31G20G25G11G14
  24618217.399     -140047.42349    -81251.48045  24618216.913    24618223.666
  24675369.952    -3417583.25249  -2414487.73345  24675369.328    24675374.476
  21160128.636   -22275644.94149 -17331361.51347  21160128.398    21160131.598
  21637156.552   -18432401.69149 -14344834.40347  21637156.219    21637158.539
  21632031.213   -18430162.77049 -14343566.47347  21632030.657    21632032.922
 03  4 13  2 41  0.0000000  0  5G31G20G25G11G14
  24633541.510      -59519.14649    -18502.26745  24633540.964    24633547.709
  24659054.913    -3503318.85649  -2481294.63545  24659054.182    24659059.303
  21150456.554   -22326471.80249 -17370966.81548  21150456.354    21150459.551
  21628165.406   -18479650.64849 -14381651.76547  21628165.073    21628167.388
  21644978.926   -18362121.89049 -14290547.61147  21644978.383    21644980.641
 03  4 13  2 41 30.0000000  0  5G31G20G25G11G14
  24648870.523       21035.24649     44267.28045  24648870.032    24648876.759
  24642734.320    -3589083.52649  -2548124.18845  24642733.461    24642738.621
  21140874.843   -22376823.83349 -17410202.11748  21140874.647    21140877.828
  21619266.388   -18526415.24649 -14418091.69047  21619266.044    21619268.384
  21657960.271   -18293904.45249 -14237391.16747  21657959.746    21657961.999
 03  4 13  2 42  0.0000000  0  5G31G20G25G11G14
  24664204.041      101613.27249    107055.25045  24664203.637    24664210.288
  24626408.517    -3674876.28649  -2614975.61645  24626407.703    24626412.607
  21131383.890   -22426699.01349 -17449065.85248  21131383.688    21131386.848
  21610459.965   -18572693.15049 -14454152.38747  21610459.660    21610462.000
  21670975.064   -18225511.40549 -14184097.88847  21670974.527    21670976.749
 03  4 13  2 42 30.0000000  0  5G31G20G25G11G14
  24679541.290      182209.99049    169857.78645  24679540.859    24679547.606
  24610077.021    -3760698.80849  -2681850.23345  24610076.199    24610081.105
  21121983.534   -22476098.21849 -17487558.69748  21121983.295    21121986.441
  21601746.056   -18618485.01649 -14489834.34347  21601745.733    21601748.096
  21684022.455   -18156946.91049 -14130671.01047  21684021.914    21684024.119
 03  4 13  2 43  0.0000000  0  5G31G20G25G11G14
  24694881.554      262822.93849    232672.96545  24694881.099    24694887.820
  24593739.972    -3846549.93649  -2748747.14045  24593739.208    24593744.184
  21112674.195   -22525018.80249 -17525678.59548  21112673.970    21112677.128
  21593125.046   -18663788.63349 -14525135.85147  21593124.751    21593127.079
  21697102.191   -18088212.30249 -14077111.57747  21697101.669    21697103.914
 03  4 13  2 43 30.0000000  0  5G31G20G25G11G14
  24710224.490      343450.29549    295499.35945  24710224.058    24710230.645
  24577397.847    -3932428.09249  -2815665.11245  24577397.042    24577402.189
  21103456.389   -22573458.42949 -17563423.72348  21103456.201    21103459.311
  21584597.487   -18708601.39149 -14560054.86847  21584597.155    21584599.496
  21710214.119   -18019308.32749 -14023420.17147  21710213.622    21710215.927
 03  4 13  2 44  0.0000000  0  5G31G20G25G11G14
  24725569.501      424088.38849    358334.12745  24725568.945    24725575.764
  24561050.428    -4018333.66449  -2882604.46445  24561049.708    24561055.028
  21094330.260   -22621416.45649 -17600793.56948  21094330.059    21094333.163
  21576163.456   -18752922.42349 -14594590.71947  21576163.143    21576165.459
  21723357.875   -17950237.46949 -13969598.72847  21723357.383    21723359.705
 03  4 13  2 44 30.0000000  0  5G31G20G25G11G14
  24740915.925      504734.64949    421175.26845  24740915.391    24740922.352
  24544697.977    -4104265.82149  -2949564.50545  24544697.230    24544702.383
  21085296.088   -22668890.97949 -17637786.66648  21085295.933    21085299.033
  21567823.336   -18796749.93749 -14628742.01647  21567823.007    21567825.317
  21736533.155   -17881001.05949 -13915648.28147  21736532.632    21736534.948
 03  4 13  2 45  0.0000000  0  5G31G20G25G11G14
  24756263.667      585387.06349    484021.19045  24756263.115    24756270.179
  24528340.789    -4190222.97449  -3016544.01645  24528339.984    24528345.096
  21076354.395   -22715879.86049 -17674401.33848  21076354.204    21076357.311
  21559577.551   -18840081.74549 -14662507.04647  21559577.235    21559579.512
  21749739.598   -17811600.44249 -13861569.88147  21749739.089    21749741.460
 03  4 13  2 45 30.0000000  0  5G31G20G25G11G14
  24771611.489      666040.43949    546867.87745  24771611.041    24771618.024
  24511978.640    -4276206.89949  -3083544.39745  24511977.851    24511982.901
  21067505.008   -22762383.60449 -17710637.98848  21067504.820    21067507.895
  21551426.036   -18882918.16249 -14695886.06047  21551425.728    21551427.981
  21762976.590   -17742039.22849 -13807366.34847  21762976.115    21762978.510
 03  4 13  2 46  0.0000000  0  5G31G20G25G11G14
  24786959.433      746693.26649    609714.13145  24786958.945    24786965.844
  24495611.607    -4362215.88049  -3150564.31245  24495610.892    24495615.773
  21058748.369   -22808399.80249 -17746494.72548  21058748.182    21058751.259
  21543369.348   -18925256.46049 -14728876.92547  21543369.026    21543371.325
  21776244.127   -17672317.82149 -13753037.98647  21776243.660    21776246.079
 03  4 13  2 46 30.0000000  0  5G31G20G25G11G14
  24802306.687      827342.90349    672557.88245  24802306.210    24802312.995
  24479240.016    -4448249.03649  -3217603.04945  24479239.185    24479243.974
  21050084.824   -22853926.81449 -17781970.28048  21050084.660    21050087.725
  21535407.645   -18967095.13949 -14761478.47947  21535407.328    21535409.652
  21789541.778   -17602438.09549 -13698586.25847  21789541.324    21789543.738
 03  4 13  2 47  0.0000000  0  5G31G20G25G11G14
  24817652.498      907985.90049    735396.49145  24817651.977    24817659.041
  24462863.845    -4534306.41249  -3284660.65745  24462862.953    24462867.898
  21041514.528   -22898963.87549 -17817064.05148  21041514.363    21041517.434
  21527541.318   -19008433.06349 -14793689.83247  21527540.984    21527543.273
  21802869.242   -17532401.94949 -13644012.65147  21802868.788    21802871.209
 03  4 13  2 47 30.0000000  0  5G31G20G25G11G14
  24832996.875      988620.64649    798228.64545  24832996.354    24833003.531
  24446483.244    -4620386.23549  -3351735.78845  24446482.443    24446487.276
  21033037.937   -22943508.50149 -17851774.11448  21033037.751    21033040.808
  21519770.769   -19049267.32149 -14825508.72347  21519770.463    21519772.741
  21816226.346   -17462210.06049 -13589317.67747  21816225.871    21816228.283
 03  4 13  2 48  0.0000000  0  5G31G20G25G11G14
  24848338.709     1069242.17349    861050.50445  24848338.233    24848345.170
  24430098.310    -4706489.88349  -3418829.48245  24430097.465    24430102.187
  21024654.975   -22987561.14949 -17886100.80848  21024654.794    21024657.833
  21512095.983   -19089598.63449 -14856935.70247  21512095.666    21512097.936
  21829612.347   -17391866.05949 -13534504.18147  21829611.894    21829614.317
 03  4 13  2 48 30.0000000  0  5G31G20G25G11G14
  24863678.040     1149849.98749    923861.69145  24863677.693    24863684.449
  24413709.360    -4792614.48649  -3485939.50245  24413708.641    24413713.203
  21016366.292   -23031118.39949 -17920041.48748  21016366.113    21016369.109
  21504517.588   -19129423.32149 -14887967.91647  21504517.263    21504519.509
  21843027.435   -17321369.56149 -13479571.85847  21843026.967    21843029.371
 03  4 13  2 49  0.0000000  0  5G31G20G25G11G14
  24879013.710     1230438.80349    986658.06345  24879013.368    24879020.030
  24397315.951    -4878761.79449  -3553067.22045  24397315.260    24397319.931
  21008171.657   -23074181.47849 -17953597.08848  21008171.456    21008174.441
  21497035.367   -19168742.44349 -14918606.18147  21497035.072    21497037.300
  21856470.785   -17250724.54049 -13424523.80947  21856470.280    21856472.658
 03  4 13  2 49 30.0000000  0  5G31G20G25G11G14
  24894345.543     1311007.68449   1049438.87945  24894345.024    24894352.058
  24380918.702    -4964929.52849  -3620210.84645  24380917.962    24380922.882
  21000071.651   -23116746.87549 -17986764.88548  21000071.493    21000074.457
  21489650.100   -19207552.61749 -14948847.86347  21489649.775    21489651.988
  21869942.379   -17179930.87049 -13369359.92547  21869941.874    21869944.230
 03  4 13  2 50  0.0000000  0  5G31G20G25G11G14
  24909673.243     1391554.66149   1112202.62545  24909672.643    24909679.764
  24364517.791    -5051116.22149  -3687369.23345  24364517.046    24364522.028
  20992066.816   -23158812.79749 -18019543.48548  20992066.605    20992069.558
  21482361.970   -19245851.68849 -14978691.27947  21482361.641    21482363.886
  21883442.125   -17108989.37049 -13314080.84647  21883441.619    21883443.926
 03  4 13  2 50 30.0000000  0  5G31G20G25G11G14
  24924995.651     1472074.12649   1174944.95245  24924994.935    24925002.176
  24348112.899    -5137323.81349  -3754543.90245  24348112.193    24348117.177
  20984156.807   -23200380.15449 -18051933.59448  20984156.561    20984159.517
  21475170.855   -19283641.03949 -15008137.51147  21475170.539    21475172.799
  21896969.216   -17037904.47849 -13258690.03147  21896968.664    21896970.930
 03  4 13  2 51  0.0000000  0  4G20G25G11G14
  24331704.217    -5223551.40449  -3821734.17645  24331703.502    24331708.637
  20976341.891   -23241447.60249 -18083934.16148  20976341.651    20976344.595
  21468077.231   -19320918.40349 -15037184.79247  21468076.920    21468079.204
  21910523.376   -16966677.40749 -13203188.42747  21910522.801    21910525.002
 03  4 13  2 51 30.0000000  0  4G20G25G11G14
  24315292.232    -5309797.55149  -3888938.88645  24315291.594    24315296.465
  20968622.429   -23282013.50449 -18115543.91348  20968622.205    20968625.130
  21461081.321   -19357682.14049 -15065831.84747  21461080.993    21461083.254
  21924104.382   -16895309.06649 -13147576.74347  21924103.809    21924105.985
 03  4 13  2 52  0.0000000  0  4G20G25G11G14
  24298877.314    -5396058.84049  -3956155.37745  24298876.538    24298881.108
  20960999.139   -23322073.76449 -18146759.66248  20960998.953    20961001.868
  21454183.936   -19393928.22749 -15094075.54547  21454183.618    21454185.872
  21937712.408   -16823798.17449 -13091853.98047  21937711.858    21937714.072
 03  4 13  2 52 30.0000000  0  4G20G25G11G14
  24282458.780    -5482338.15749  -4023385.92645  24282458.054    24282462.648
  20953471.588   -23361630.87049 -18177583.34748  20953471.424    20953474.350
  21447384.640   -19429658.68049 -15121917.43947  21447384.315    21447386.572
  21951346.607   -16752150.09349 -13036024.31147  21951346.039    21951348.324
 03  4 13  2 53  0.0000000  0  4G20G25G11G14
  24266037.426    -5568632.61249  -4090628.28545  24266036.782    24266041.339
  20946040.563   -23400681.35749 -18208012.25548  20946040.358    20946043.264
  21440684.144   -19464869.90249 -15149354.74447  21440683.843    21440686.067
  21965007.013   -16680364.39749 -12980087.41947  21965006.413    21965008.722
 03  4 13  2 53 30.0000000  0  4G20G25G11G14
  24249613.291    -5654942.97449  -4157883.01345  24249612.592    24249616.951
  20938705.831   -23439225.41649 -18238046.55048  20938705.636    20938708.544
  21434082.459   -19499562.10849 -15176387.62147  21434082.114    21434084.327
  21978692.978   -16608443.89549 -12924045.48447  21978692.398    21978694.722
 03  4 13  2 54  0.0000000  0  4G20G25G11G14
  24233186.314    -5741266.86649  -4225148.30845  24233185.585    24233190.009
  20931467.969   -23477260.34349 -18267684.11648  20931467.806    20931470.687
  21427580.041   -19533732.40949 -15203013.81247  21427579.715    21427581.926
  21992404.601   -16536388.53849 -12867898.46447  21992404.016    21992406.418
 03  4 13  2 54 30.0000000  0  4G20G25G11G14
  24216756.524    -5827605.26349  -4292424.89645  24216755.889    24216760.419
  20924326.957   -23514786.95149 -18296925.59348  20924326.710    20924329.589
  21421176.898   -19567381.24049 -15229233.66447  21421176.568    21421178.776
  22006141.129   -16464201.93349 -12811649.17447  22006140.616    22006143.093
 03  4 13  2 55  0.0000000  0  4G20G25G11G14
  24200324.474    -5913955.93849  -4359711.06045  24200323.865    24200328.384
  20917283.045   -23551802.46449 -18325768.81848  20917282.846    20917285.716
  21414873.449   -19600505.73349 -15255044.94847  21414873.122    21414875.351
  22019902.794   -16391883.64349 -12755297.27347  22019902.309    22019904.785
 03  4 13  2 55 30.0000000  0  4G20G25G11G14
  24183889.850    -6000319.82549  -4427007.54745  24183889.202    24183893.859
  20910336.400   -23588307.10749 -18354213.95848  20910336.196    20910339.068
  21408669.763   -19633106.34549 -15280448.01047  21408669.437    21408671.646
  22033689.006   -16319436.94449 -12698845.30947  22033688.525    22033690.916
 03  4 13  2 56  0.0000000  0  4G20G25G11G14
  24167453.171    -6086694.72949  -4494312.61045  24167452.561    24167457.158
  20903487.301   -23624298.96349 -18382259.52848  20903487.127    20903489.994
  21402566.249   -19665180.46449 -15305440.82647  21402565.942    21402568.102
  22047499.570   -16246862.19049 -12642293.56447  22047499.064    22047501.447
 03  4 13  2 56 30.0000000  0  4G20G25G11G14
  24151014.381    -6173080.88549  -4561626.44545  24151013.732    24151018.461
  20896735.927   -23659777.64849 -18409905.22348  20896735.741    20896738.595
  21396562.993   -19696727.73449 -15330023.10347  21396562.648    21396564.847
  22061333.950   -16174161.79749 -12585643.92047  22061333.487    22061335.863
 03  4 13  2 57  0.0000000  0  4G20G25G11G14
  24134573.622    -6259476.91349  -4628947.96645  24134572.973    24134577.732
  20890082.497   -23694741.75649 -18437149.94748  20890082.287    20890085.111
  21390660.325   -19727746.59449 -15354193.63447  21390660.004    21390662.173
  22075192.096   -16101336.78249 -12528897.16447  22075191.623    22075194.015
 03  4 13  2 57 30.0000000  0  4G20G25G11G14
  24118131.137    -6345882.61749  -4696277.03645  24118130.426    24118135.236
  20883527.081   -23729190.42449 -18463993.03648  20883526.875    20883529.713
  21384858.321   -19758236.25449 -15377951.80447  21384857.981    21384860.149
  22089073.602   -16028389.17549 -12472054.89347  22089073.123    22089075.497
 03  4 13  2 58  0.0000000  0  4G20G25G11G14
  24101686.960    -6432297.51249  -4763613.27645  24101686.240    24101690.962
  20877069.759   -23763123.74049 -18490434.54548  20877069.576    20877072.398
  21379157.179   -19788195.98749 -15401297.04747  21379156.868    21379159.037
  22102978.110   -15955320.85549 -12415118.55047  22102977.617    22102979.977
 03  4 13  2 58 30.0000000  0  4G20G25G11G14
  24085241.276    -6518720.10649  -4830955.50845  24085240.545    24085245.153
  20870710.969   -23796539.56649 -18516472.81948  20870710.728    20870713.538
  21373557.196   -19817623.99349 -15424227.95947  21373556.874    21373559.011
  22116905.365   -15882132.36749 -12358088.56047  22116904.865    22116907.303
 03  4 13  2 59  0.0000000  0  4G20G25G11G14
  24068794.122    -6605149.89949  -4898303.35445  24068793.351    24068798.080
  20864450.657   -23829437.37149 -18542107.44348  20864450.472    20864453.238
  21368058.645   -19846519.15449 -15446743.66947  21368058.311    21368060.423
  22130855.120   -15808825.75749 -12300966.54047  22130854.628    22130857.100
 03  4 13  2 59 30.0000000  0  4G20G25G11G14
  24052345.899    -6691585.74349  -4965655.91545  24052345.078    24052349.888
  20858289.265   -23861815.81449 -18567337.36448  20858289.037    20858291.780
  21362661.598   -19874880.69649 -15468843.56147  21362661.257    21362663.490
  22144827.174   -15735402.23149 -12243753.40647  22144826.656    22144829.168
 03  4 13  3  0  0.0000000  0  4G20G25G11G14
  24035896.461    -6778028.55449  -5033013.89045  24035895.546    24035900.327
  20852226.424   -23893675.91449 -18592163.38848  20852226.224    20852228.974
  21357366.046   -19902708.80249 -15490527.80447  21357365.733    21357367.923
  22158820.846   -15661865.00549 -12186451.68647  22158820.358    22158822.863
 03  4 13  3  0 30.0000000  0  4G20G25G11G14
  24019446.130    -6864475.32949  -5100374.96245  24019445.284    24019449.907
  20846262.861   -23925014.50449 -18616583.03448  20846262.673    20846265.393
  21352172.708   -19930000.10149 -15511793.75147  21352172.379    21352174.541
  22172836.366   -15588213.22449 -12129060.69847  22172835.845    22172838.330
 03  4 13  3  1  0.0000000  0  4G20G25G11G14
  24002995.110    -6950925.41649  -5167738.61545  24002994.352    24002998.918
  20840398.659   -23955830.91249 -18640595.79748  20840398.482    20840401.207
  21347081.549   -19956754.22449 -15532641.11447  21347081.213    21347083.444
  22186873.329   -15514448.62049 -12071581.80447  22186872.828    22186875.261
 03  4 13  3  1 30.0000000  0  4G20G25G11G14
  23986543.419    -7037378.90049  -5235104.90145  23986542.672    23986547.214
  20834633.834   -23986125.07649 -18664201.60448  20834633.663    20834636.382
  21342092.701   -19982970.91249 -15553069.69147  21342092.357    21342094.593
  22200931.340   -15440573.38649 -12014016.68947  22200930.825    22200933.214
 03  4 13  3  2  0.0000000  0  4G20G25G11G14
  23970091.617    -7123833.48649  -5302472.04545  23970090.771    23970095.414
  20828968.808   -24015894.97549 -18687398.90548  20828968.635    20828971.308
  21337206.578   -20008647.45549 -15573077.38747  21337206.250    21337208.458
  22215010.349   -15366587.76549 -11956365.56447  22215009.829    22215012.169
 03  4 13  3  2 30.0000000  0  4G20G25G11G14
  23953639.084    -7210291.85249  -5369842.12145  23953638.271    23953642.897
  20823403.025   -24045143.53149 -18710189.95448  20823402.818    20823405.470
  21332422.704   -20033786.80149 -15592666.48647  21332422.401    21332424.576
  22229109.389   -15292496.74249 -11898632.30647  22229108.858    22229111.220
 03  4 13  3  3  0.0000000  0  4G20G25G11G14
  23937186.673    -7296749.29549  -5437211.48345  23937185.901    23937190.540
  20817937.285   -24073866.03549 -18732571.10248  20817937.072    20817939.722
  21327742.036   -20058383.99549 -15611833.13347  21327741.712    21327743.869
  22243229.012   -15218297.82849 -11840814.98447  22243228.493    22243230.831
 03  4 13  3  3 30.0000000  0  4G20G25G11G14
  23920734.330    -7383206.88449  -5504580.94145  23920733.541    23920738.269
  20812571.390   -24102063.66049 -18754543.24848  20812571.217    20812573.910
  21323164.287   -20082440.11049 -15630578.15947  21323163.961    21323166.144
  22257368.475   -15143994.53549 -11782916.32947  22257367.945    22257370.308
 03  4 13  3  4  0.0000000  0  4G20G25G11G14
  23904282.350    -7469662.65149  -5571948.97345  23904281.570    23904286.156
  20807305.749   -24129734.64249 -18776105.02448  20807305.582    20807308.266
  21318689.888   -20105953.16949 -15648900.02347  21318689.569    21318691.766
  22271527.714   -15069586.98649 -11724936.43247  22271527.223    22271529.567
 03  4 13  3  4 30.0000000  0  4G20G25G11G14
  23887830.438    -7556117.74649  -5639316.48645  23887829.670    23887834.187
  20802140.237   -24156879.71549 -18797257.00148  20802140.068    20802142.715
  21314318.630   -20128924.13149 -15666799.46247  21314318.325    21314320.535
  22285706.193   -14995078.63149 -11666877.98247  22285705.687    22285707.989
 03  4 13  3  5  0.0000000  0  4G20G25G11G14
  23871379.191    -7642568.99849  -5706681.02545  23871378.379    23871383.023
  20797075.224   -24183496.43149 -18817997.26948  20797075.035    20797077.685
  21310051.186   -20151349.70149 -15684273.93747  21310050.879    21310053.061
  22299903.981   -14920468.73549 -11608740.42447  22299903.498    22299905.814
 03  4 13  3  5 30.0000000  0  4G20G25G11G14
  23854928.704    -7729016.38149  -5774042.53845  23854927.967    23854932.495
  20792110.644   -24209585.20849 -18838326.15848  20792110.482    20792113.125
  21305887.415   -20173230.51449 -15701323.91647  21305887.121    21305889.293
  22314120.713   -14845759.25049 -11550525.24947  22314120.226    22314122.585
 03  4 13  3  6  0.0000000  0  4G20G25G11G14
  23838479.361    -7815458.05949  -5841399.61645  23838478.585    23838483.146
  20787246.872   -24235144.36049 -18858242.35348  20787246.709    20787249.327
  21301827.655   -20194564.64649 -15717947.90947  21301827.342    21301829.533
  22328356.329   -14770950.84949 -11492233.00047  22328355.821    22328358.139
 03  4 13  3  6 30.0000000  0  4G20G25G11G14
  23822030.896    -7901895.42849  -5908753.36045  23822030.131    23822034.539
  20782483.563   -24260175.64449 -18877747.22348  20782483.366    20782486.006
  21297871.635   -20215353.58049 -15734147.07347  21297871.331    21297873.514
  22342610.092   -14696047.28649 -11433866.60647  22342609.553    22342611.819
 03  4 13  3  7  0.0000000  0  4G20G25G11G14
  23805583.608    -7988326.88849  -5976102.49045  23805582.868    23805587.118
  20777820.909   -24284677.80849 -18896839.79448  20777820.754    20777823.374
  21294019.685   -20235595.80449 -15749920.22947  21294019.407    21294021.555
  22356881.692   -14621049.65049 -11375426.91547  22356881.183    22356883.419
 03  4 13  3  7 30.0000000  0  5G20G 1G25G11G14
  23789138.126    -8074748.44849  -6043443.91445  23789137.334    23789141.645
  24622345.782    -5496818.16059  -4268123.79345  24622345.415    24622352.739
  20773259.679   -24308647.38449 -18915517.36048  20773259.462    20773262.083
  21290272.461   -20255287.63649 -15765264.50447  21290272.151    21290274.299
  22371171.653   -14545955.72549 -11316912.17946  22371171.141    22371173.349
 03  4 13  3  8  0.0000000  0  5G20G 1G25G11G14
  23772694.597    -8161158.99049  -6110776.75745  23772693.837    23772698.162
  24606810.309    -5578457.42949  -4331738.68945  24606809.870    24606817.131
  20768799.863   -24332083.32449 -18933779.10948  20768799.699    20768802.348
  21286630.198   -20274427.92349 -15780179.00347  21286629.883    21286632.035
  22385479.608   -14470766.82749 -11258323.44446  22385479.115    22385481.417
 03  4 13  3  8 30.0000000  0  5G20G 1G25G11G14
  23756252.971    -8247560.06449  -6178102.23245  23756252.219    23756256.469
  24591303.427    -5659946.19949  -4395236.31845  24591303.005    24591310.340
  20764441.276   -24354987.94849 -18951626.84148  20764441.097    20764443.709
  21283092.530   -20293018.51449 -15794665.17947  21283092.202    21283094.377
  22399804.965   -14395486.81149 -11199663.70746  22399804.448    22399806.726
 03  4 13  3  9  0.0000000  0  5G20G 1G25G11G14
  23739813.213    -8333951.58649  -6245420.25045  23739812.380    23739816.612
  24575825.218    -5741284.70249  -4458616.87745  24575824.721    24575832.042
  20760183.754   -24377361.43049 -18969060.70048  20760183.564    20760186.162
  21279659.412   -20311059.65649 -15808723.21047  21279659.098    21279661.250
  22414147.227   -14320117.75749 -11140934.58846  22414146.689    22414148.989
 03  4 13  3  9 30.0000000  0  5G20G 1G25G11G14
  23723375.540    -8420332.26149  -6312729.82045  23723374.789    23723378.846
  24560375.558    -5822472.29549  -4521879.83045  24560375.086    24560382.401
  20756027.422   -24399203.12349 -18986080.17648  20756027.182    20756029.804
  21276331.020   -20328550.55349 -15822352.48047  21276330.703    21276332.859
  22428506.126   -14244660.90349 -11082137.06446  22428505.609    22428507.972
 03  4 13  3 10  0.0000000  0  5G20G 1G25G11G14
  23706940.156    -8506700.41049  -6380029.63545  23706939.447    23706943.512
  24544955.052    -5903508.12249  -4585024.52445  24544954.521    24544961.651
  20751972.448   -24420512.02049 -19002684.49048  20751972.219    20751974.821
  21273107.536   -20345489.99649 -15835552.04947  21273107.224    21273109.392
  22442881.724   -14169116.81349 -11023271.54946  22442881.207    22442883.525
 03  4 13  3 10 30.0000000  0  5G20G 1G25G11G14
  23690507.042    -8593056.62749  -6447320.13845  23690506.314    23690510.415
  24529562.960    -5984393.24849  -4648051.79245  24529562.488    24529569.678
  20748018.650   -24441289.07349 -19018874.37148  20748018.436    20748021.026
  21269988.875   -20361878.64149 -15848322.41547  21269988.563    21269990.724
  22457273.468   -14093488.25749 -10964340.22246  22457272.903    22457275.191
 03  4 13  3 11  0.0000000  0  5G20G 1G25G11G14
  23674076.850    -8679397.23549  -6514598.49245  23674076.108    23674080.309
  24514200.219    -6065124.55149  -4710959.22445  24514199.713    24514206.914
  20744166.702   -24461531.17449 -19034647.41248  20744166.502    20744169.049
  21266975.655   -20377713.30249 -15860661.10347  21266975.329    21266977.512
  22471681.392   -14017773.97549 -10905342.10346  22471680.829    22471683.171
 03  4 13  3 11 30.0000000  0  5G20G 1G25G11G14
  23657649.663    -8765722.48049  -6581864.85245  23657648.990    23657653.169
  24498866.571    -6145703.35249  -4773747.81745  24498866.008    24498873.266
  20740416.377   -24481239.27449 -19050004.34948  20740416.179    20740418.718
  21264067.750   -20392994.56949 -15872568.57147  21264067.432    21264069.576
  22486105.005   -13941976.57449 -10846279.21446  22486104.504    22486106.962
 03  4 13  3 12  0.0000000  0  5G20G 1G25G11G14
  23641225.775    -8852030.45949  -6649117.76945  23641225.080    23641229.183
  24483562.129    -6226128.17249  -4836416.43045  24483561.603    24483568.703
  20736767.894   -24500412.15549 -19064944.23548  20736767.714    20736770.235
  21261265.344   -20407721.20149 -15884043.86247  21261265.023    21261267.205
  22500544.556   -13866096.48649 -10787151.89246  22500544.067    22500546.436
 03  4 13  3 12 30.0000000  0  5G20G 1G25G11G14
  23624805.090    -8938321.78149  -6716357.68945  23624804.359    23624808.414
  24468286.749    -6306400.25949  -4898966.03345  24468286.428    24468293.283
  20733220.980   -24519051.01949 -19079467.99748  20733220.790    20733223.324
  21258568.260   -20421894.30949 -15895087.83647  21258567.960    21258570.112
  22514999.283   -13790136.35049 -10727962.18446  22514998.791    22515001.152
 03  4 13  3 13  0.0000000  0  5G20G 1G25G11G14
  23608387.729    -9024595.05849  -6783583.54445  23608387.004    23608391.107
  24453040.758    -6386518.97349  -4961396.12245  24453040.302    24453047.121
  20729775.840   -24537155.40249 -19093575.27948  20729775.635    20729778.187
  21255976.753   -20435512.81549 -15905699.65947  21255976.434    21255978.580
  22529469.016   -13714097.23549 -10668710.94246  22529468.544    22529471.002
 03  4 13  3 13 30.0000000  0  5G20G 1G25G11G14
  23591974.235    -9110848.28849  -6850793.78545  23591973.507    23591977.670
  24437823.989    -6466483.06049  -5023705.73645  24437823.557    24437830.413
  20726432.542   -24554724.10649 -19107265.15548  20726432.359    20726434.932
  21253491.003   -20448575.35449 -15915878.25547  21253490.684    21253492.854
  22543953.733   -13637979.36549 -10609398.32546  22543953.266    22543955.745
 03  4 13  3 14  0.0000000  0  5G20G 1G25G11G14
  23575564.615    -9197081.17649  -6917988.14845  23575563.836    23575568.136
  24422636.719    -6546292.84249  -5085895.10845  24422636.211    24422642.990
  20723191.265   -24571757.27849 -19120537.73148  20723191.063    20723193.635
  21251111.011   -20461082.30749 -15925623.93647  21251110.702    21251112.860
  22558453.096   -13561784.96349 -10550026.07946  22558452.628    22558455.027
 03  4 13  3 14 30.0000000  0  5G20G 1G25G11G14
  23559159.043    -9283292.08149  -6985165.40245  23559158.364    23559162.654
  24407478.925    -6625947.32649  -5147963.45745  24407478.464    24407485.083
  20720051.984   -24588254.08049 -19133392.35748  20720051.767    20720054.349
  21248836.944   -20473032.75249 -15934935.96247  21248836.626    21248838.742
  22572966.963   -13485514.53849 -10490594.58246  22572966.460    22572968.843
 03  4 13  3 15  0.0000000  0  5G20G 1G25G11G14
  23542758.099    -9369479.18049  -7052324.11045  23542757.398    23542761.690
  24392350.800    -6705445.60649  -5209910.09145  24392350.337    24392357.222
  20717014.937   -24604213.59049 -19145828.31548  20717014.769    20717017.315
  21246669.011   -20484425.25949 -15943813.23947  21246668.697    21246670.782
  22587495.126   -13409168.45649 -10431104.13646  22587494.633    22587497.022
 03  4 13  3 15 30.0000000  0  5G20G 1G25G11G14
  23526361.383    -9455644.69249  -7119465.99645  23526360.640    23526364.848
  24377251.852    -6784790.72949  -5271737.37845  24377251.490    24377258.279
  20714079.543   -24619639.22149 -19157848.26348  20714079.361    20714081.907
  21244606.723   -20495262.81049 -15952258.07247  21244606.395    21244608.502
  22602036.795   -13332751.67349 -10371558.60546  22602036.276    22602038.663
 03  4 13  3 16  0.0000000  0  5G20G 1G25G11G14
  23509969.625    -9541783.74149  -7186587.26645  23509968.907    23509972.969
  24362182.872    -6863978.41449  -5333441.98645  24362182.502    24362189.196
  20711246.536   -24634526.87649 -19169449.01048  20711246.352    20711248.883
  21242650.714   -20505541.34649 -15960267.31347  21242650.409    21242652.579
  22616592.530   -13256261.21949 -10311955.66346  22616592.029    22616594.350
 03  4 13  3 16 30.0000000  0  5G20G 1G25G11G14
  23493582.624    -9627897.76649  -7253689.04745  23493581.981    23493585.948
  24347143.456    -6943010.96749  -5395025.70845  24347143.054    24347149.695
  20708515.436   -24648878.77649 -19180632.28748  20708515.243    20708517.767
  21240800.748   -20515263.04449 -15967842.66547  21240800.430    21240802.569
  22631161.472   -13179700.84349 -10252298.23646  22631160.944    22631163.288
 03  4 13  3 17  0.0000000  0  5G20G 1G25G11G14
  23477201.152    -9713983.02749  -7320768.41645  23477200.512    23477204.389
  24332134.120    -7021885.45849  -5456486.27145  24332133.755    24332140.358
  20705886.800   -24662692.31549 -19191396.05848  20705886.593    20705889.103
  21239057.233   -20524425.05549 -15974981.89047  21239056.917    21239059.100
  22645743.830   -13103069.15249 -10192585.22946  22645743.368    22645745.820
 03  4 13  3 17 30.0000000  0  5G20G 1G25G11G14
  23460824.654    -9800041.68449  -7387827.07045  23460824.039    23460827.903
  24317154.194    -7100604.73549  -5517825.89745  24317153.895    24317160.508
  20703360.026   -24675970.42349 -19201742.61348  20703359.852    20703362.341
  21237419.737   -20533030.16449 -15981687.16847  21237419.440    21237421.632
  22660339.090   -13026370.56349 -10132820.10046  22660338.614    22660341.109
 03  4 13  3 18  0.0000000  0  5G20G 1G25G11G14
  23444453.818    -9886070.45849  -7454862.42745  23444453.243    23444457.089
  24302204.357    -7179166.73149  -5579042.96345  24302203.945    24302210.579
  20700935.537   -24688711.29049 -19211670.53848  20700935.331    20700937.816
  21235888.655   -20541076.07549 -15987956.70647  21235888.321    21235890.532
  22674947.301   -12949604.28649 -10073002.23546  22674946.791    22674949.280
 03  4 13  3 18 30.0000000  0  5G20G 1G25G11G14
  23428088.861    -9972069.13449  -7521874.33445  23428088.192    23428092.021
  24287284.259    -7257572.04149  -5640137.95445  24287283.724    24287290.293
  20698613.150   -24700915.39549 -19221180.20748  20698612.948    20698615.405
  21234463.849   -20548563.34349 -15993790.94447  21234463.537    21234465.733
  22689567.990   -12872772.20649 -10013133.08846  22689567.479    22689569.978
 03  4 13  3 19  0.0000000  0  5G20G 1G25G11G14
  23411729.800   -10058036.33449  -7588861.70445  23411729.137    23411732.959
  24272394.105    -7335820.06149  -5701110.37845  24272393.662    24272400.156
  20696393.021   -24712582.37249 -19230271.33248  20696392.796    20696395.231
  21233145.488   -20555491.43449 -15999189.45347  21233145.179    21233147.344
  22704201.008   -12795875.34049  -9953213.45746  22704200.489    22704202.966
 03  4 13  3 19 30.0000000  0  5G20G 1G25G11G14
  23395377.180   -10143969.53549  -7655822.59045  23395376.528    23395380.373
  24257534.163    -7413909.50549  -5761959.22345  24257533.679    24257540.114
  20694275.245   -24723711.20849 -19238943.13048  20694275.042    20694277.500
  21231933.715   -20561859.45449 -16004151.54547  21231933.398    21231935.539
  22718846.335   -12718913.84649  -9893243.47646  22718845.811    22718848.223
 03  4 13  3 20  0.0000000  0  5G20G 1G25G11G14
  23379031.039   -10229869.28549  -7722757.40246  23379030.324    23379034.198
  24242704.112    -7491841.37149  -5822685.30045  24242703.656    24242710.225
  20692259.596   -24734303.31649 -19247196.69948  20692259.387    20692261.846
  21230828.364   -20567668.05449 -16008677.72247  21230828.043    21230830.209
  22733503.446   -12641890.12049  -9833225.00346  22733502.903    22733505.401
 03  4 13  3 20 30.0000000  0  5G20G 1G25G11G14
  23362691.377   -10315733.88349  -7789664.82746  23362690.667    23362694.606
  24227904.299    -7569614.79249  -5883287.89945  24227903.761    24227910.385
  20690346.212   -24744358.28349 -19255031.70948  20690345.982    20690348.413
  21229829.592   -20572916.62949 -16012767.51847  21229829.285    21229831.454
  22748172.340   -12564804.70749  -9773158.44646  22748171.798    22748174.297
 03  4 13  3 21  0.0000000  0  5G20G 1G25G11G14
  23346358.665   -10401562.41649  -7856544.15745  23346357.963    23346361.934
  24213134.525    -7647230.21049  -5943767.38145  24213134.017    24213140.734
  20688534.910   -24753876.61549 -19262448.57348  20688534.666    20688537.106
  21228937.303   -20577605.55449 -16016421.22847  21228936.973    21228939.134
  22762852.692   -12487659.23649  -9713045.12646  22762852.145    22762854.575
 03  4 13  3 21 30.0000000  0  5G20G 1G25G11G14
  23330033.300   -10487352.83849  -7923393.78646  23330032.604    23330036.522
  24198394.987    -7724686.44449  -6004122.84545  24198394.431    24198401.217
  20686825.946   -24762857.19449 -19269446.40548  20686825.729    20686828.152
  21228151.766   -20581733.65749 -16019637.93647  21228151.437    21228153.586
  22777544.364   -12410454.02349  -9652885.23646  22777543.785    22777546.169
 03  4 13  3 22  0.0000000  0  5G20G 1G25G11G14
  23313715.321   -10573104.54349  -7990213.24146  23313714.521    23313718.451
  24183685.774    -7801983.92449  -6064354.57345  24183685.154    24183691.874
  20685219.167   -24771300.79849 -19276025.81948  20685218.941    20685221.373
  21227472.728   -20585301.92549 -16022418.40447  21227472.387    21227474.611
  22792247.071   -12333190.64949  -9592680.01646  22792246.576    22792248.941
 03  4 13  3 22 30.0000000  0  5G20G 1G25G11G14
  23297404.720   -10658817.09249  -8057002.20046  23297403.943    23297407.822
  24169006.621    -7879123.06649  -6124462.92245  24169005.976    24169012.671
  20683714.364   -24779208.26149 -19282187.46248  20683714.173    20683716.601
  21226900.124   -20588310.94649 -16024763.11247  21226899.813    21226901.992
  22806960.479   -12255871.20949  -9532431.12946  22806959.980    22806962.385
 03  4 13  3 23  0.0000000  0  5G20G 1G25G11G14
  23281102.132   -10744487.66649  -8123758.44646  23281101.409    23281105.232
  24154357.883    -7956102.19949  -6184446.59345  24154357.266    24154363.852
  20682311.889   -24786578.10849 -19287930.18348  20682311.684    20682314.128
  21226434.320   -20590758.80649 -16026670.54047  21226434.005    21226436.180
  22821684.847   -12178494.78949  -9472137.82846  22821684.307    22821686.682
 03  4 13  3 23 30.0000000  0  5G20G 1G25G11G14
  23264807.546   -10830115.89849  -8190481.69346  23264806.829    23264810.670
  24139739.530    -8032921.95349  -6244306.07545  24139738.947    24139745.496
  20681011.493   -24793411.68049 -19293255.02548  20681011.284    20681013.734
  21226075.113   -20592646.53949 -16028141.50247  21226074.794    21226076.979
  22836419.449   -12101063.66649  -9411801.88746  22836418.926    22836421.259
 03  4 13  3 24  0.0000000  0  5G20G 1G25G11G14
  23248521.339   -10915700.17749  -8257170.67646  23248520.624    23248524.541
  24125151.547    -8109581.60449  -6304040.79745  24125151.005    24125157.575
  20679813.219   -24799708.71749 -19298161.78348  20679812.994    20679815.411
  21225822.583   -20593973.60849 -16029175.58347  21225822.249    21225824.403
  22851164.392   -12023578.19849  -9351423.61846  22851163.859    22851166.269
 03  4 13  3 24 30.0000000  0  5G20G 1G25G11G14
  23232243.692   -11001239.31049  -8323824.48946  23232243.003    23232246.965
  24110594.205    -8186081.07449  -6363650.68745  24110593.654    24110600.196
  20678716.955   -24805469.38149 -19302650.59648  20678716.752    20678719.163
  21225676.676   -20594740.32349 -16029773.02647  21225676.370    21225678.537
  22865919.484   -11946039.78849  -9291004.08446  22865918.944    22865921.353
 03  4 13  3 25  0.0000000  0  5G20G 1G25G11G14
  23215974.828   -11086733.18649  -8390443.04846  23215974.075    23215977.987
  24096067.099    -8262421.30249  -6423136.49845  24096066.500    24096073.157
  20677722.583   -24810694.77749 -19306722.31648  20677722.391    20677724.765
  21225637.227   -20594947.73249 -16029934.64847  21225636.907    21225639.064
  22880684.196   -11868450.45349  -9230544.88346  22880683.672    22880686.134
 03  4 13  3 25 30.0000000  0  5G20G 1G25G11G14
  23199715.033   -11172178.87449  -8457024.06146  23199714.332    23199718.167
  24081570.600    -8338600.41849  -6482496.77345  24081570.035    24081576.714
  20676830.351   -24815383.40549 -19310375.77448  20676830.178    20676832.552
  21225704.528   -20594594.12649 -16029659.10447  21225704.201    21225706.362
  22895458.764   -11790809.60249  -9170045.52946  22895458.244    22895460.689
 03  4 13  3 26  0.0000000  0  5G20G 1G25G11G14
  23183464.434   -11257576.27149  -8523567.46046  23183463.722    23183467.511
  24067104.565    -8414619.41349  -6541732.27245  24067104.001    24067110.719
  20676039.963   -24819536.99149 -19313612.31548  20676039.766    20676042.138
  21225878.340   -20593680.70549 -16028947.34847  21225878.020    21225880.142
  22910242.767   -11713119.41849  -9109507.74946  22910242.219    22910244.686
 03  4 13  3 26 30.0000000  0  5G20G 1G25G11G14
  23167223.365   -11342923.96949  -8590072.12446  23167222.675    23167226.289
  24052669.089    -8490478.12849  -6600842.88345  24052668.574    24052675.206
  20675351.317   -24823155.64249 -19316432.02248  20675351.122    20675353.510
  21226158.644   -20592207.75849 -16027799.59347  21226158.306    21226160.434
  22925035.846   -11635381.18449  -9048932.50046  22925035.319    22925037.824
 03  4 13  3 27  0.0000000  0  5G20G 1G25G11G14
  23150992.153   -11428219.52149  -8656536.16246  23150991.442    23150994.999
  24038264.307    -8566175.19749  -6659827.52445  24038263.866    24038270.359
  20674764.648   -24826238.57049 -19318834.28248  20674764.478    20674766.866
  21226545.566   -20590174.35449 -16026215.12547  21226545.249    21226547.372
  22939838.125   -11557594.47249  -8988319.49146  22939837.621    22939840.201
 03  4 13  3 27 30.0000000  0  5G20G 1G25G11G14
  23134770.649   -11513463.73149  -8722960.18046  23134769.972    23134773.530
  24023890.136    -8641712.47749  -6718687.65045  24023889.647    24023895.985
  20674279.528   -24828787.95249 -19320820.78948  20674279.324    20674281.706
  21227038.760   -20587582.50249 -16024195.49747  21227038.447    21227040.560
  22954649.068   -11479762.26849  -8927671.02446  22954648.567    22954651.085
 03  4 13  3 28  0.0000000  0  5G20G 1G25G11G14
  23118559.572   -11598652.95449  -8789341.36146  23118558.875    23118562.465
  24009546.702    -8717087.36449  -6777421.23745  24009546.198    24009552.630
  20673896.224   -24830801.98649 -19322390.14548  20673896.030    20673898.402
  21227638.714   -20584430.05849 -16021739.04647  21227638.382    21227640.516
  22969469.005   -11401883.32349  -8866986.14146  22969468.468    22969470.881
 03  4 13  3 28 30.0000000  0  5G20G 1G25G11G14
  23102358.948   -11683787.35849  -8855679.82346  23102358.280    23102361.808
  23995233.802    -8792301.44849  -6836029.53645  23995233.365    23995239.734
  20673614.428   -24832282.71149 -19323543.93948  20673614.235    20673616.652
  21228344.903   -20580718.88149 -16018847.21547  21228344.593    21228346.735
  22984297.193   -11323960.16949  -8806266.80946  22984296.723    22984299.246
 03  4 13  3 29  0.0000000  0  5G20G 1G25G11G14
  23086168.933   -11768865.95549  -8921974.80046  23086168.279    23086171.808
  23980951.586    -8867354.82849  -6894512.60445  23980951.153    23980957.371
  20673434.018   -24833230.42449 -19324282.39748  20673433.860    20673436.293
  21229157.390   -20576449.35049 -16015520.30047  21229157.080    21229159.219
  22999133.691   -11245994.08149  -8745514.01746  22999133.191    22999135.772
 03  4 13  3 29 30.0000000  0  5G20G 1G25G11G14
  23069990.093   -11853885.97349  -8988224.12246  23069989.439    23069993.010
  23966700.159    -8942246.12149  -6952869.37345  23966699.669    23966705.988
  20673355.245   -24833644.49849 -19324605.03048  20673355.044    20673357.480
  21230076.303   -20571620.50249 -16011757.55847  21230075.994    21230078.104
  23013978.351   -11167984.81949  -8684727.58046  23013977.884    23013980.486
 03  4 13  3 30  0.0000000  0  5G20G 1G25G11G14
  23053822.649   -11938846.58849  -9054427.16146  23053822.031    23053825.566
  23952479.569    -9016975.53149  -7011099.99545  23952479.114    23952485.405
  20673377.716   -24833525.85549 -19324512.56448  20673377.549    20673380.012
  21231101.450   -20566233.11749 -16007559.59247  21231101.154    21231103.264
  23028830.996   -11089933.84849  -8623908.65246  23028830.492    23028832.991
 03  4 13  3 30 30.0000000  0  5G20G 1G25G11G14
  23037666.663   -12023747.13849  -9120583.39246  23037665.996    23037669.530
  23938289.737    -9091543.55749  -7069204.86245  23938289.268    23938295.511
  20673501.472   -24832875.42449 -19324005.71448  20673501.313    20673503.781
  21232232.811   -20560288.03349 -16002927.05547  21232232.511    21232234.581
  23043691.317   -11011842.49649  -8563058.25146  23043690.774    23043693.312
 03  4 13  3 31  0.0000000  0  5G20G 1G25G11G14
  23021522.372   -12108585.69449  -9186691.29646  23021521.692    23021525.329
  23924130.628    -9165949.68049  -7127183.57645  23924130.060    23924136.388
  20673726.440   -24831693.20649 -19323084.48548  20673726.277    20673728.730
  21233470.247   -20553785.20949 -15997859.91647  21233469.925    21233472.018
  23058559.171   -10933711.43049  -8502176.91846  23058558.672    23058561.162
 03  4 13  3 31 30.0000000  0  5G20G 1G25G11G14
  23005390.072   -12193361.05949  -9252749.97946  23005389.420    23005393.149
  23910002.336    -9240193.76549  -7185036.02745  23910001.810    23910007.991
  20674052.432   -24829979.91949 -19321749.43748  20674052.272    20674054.735
  21234813.742   -20546725.16749 -15992358.57947  21234813.434    21234815.502
  23073434.423   -10855541.45749  -8441265.25646  23073433.904    23073436.444
 03  4 13  3 32  0.0000000  0  5G20G 1G25G11G14
  22989270.178   -12278071.32249  -9318757.91346  22989269.520    22989273.309
  23895905.098    -9314275.32349  -7242761.84545  23895904.560    23895910.713
  20674479.570   -24827735.28349 -19320000.35348  20674479.386    20674481.870
  21236263.280   -20539107.53849 -15986422.76147  21236262.971    21236265.079
  23088316.950   -10777333.29949  -8380323.83946  23088316.391    23088319.007
 03  4 13  3 32 30.0000000  0  5G20G 1G25G11G14
  22973163.038   -12362715.09749  -9384714.04946  22973162.361    22973166.096
  23881838.656    -9388194.30749  -7300360.98345  23881838.148    23881844.363
  20675007.686   -24824959.87049 -19317837.67848  20675007.520    20675009.981
  21237818.805   -20530932.99449 -15980052.98147  21237818.504    21237820.621
  23103206.665   -10699087.77649  -8319353.30946  23103206.124    23103208.682
 03  4 13  3 33  0.0000000  0  5G20G 1G25G11G14
  22957068.397   -12447293.11549  -9450618.95246  22957067.663    22957071.434
  23867802.837    -9461952.87749  -7357835.11045  23867802.384    23867808.442
  20675636.296   -24821656.46949 -19315263.57748  20675636.115    20675638.567
  21239479.834   -20522204.27149 -15973251.36847  21239479.524    21239481.654
  23118102.792   -10620807.98849  -8258356.07646  23118102.251    23118104.740
 03  4 13  3 33 30.0000000  0  5G20G 1G25G11G14
  22940987.007   -12531801.06449  -9516469.24446  22940986.306    22940990.077
  23853798.178    -9535547.73649  -7415181.67645  23853797.689    23853803.778
  20676365.862   -24817822.44049 -19312276.00648  20676365.700    20676368.134
  21241246.869   -20512918.36849 -15966015.59647  21241246.561    21241248.686
  23133005.807   -10542491.74149  -8197330.44146  23133005.284    23133007.751
 03  4 13  3 34  0.0000000  0  5G20G 1G25G11G14
  22924918.939   -12616239.27449  -9582265.19646  22924918.190    22924921.988
  23839824.224    -9608980.80949  -7472402.19045  23839823.763    23839829.981
  20677195.958   -24813460.61549 -19308877.16448  20677195.755    20677198.181
  21243119.416   -20503077.89549 -15958347.69647  21243119.095    21243121.284
  23147915.331   -10464141.92949  -8136278.64646  23147914.812    23147917.206
 03  4 13  3 34 30.0000000  0  5G20G 1G25G11G14
  22908864.628   -12700604.59549  -9648004.34846  22908863.914    22908867.760
  23825881.517    -9682250.07049  -7529495.03245  23825881.016    23825887.207
  20678126.601   -24808569.79649 -19305066.12248  20678126.411    20678128.823
  21245097.806   -20492681.37749 -15950246.51447  21245097.495    21245099.687
  23162831.379   -10385757.50949  -8075199.87746  23162830.866    23162833.267
 03  4 13  3 35  0.0000000  0  5G20G 1G25G11G14
  22892824.219   -12784896.91749  -9713686.61846  22892823.548    22892827.370
  23811969.720    -9755356.63549  -7586461.10945  23811969.207    23811975.278
  20679157.575   -24803151.83149 -19300844.31448  20679157.407    20679159.805
  21247181.636   -20481730.99649 -15941713.75147  21247181.302    21247183.451
  23177753.586   -10307340.76549  -8014095.93246  23177753.026    23177755.415
 03  4 13  3 35 30.0000000  0  5G20G 1G25G11G14
  22876798.152   -12869114.44349  -9779310.61946  22876797.413    22876801.227
  23798088.899    -9828300.51849  -7643300.40945  23798088.407    23798094.536
  20680288.794   -24797207.39249 -19296212.27148  20680288.614    20680290.976
  21249370.765   -20470226.90449 -15932749.52647  21249370.457    21249372.631
  23192681.779   -10228892.63149  -7952967.51946  23192681.221    23192683.573
 03  4 13  3 36  0.0000000  0  5G20G 1G25G11G14
  22860786.126   -12953257.78549  -9844876.80246  22860785.398    22860789.157
  23784238.664    -9901083.50549  -7700014.35345  23784238.115    23784244.389
  20681519.699   -24790738.93649 -19291171.89648  20681519.512    20681521.865
  21251664.815   -20458171.61549 -15923355.80447  21251664.489    21251666.662
  23207615.538   -10150415.64849  -7891816.63346  23207614.962    23207617.307
 03  4 13  3 36 30.0000000  0  5G20G 1G25G11G14
  22844789.252   -13037321.60149  -9910381.01046  22844788.482    22844792.259
  23770419.655    -9973701.84949  -7756599.99545  23770419.211    23770425.443
  20682850.919   -24783743.22149 -19285720.67648  20682850.740    20682853.095
  21254064.371   -20445561.77149 -15913529.95447  21254064.078    21254066.273
  23222555.219   -10071906.79549  -7830640.89846  23222554.690    23222557.071
 03  4 13  3 37  0.0000000  0  5G20G 1G25G11G14
  22828807.302   -13121306.61249  -9975823.81846  22828806.586    22828810.343
  23756631.832   -10046157.58649  -7813058.91445  23756631.346    23756637.429
  20684281.929   -24776223.28649 -19279860.96748  20684281.750    20684284.093
  21256569.003   -20432400.24049 -15903274.21947  21256568.684    21256570.816
  23237500.598    -9993368.94049  -7769442.57846  23237500.034    23237502.316
 03  4 13  3 37 30.0000000  0  5G20G 1G25G11G14
  22812840.637   -13205211.57249 -10041204.25146  22812839.989    22812843.693
  23742874.848   -10118450.85249  -7869391.24445  23742874.360    23742880.475
  20685812.528   -24768179.85049 -19273593.33948  20685812.320    20685814.653
  21259178.405   -20418687.69049 -15892589.11747  21259178.087    21259180.202
  23252451.185    -9914803.29949  -7708222.62146  23252450.613    23252452.919
 03  4 13  3 38  0.0000000  0  5G20G 1G25G11G14
  22796889.643   -13289034.67549 -10106520.90346  22796888.972    22796892.577
  23729148.742   -10190581.31549  -7925596.72045  23729148.282    23729154.340
  20687442.592   -24759613.64049 -19266918.35048  20687442.382    20687444.712
  21261892.568   -20404424.70849 -15881475.10847  21261892.248    21261894.386
  23267406.776    -9836210.43949  -7646981.43346  23267406.250    23267408.722
 03  4 13  3 38 30.0000000  0  5G20G 1G25G11G14
  22780954.844   -13372772.59649 -10171771.17946  22780954.163    22780957.736
  23715453.961   -10262547.02349  -7981673.80445  23715453.543    23715459.672
  20689172.380   -24750523.39249 -19259835.02348  20689172.204    20689174.510
  21264711.611   -20389610.31849 -15869931.43147  21264711.287    21264713.426
  23282367.879    -9757589.39049  -7585718.28946  23282367.353    23282369.781
 03  4 13  3 39  0.0000000  0  5G20G 1G25G11G14
  22765036.351   -13456425.10449 -10236954.89746  22765035.614    22765039.183
  23701790.432   -10334349.25549  -8037623.50645  23701789.952    23701796.130
  20691001.538   -24740911.21849 -19252344.99648  20691001.338    20691003.639
  21267635.317   -20374246.40349 -15857959.55347  21267634.983    21267637.107
  23297333.928    -9678942.15949  -7524434.74246  23297333.392    23297335.885
 03  4 13  3 39 30.0000000  0  5G20G 1G25G11G14
  22749133.709   -13539993.71749 -10302073.23946  22749133.003    22749136.586
  23688157.448   -10405991.14349  -8093448.26545  23688156.860    23688162.978
  20692929.192   -24730781.13049 -19244451.39848  20692928.973    20692931.305
  21270662.825   -20358336.45849 -15845562.19447  21270662.487    21270664.635
  23312304.201    -9600272.64949  -7463133.83746  23312303.698    23312306.260
 03  4 13  3 40  0.0000000  0  5G20G 1G25G11G14
  22733248.050   -13623473.06549 -10367122.02546  22733247.341    22733250.981
  23674555.745   -10477468.52849  -8149144.81545  23674555.087    23674561.061
  20694955.993   -24720129.90549 -19236151.72548  20694955.800    20694958.156
  21273794.918   -20341877.30449 -15832736.87947  21273794.579    21273796.755
  23327279.393    -9521577.68549  -7401813.10046  23327278.901    23327281.413
 03  4 13  3 40 30.0000000  0  5G20G 1G25G11G14
  22717379.365   -13706863.03349 -10432101.16746  22717378.696    22717382.334
  23660984.917   -10548782.96849  -8204714.41645  23660984.362    23660990.335
  20697081.549   -24708959.91549 -19227447.82048  20697081.379    20697083.723
  21277031.005   -20324871.49149 -15819485.60147  21277030.678    21277032.863
  23342259.054    -9442859.72149  -7340474.44446  23342258.471    23342260.998
 03  4 13  3 41  0.0000000  0  5G20G 1G25G11G14
  22701528.015   -13790161.89449 -10497009.32246  22701527.389    22701531.069
  23647445.115   -10619934.45849  -8260157.03945  23647444.565    23647450.668
  20699305.746   -24697271.84749 -19218340.22048  20699305.559    20699307.884
  21280370.929   -20307320.10549 -15805809.20347  21280370.596    21280372.767
  23357242.744    -9364119.35249  -7279118.31546  23357242.198    23357244.826
 03  4 13  3 41 30.0000000  0  5G20G 1G25G11G14
  22685694.553   -13873367.46549 -10561844.78546  22685693.881    22685697.489
  23633936.608   -10690922.11849  -8315471.99545  23633936.067    23633942.070
  20701628.465   -24685065.88549 -19208829.06448  20701628.261    20701630.575
  21283814.729   -20289222.68549 -15791707.32447  21283814.412    21283816.560
  23372230.993    -9285356.32349  -7217744.54246  23372230.422    23372232.908
 03  4 13  3 42  0.0000000  0  5G20G 1G25G11G14
  22669878.919   -13956479.28349 -10626607.18646  22669878.230    22669881.833
  23620459.075   -10761747.21349  -8370660.27745  23620458.457    23620464.304
  20704049.297   -24672344.30749 -19198916.13348  20704049.115    20704051.385
  21287362.126   -20270581.23949 -15777181.52747  21287361.806    21287363.918
  23387222.994    -9206572.88249  -7156354.86446  23387222.443    23387224.813
 03  4 13  3 42 30.0000000  0  5G20G 1G25G11G14
  22654081.498   -14039494.93249 -10691294.66046  22654080.856    22654084.454
  23607012.487   -10832408.91549  -8425721.25045  23607011.906    23607017.697
  20706568.265   -24659107.00849 -19188601.34648  20706568.071    20706570.325
  21291012.997   -20251395.87749 -15762231.89947  21291012.659    21291014.784
  23402218.822    -9127768.87049  -7094949.16246  23402218.332    23402220.682
 03  4 13  3 43  0.0000000  0  5G20G 1G25G11G14
  22638302.648   -14122413.11749 -10755906.18446  22638301.970    22638305.585
  23593597.011   -10902907.39349  -8480655.02645  23593596.493    23593602.269
  20709185.061   -24645355.24649 -19177885.67448  20709184.910    20709187.178
  21294767.153   -20231667.50949 -15746859.14247  21294766.840    21294768.972
  23417218.514    -9048945.31449  -7033528.22046  23417217.997    23417220.319
 03  4 13  3 43 30.0000000  0  5G20G 1G25G11G14
  22622542.762   -14205231.69049 -10820440.07546  22622542.080    22622545.668
  23580212.607   -10973242.10849  -8535461.20945  23580212.089    23580217.899
  20711899.744   -24631089.48649 -19166769.48648  20711899.590    20711901.841
  21298624.555   -20211396.76849 -15731063.76647  21298624.239    21298626.393
  23432221.807    -8970102.16049  -6972092.01346  23432221.301    23432223.746
 03  4 13  3 44  0.0000000  0  5G20G 1G25G11G14
  22606801.830   -14287950.52549 -10884896.26746  22606801.137    22606804.713
  23566859.085   -11043414.69549  -8590141.05745  23566858.713    23566864.383
  20714711.803   -24616312.04549 -19155254.59148  20714711.644    20714713.914
  21302584.712   -20190586.10449 -15714847.67047  21302584.408    21302586.544
  23447228.459    -8891241.88849  -6910642.47446  23447227.941    23447230.498
 03  4 13  3 44 30.0000000  0  5G20G 1G25G11G14
  22591080.615   -14370565.98749 -10949271.90246  22591079.911    22591083.424
  23553536.984   -11113422.95949  -8644692.85045  23553536.536    23553542.122
  20717621.383   -24601022.10049 -19143340.34248  20717621.219    20717623.480
  21306647.841   -20169234.33049 -15698209.92647  21306647.525    21306649.656
  23462238.624    -8812363.16749  -6849178.55046  23462238.091    23462240.653
 03  4 13  3 45  0.0000000  0  5G20G 1G25G11G14
  22575378.849   -14453079.13849 -11013567.81546  22575378.131    22575381.655
  23540245.593   -11183269.67649  -8699118.77245  23540245.098    23540250.599
  20720627.793   -24585223.20349 -19131029.50448  20720627.638    20720629.888
  21310813.173   -20147345.41349 -15681153.63347  21310812.871    21310814.959
  23477251.717    -8733469.33849  -6787702.86646  23477251.147    23477253.595
 03  4 13  3 45 30.0000000  0  5G20G 1G25G11G14
  22559697.361   -14535485.65749 -11077780.63646  22559696.637    22559700.171
  23526985.290   -11252952.38649  -8753416.87945  23526984.778    23526990.347
  20723731.377   -24568913.80449 -19118320.87048  20723731.199    20723733.466
  21315081.109   -20124917.39949 -15663677.25747  21315080.777    21315082.882
  23492267.835    -8654558.51449  -6726213.92546  23492267.312    23492269.798
 03  4 13  3 46  0.0000000  0  5G20G 1G25G11G14
  22544036.430   -14617784.51849 -11141909.58346  22544035.749    22544039.184
  23513756.099   -11322471.41749  -8807587.45846  23513755.636    23513761.246
  20726931.850   -24552095.10549 -19105215.38448  20726931.684    20726933.936
  21319451.313   -20101951.74049 -15645781.94547  21319451.001    21319453.079
  23507287.052    -8575631.71149  -6664712.54546  23507286.604    23507289.067
 03  4 13  3 46 30.0000000  0  5G20G 1G25G11G14
  22528396.031   -14699975.32349 -11205954.32446  22528395.326    22528398.729
  23500557.893   -11391828.17749  -8861631.58346  23500557.413    23500562.971
  20730228.707   -24534769.77349 -19091715.11248  20730228.541    20730230.793
  21323923.260   -20078451.29549 -15627469.90647  21323922.935    21323925.064
  23522309.024    -8496690.92149  -6603200.26046  23522308.535    23522311.082
 03  4 13  3 47  0.0000000  0  5G20G 1G25G11G14
  22512776.695   -14782055.31249 -11269912.70946  22512776.010    22512779.455
  23487390.785   -11461021.49249  -8915548.35946  23487390.268    23487395.785
  20733621.958   -24516938.13049 -19077820.31348  20733621.792    20733624.066
  21328497.102   -20054415.47349 -15608740.69347  21328496.809    21328498.950
  23537333.759    -8417735.91449  -6541676.89946  23537333.293    23537335.720
 03  4 13  3 47 30.0000000  0  5G20G 1G25G11G14
  22497178.585   -14864023.87149 -11333784.28046  22497177.878    22497181.299
  23474254.423   -11530052.39449  -8969338.58646  23474253.932    23474259.523
  20737111.242   -24498601.71149 -19063532.18548  20737111.067    20737113.356
  21333172.478   -20029846.34849 -15589595.92047  21333172.172    21333174.286
  23552360.978    -8338768.18649  -6480143.63046  23552360.460    23552362.800
 03  4 13  3 48  0.0000000  0  5G20G 1G25G11G14
  22481602.213   -14945878.19049 -11397566.82346  22481601.501    22481604.845
  23461149.330   -11598920.20249  -9023001.71946  23461148.894    23461154.334
  20740696.593   -24479760.77549 -19048850.92348  20740696.405    20740698.656
  21337949.230   -20004744.27849 -15570035.86547  21337948.935    21337951.042
  23567390.477    -8259787.35849  -6418600.14846  23567389.955    23567392.416
 03  4 13  3 48 30.0000000  0  5G20G 1G25G11G14
  22466047.624   -15027617.89249 -11461260.06946  22466046.949    22466050.163
  23448075.056   -11667626.20549  -9076538.76246  23448074.546    23448080.001
  20744377.381   -24460418.05549 -19033778.66148  20744377.177    20744379.431
  21342826.916   -19979111.78549 -15550062.49047  21342826.609    21342828.747
  23582422.187    -8180795.58449  -6357048.12145  23582421.619    23582424.095
 03  4 13  3 49  0.0000000  0  5G20G 1G25G11G14
  22450515.618   -15109239.02449 -11524860.91846  22450514.912    22450518.126
  23435031.912   -11736167.87949  -9129947.76746  23435031.366    23435036.909
  20748153.910   -24440572.07549 -19018314.24948  20748153.722    20748155.982
  21347805.788   -19952947.47249 -15529674.71047  21347805.502    21347807.647
  23597456.229    -8101790.88749  -6295486.05245  23597455.741    23597458.188
 03  4 13  3 49 30.0000000  0  5G20G 1G25G11G14
  22435005.937   -15190742.81049 -11588370.32646  22435005.209    22435008.441
  23422019.428   -11804548.38149  -9183231.18046  23422018.925    23422024.384
  20752025.447   -24420226.98249 -19002460.91348  20752025.272    20752027.539
  21352885.063   -19926255.71049 -15508875.92847  21352884.765    21352886.942
  23612492.073    -8022777.12049  -6233916.89245  23612491.553    23612494.020
 03  4 13  3 50  0.0000000  0  5G20G 1G25G11G14
  22419519.431   -15272124.78749 -11651784.82346  22419518.740    22419521.946
  23409038.135   -11872764.79749  -9236386.73846  23409037.681    23409043.129
  20755992.278   -24399381.18749 -18986217.42348  20755992.106    20755994.345
  21358065.089   -19899034.60649 -15487664.68047  21358064.770    21358066.960
  23627530.018    -7943752.08949  -6172338.98145  23627529.492    23627531.904
 03  4 13  3 50 30.0000000  0  5G20G 1G25G11G14
  22404056.197   -15353384.12749 -11715103.74746  22404055.515    22404058.773
  23396087.863   -11940818.36149  -9289415.41046  23396087.376    23396092.928
  20760053.912   -24378037.07649 -18969585.63848  20760053.714    20760055.957
  21363345.329   -19871286.57849 -15466042.84247  21363345.014    21363347.269
  23642569.703    -7864717.42049  -6110753.53945  23642569.180    23642571.705
 03  4 13  3 51  0.0000000  0  5G20G 1G25G11G14
  22388616.621   -15434519.22149 -11778325.85246  22388615.954    22388619.228
  23383168.630   -12008709.10649  -9342317.20346  23383168.109    23383173.713
  20764210.189   -24356195.67349 -18952566.35148  20764210.016    20764212.232
  21368725.697   -19843012.56949 -15444011.14447  21368725.369    21368727.643
  23657611.307    -7785673.45449  -6049160.86945  23657610.756    23657613.125
 03  4 13  3 51 30.0000000  0  5G20G 1G25G11G14
  22373200.870   -15515529.88049 -11841451.00246  22373200.176    22373203.353
  23370280.066   -12076438.74749  -9395093.45746  23370279.542    23370285.034
  20768460.524   -24333860.25249 -18935162.11448  20768460.324    20768462.525
  21374205.548   -19814215.69149 -15421572.01747  21374205.255    21374207.510
  23672654.304    -7706622.72949  -5987562.92145  23672653.683    23672656.083
 03  4 13  3 52  0.0000000  0  5G20G 1G25G11G14
  22357809.336   -15596412.96449 -11904476.73846  22357808.621    22357811.774
  23357422.416   -12144005.87849  -9447743.09246  23357421.923    23357427.334
  20772804.896   -24311030.08549 -18917372.36248  20772804.737    20772806.953
  21379784.983   -19784895.85849 -15398725.38947  21379784.673    21379786.909
  23687698.510    -7627564.42249  -5925959.05745  23687697.968    23687700.422
 03  4 13  3 52 30.0000000  0  5G20G 1G25G11G14
  22342442.418   -15677166.60349 -11967401.61046  22342441.700    22342444.798
  23344595.752   -12211410.52549  -9500266.11646  23344595.223    23344600.625
  20777243.231   -24287706.43949 -18899198.08448  20777243.054    20777245.280
  21385463.690   -19755054.02849 -15375472.01447  21385463.392    21385465.560
  23702744.350    -7548498.62949  -5864349.38245  23702743.812    23702746.232
 03  4 13  3 53  0.0000000  0  5G20G 1G25G11G14
  22327100.404   -15757789.24849 -12030224.40846  22327099.681    22327102.795
  23331799.839   -12278653.00149  -9552662.77646  23331799.341    23331804.778
  20781775.180   -24263890.88749 -18880640.50048  20781774.997    20781777.231
  21391241.381   -19724692.05449 -15351813.32947  21391241.072    21391243.273
  23717791.302    -7469426.11549  -5802734.44745  23717790.786    23717793.316
 03  4 13  3 53 30.0000000  0  5G20G 1G25G11G14
  22311783.450   -15838279.95049 -12092944.39146  22311782.734    22311785.927
  23319034.689   -12345734.25049  -9604933.81546  23319034.139    23319039.590
  20786400.320   -24239585.52549 -18861701.24848  20786400.135    20786402.371
  21397117.710   -19693811.90449 -15327750.88347  21397117.394    21397119.570
  23732839.336    -7390348.61049  -5741115.63945  23732838.817    23732841.322
 03  4 13  3 54  0.0000000  0  5G20G 1G25G11G14
  22296492.365   -15918635.23949 -12155558.86246  22296491.630    22296494.796
  23306300.377   -12412652.76149  -9657078.04846  23306299.874    23306305.292
  20791118.680   -24214790.26149 -18842380.25248  20791118.498    20791120.692
  21403092.707   -19662413.14349 -15303284.32147  21403092.367    21403094.513
  23747888.549    -7311265.03549  -5679492.09745  23747888.049    23747890.453
 03  4 13  3 54 30.0000000  0  5G20G 1G25G11G14
  22281227.148   -15998854.17049 -12218067.07946  22281226.428    22281229.574
  23293597.053   -12479409.26849  -9709096.04046  23293596.529    23293601.866
  20795929.868   -24189507.33849 -18822679.26448  20795929.678    20795931.868
  21409165.897   -19630498.18949 -15278415.53547  21409165.573    21409167.747
  23762938.482    -7232176.53049  -5617864.70945  23762938.030    23762940.534
 03  4 13  3 55  0.0000000  0  5G20G 1G25G11G14
  22265988.117   -16078935.56149 -12280468.11146  22265987.398    22265990.574
  23280924.409   -12546004.46349  -9760988.34546  23280923.852    23280929.152
  20800833.519   -24163738.31849 -18802599.49748  20800833.363    20800835.565
  21415336.950   -19598069.00449 -15253146.04747  21415336.641    21415338.860
  23777989.302    -7153084.21149  -5556234.33445  23777988.731    23777991.304
 03  4 13  3 55 30.0000000  0  5G20G 1G25G11G14
  22250775.717   -16158877.04649 -12342760.13347  22250774.989    22250778.187
  23268282.424   -12612438.08049  -9812754.74946  23268281.884    23268287.195
  20805829.533   -24137484.18249 -18782141.72148  20805829.334    20805831.553
  21421605.674   -19565126.41549 -15227476.50247  21421605.371    21421607.602
  23793040.732    -7073988.22849  -5494601.11045  23793040.191    23793042.723
 03  4 13  3 56  0.0000000  0  5G20G 1G25G11G14
  22235590.353   -16238676.52249 -12404941.49747  22235589.602    22235592.805
  23255671.303   -12678709.87549  -9864395.06346  23255670.795    23255676.056
  20810917.648   -24110745.94749 -18761306.72848  20810917.472    20810919.678
  21427971.942   -19531671.67749 -15201407.88147  21427971.634    21427973.843
  23808092.838    -6994888.84749  -5432965.25345  23808092.340    23808094.897
 03  4 13  3 56 30.0000000  0  5G20G 1G25G11G14
  22220432.224   -16318333.06249 -12467011.50247  22220431.456    22220434.666
  23243090.813   -12744820.69349  -9915909.93746  23243090.283    23243095.529
  20816097.452   -24083525.89949 -18740096.28948  20816097.266    20816099.456
  21434435.190   -19497707.00949 -15174941.90447  21434434.860    21434437.080
  23823145.428    -6915787.43249  -5371327.81545  23823144.890    23823147.445
 03  4 13  3 57  0.0000000  0  5G20G 1G25G11G14
  22205301.718   -16397844.17849 -12528968.17347  22205300.970    22205304.156
  23230541.016   -12810770.11549  -9967299.04246  23230540.512    23230545.680
  20821368.835   -24055824.47949 -18718510.76248  20821368.656    20821370.869
  21440995.345   -19463233.06149 -15148079.09347  21440995.038    21440997.277
  23838198.229    -6836683.74749  -5309688.58545  23838197.749    23838200.289
 03  4 13  3 57 30.0000000  0  5G20G 1G25G11G14
  22190199.317   -16477207.54649 -12590809.71847  22190198.585    22190201.742
  23218021.975   -12876557.70549 -10018562.03146  23218021.528    23218026.679
  20826731.615   -24027642.81849 -18696551.02448  20826731.444    20826733.667
  21447652.174   -19428251.25849 -15120820.54647  21447651.850    21447654.087
  23853251.743    -6757577.87349  -5248047.65045  23853251.178    23853253.668
 03  4 13  3 58  0.0000000  0  6G16G20G 1G25G11G14
  24694493.958    -3755766.81459  -2912557.79545  24694493.438    24694497.246
  22175125.177   -16556422.63749 -12652535.73047  22175124.461    22175127.582
  23205533.528   -12942184.91049 -10069700.04446  23205533.035    23205538.130
  20832185.258   -23998984.08849 -18674219.54448  20832185.049    20832187.253
  21454405.068   -19392764.51949 -15093168.55447  21454404.755    21454407.001
  23868305.208    -6678471.63749  -5186406.43445  23868304.507    23868307.139
 03  4 13  3 58 30.0000000  0  6G16G20G 1G25G11G14
  24677709.834    -3843969.05449  -2981286.77145  24677709.248    24677712.760
  22160079.097   -16635490.02749 -12714146.64147  22160078.377    22160081.533
  23193075.057   -13007654.12349 -10120714.95046  23193074.589    23193079.656
  20837728.882   -23969851.92049 -18651519.14548  20837728.691    20837730.856
  21461253.410   -19356776.45449 -15065125.91547  21461253.094    21461255.331
  23883357.987    -6599367.83449  -5124767.13145  23883357.395    23883360.150
 03  4 13  3 59  0.0000000  0  6G16G20G 1G25G11G14
  24660914.205    -3932229.99849  -3050061.50145  24660913.855    24660917.187
  22145062.477   -16714402.84349 -12775637.11147  22145061.763    22145064.892
  23180647.536   -13072960.58749 -10171603.02146  23180647.062    23180652.126
  20843363.322   -23940242.75149 -18628447.06148  20843363.140    20843365.303
  21468197.754   -19320283.75449 -15036690.06547  21468197.416    21468199.636
  23898411.455    -6520262.08949  -5063126.30145  23898410.844    23898413.553
 03  4 13  3 59 30.0000000  0  6G16G20G 1G25G11G14
  24644107.767    -4020548.49849  -3118881.06845  24644107.240    24644110.823
  22130075.345   -16793160.68449 -12837006.82347  22130074.639    22130077.711
  23168250.670   -13138105.96749 -10222365.57746  23168250.194    23168255.398
  20849087.956   -23910159.53949 -18605005.59648  20849087.757    20849089.959
  21475237.503   -19283289.51549 -15007863.39847  21475237.183    21475239.407
  23913464.726    -6441156.43149  -5001485.52745  23913464.134    23913466.739
 03  4 13  4  0  0.0000000  0  6G16G20G 1G25G11G14
  24627291.083    -4108921.11649  -3187742.80545  24627290.432    24627294.014
  22115118.129   -16871761.18749 -12898253.93147  22115117.423    22115120.466
  23155884.586   -13203089.70949 -10273002.18046  23155884.165    23155889.413
  20854902.604   -23879603.24149 -18581195.49148  20854902.431    20854904.619
  21482372.527   -19245794.80349 -14978646.74647  21482372.173    21482374.422
  23928518.027    -6362050.39349  -4939844.45845  23928517.562    23928520.208
 03  4 13  4  0 30.0000000  0  6G16G20G 1G25G11G14
  24610464.327    -4197345.69349  -3256645.02745  24610463.701    24610467.467
  22100191.064   -16950203.08049 -12959377.45047  22100190.407    22100193.411
  23143549.192   -13267912.69849 -10323513.50346  23143548.715    23143553.929
  20860806.927   -23848575.99249 -18557018.41448  20860806.734    20860808.918
  21489602.337   -19207801.73849 -14949041.77847  21489602.018    21489604.276
  23943571.274    -6282945.38049  -4878204.19945  23943570.791    23943573.532
 03  4 13  4  1  0.0000000  0  6G16G20G 1G25G11G14
  24593628.083    -4285820.38349  -3325586.32145  24593627.566    24593631.203
  22085294.413   -17028485.00749 -13020376.31447  22085293.789    22085296.769
  23131244.129   -13332575.82849 -10373900.26446  23131243.654    23131248.795
  20866800.374   -23817080.06949 -18532476.12948  20866800.165    20866802.387
  21496926.623   -19169312.62649 -14919050.27647  21496926.287    21496928.546
  23958624.129    -6203842.68649  -4816565.74445  23958623.461    23958626.266
 03  4 13  4  1 30.0000000  0  6G16G20G 1G25G11G14
  24576783.111    -4374341.25949  -3394563.60645  24576782.507    24576786.041
  22070428.751   -17106604.56149 -13081248.66347  22070428.141    22070431.077
  23118969.625   -13397078.24049 -10424161.81446  23118969.171    23118974.310
  20872882.910   -23785116.09449 -18507569.13748  20872882.734    20872884.937
  21504345.076   -19130328.60449 -14888673.13047  21504344.732    21504346.981
  23973676.478    -6124741.77849  -4754928.67145  23973675.829    23973678.547
 03  4 13  4  2  0.0000000  0  6G16G20G 1G25G11G14
  24559929.820    -4462905.67549  -3463574.79145  24559929.195    24559932.754
  22055594.327   -17184559.72449 -13141992.90447  22055593.710    22055596.679
  23106725.734   -13461420.33649 -10474298.41946  23106725.227    23106730.289
  20879054.243   -23752685.74949 -18482298.73248  20879054.052    20879056.226
  21511857.384   -19090851.10249 -14857911.45447  21511857.061    21511859.289
  23988728.492    -6045643.13149  -4693293.36645  23988727.849    23988730.518
 03  4 13  4  2 30.0000000  0  6G16G20G 1G25G11G14
  24543068.462    -4551512.24249  -3532618.81145  24543067.898    24543071.331
  22040791.222   -17262350.09749 -13202608.72747  22040790.578    22040793.644
  23094511.888   -13525603.80749 -10524311.44946  23094511.393    23094516.491
  20885313.668   -23719792.17349 -18456667.37148  20885313.468    20885315.665
  21519462.967   -19050883.61149 -14826767.96047  21519462.646    21519464.858
  24003779.736    -5966548.47649  -4631661.18845  24003779.170    24003781.677
 03  4 13  4  3  0.0000000  0  6G16G20G 1G25G11G14
  24526199.963    -4640155.76449  -3601691.62545  24526199.456    24526203.172
  22026020.309   -17339971.31049 -13263092.74447  22026019.654    22026022.779
  23082328.722   -13589626.28149 -10574199.02146  23082328.256    23082333.350
  20891661.468   -23686434.27049 -18430674.19948  20891661.254    20891663.437
  21527161.954   -19010425.20949 -14795241.94347  21527161.616    21527163.846
  24018830.221    -5887456.01149  -4570030.69745  24018829.691    24018832.386
 03  4 13  4  3 30.0000000  0  6G16G20G 1G25G11G14
  24509324.838    -4728834.88349  -3670792.20745  24509324.218    24509328.165
  22011281.789   -17417423.01549 -13323444.68647  22011281.107    22011284.204
  23070175.988   -13653489.23149 -10623962.28246  23070175.500    23070180.613
  20898096.957   -23652615.40949 -18404321.84048  20898096.759    20898098.974
  21534953.733   -18969479.04949 -14763335.85847  21534953.402    21534955.617
  24033880.363    -5808367.55249  -4508403.32945  24033879.762    24033882.427
 03  4 13  4  4  0.0000000  0  6G16G20G 1G25G11G14
  24492443.353    -4817546.88449  -3739918.38345  24492442.985    24492446.707
  21996575.767   -17494703.40349 -13383663.12747  21996575.098    21996578.202
  23058053.501   -13717192.98549 -10673601.47846  23058053.002    23058058.135
  20904619.868   -23618337.22949 -18377611.56648  20904619.673    20904621.881
  21542838.086   -18928047.01249 -14731051.16747  21542837.724    21542839.888
  24048929.488    -5729283.90149  -4446779.72545  24048928.872    24048931.544
